<?xml version="1.0" encoding="UTF-8" standalone="no" ?>
<gpx xmlns="http://www.topografix.com/GPX/1/1" xmlns:xsi="http://www.w3.org/2001/XMLSchema-instance" xsi:schemaLocation="http://www.topografix.com/GPX/1/1 http://www.topografix.com/GPX/1/1/gpx.xsd" version="1.1" creator="VisuGPX - https://www.visugpx.com">
  <metadata>
    <name>Traversée AM jour 1</name>
    <desc><![CDATA[D\'isola 2000 à St Etienne de Tinée]]></desc>
  </metadata>
  <trk>
    <name><![CDATA[j1]]></name>
    <trkseg>
      <trkpt lat="44.20249" lon="7.14989">
        <ele>2366</ele>
        <time>2013-09-20T07:05:51Z</time>
      </trkpt>
      <trkpt lat="44.20244" lon="7.14993">
        <ele>2366</ele>
        <time>2013-09-20T07:05:59Z</time>
      </trkpt>
      <trkpt lat="44.20244" lon="7.14984">
        <ele>2365</ele>
        <time>2013-09-20T07:06:04Z</time>
      </trkpt>
      <trkpt lat="44.20245" lon="7.14959">
        <ele>2365</ele>
        <time>2013-09-20T07:06:13Z</time>
      </trkpt>
      <trkpt lat="44.20243" lon="7.14954">
        <ele>2365</ele>
        <time>2013-09-20T07:06:18Z</time>
      </trkpt>
      <trkpt lat="44.20246" lon="7.14965">
        <ele>2365</ele>
        <time>2013-09-20T07:06:29Z</time>
      </trkpt>
      <trkpt lat="44.20251" lon="7.14985">
        <ele>2365</ele>
        <time>2013-09-20T07:06:36Z</time>
      </trkpt>
      <trkpt lat="44.20257" lon="7.14966">
        <ele>2364</ele>
        <time>2013-09-20T07:06:43Z</time>
      </trkpt>
      <trkpt lat="44.20242" lon="7.14901">
        <ele>2363</ele>
        <time>2013-09-20T07:06:55Z</time>
      </trkpt>
      <trkpt lat="44.20229" lon="7.14832">
        <ele>2363</ele>
        <time>2013-09-20T07:07:04Z</time>
      </trkpt>
      <trkpt lat="44.20229" lon="7.14799">
        <ele>2362</ele>
        <time>2013-09-20T07:07:11Z</time>
      </trkpt>
      <trkpt lat="44.20227" lon="7.14767">
        <ele>2362</ele>
        <time>2013-09-20T07:07:19Z</time>
      </trkpt>
      <trkpt lat="44.20221" lon="7.14721">
        <ele>2361</ele>
        <time>2013-09-20T07:07:32Z</time>
      </trkpt>
      <trkpt lat="44.20211" lon="7.14677">
        <ele>2361</ele>
        <time>2013-09-20T07:07:47Z</time>
      </trkpt>
      <trkpt lat="44.20209" lon="7.14628">
        <ele>2361</ele>
        <time>2013-09-20T07:08:03Z</time>
      </trkpt>
      <trkpt lat="44.20192" lon="7.14587">
        <ele>2361</ele>
        <time>2013-09-20T07:08:18Z</time>
      </trkpt>
      <trkpt lat="44.20171" lon="7.14546">
        <ele>2362</ele>
        <time>2013-09-20T07:08:35Z</time>
      </trkpt>
      <trkpt lat="44.20161" lon="7.14501">
        <ele>2364</ele>
        <time>2013-09-20T07:08:51Z</time>
      </trkpt>
      <trkpt lat="44.20172" lon="7.14455">
        <ele>2365</ele>
        <time>2013-09-20T07:09:08Z</time>
      </trkpt>
      <trkpt lat="44.20177" lon="7.14406">
        <ele>2367</ele>
        <time>2013-09-20T07:09:25Z</time>
      </trkpt>
      <trkpt lat="44.20175" lon="7.14368">
        <ele>2369</ele>
        <time>2013-09-20T07:09:39Z</time>
      </trkpt>
      <trkpt lat="44.20182" lon="7.14329">
        <ele>2371</ele>
        <time>2013-09-20T07:09:53Z</time>
      </trkpt>
      <trkpt lat="44.20201" lon="7.14292">
        <ele>2373</ele>
        <time>2013-09-20T07:10:09Z</time>
      </trkpt>
      <trkpt lat="44.20221" lon="7.14254">
        <ele>2374</ele>
        <time>2013-09-20T07:10:25Z</time>
      </trkpt>
      <trkpt lat="44.20232" lon="7.14223">
        <ele>2375</ele>
        <time>2013-09-20T07:10:37Z</time>
      </trkpt>
      <trkpt lat="44.20242" lon="7.14175">
        <ele>2377</ele>
        <time>2013-09-20T07:10:53Z</time>
      </trkpt>
      <trkpt lat="44.20248" lon="7.1413">
        <ele>2379</ele>
        <time>2013-09-20T07:11:07Z</time>
      </trkpt>
      <trkpt lat="44.20245" lon="7.14073">
        <ele>2381</ele>
        <time>2013-09-20T07:11:25Z</time>
      </trkpt>
      <trkpt lat="44.20244" lon="7.14024">
        <ele>2382</ele>
        <time>2013-09-20T07:11:40Z</time>
      </trkpt>
      <trkpt lat="44.2025" lon="7.13984">
        <ele>2384</ele>
        <time>2013-09-20T07:11:53Z</time>
      </trkpt>
      <trkpt lat="44.20265" lon="7.1395">
        <ele>2385</ele>
        <time>2013-09-20T07:12:05Z</time>
      </trkpt>
      <trkpt lat="44.20271" lon="7.13898">
        <ele>2387</ele>
        <time>2013-09-20T07:12:21Z</time>
      </trkpt>
      <trkpt lat="44.20267" lon="7.13886">
        <ele>2388</ele>
        <time>2013-09-20T07:12:27Z</time>
      </trkpt>
      <trkpt lat="44.20261" lon="7.1387">
        <ele>2389</ele>
        <time>2013-09-20T07:12:36Z</time>
      </trkpt>
      <trkpt lat="44.20267" lon="7.13846">
        <ele>2390</ele>
        <time>2013-09-20T07:12:45Z</time>
      </trkpt>
      <trkpt lat="44.20273" lon="7.13823">
        <ele>2391</ele>
        <time>2013-09-20T07:12:56Z</time>
      </trkpt>
      <trkpt lat="44.20274" lon="7.13822">
        <ele>2393</ele>
        <time>2013-09-20T07:13:09Z</time>
      </trkpt>
      <trkpt lat="44.20298" lon="7.1381">
        <ele>2394</ele>
        <time>2013-09-20T07:14:20Z</time>
      </trkpt>
      <trkpt lat="44.20321" lon="7.13799">
        <ele>2394</ele>
        <time>2013-09-20T07:14:26Z</time>
      </trkpt>
      <trkpt lat="44.20346" lon="7.13788">
        <ele>2394</ele>
        <time>2013-09-20T07:14:32Z</time>
      </trkpt>
      <trkpt lat="44.2036" lon="7.13781">
        <ele>2393</ele>
        <time>2013-09-20T07:14:35Z</time>
      </trkpt>
      <trkpt lat="44.20372" lon="7.1377">
        <ele>2393</ele>
        <time>2013-09-20T07:14:38Z</time>
      </trkpt>
      <trkpt lat="44.20409" lon="7.13738">
        <ele>2392</ele>
        <time>2013-09-20T07:14:44Z</time>
      </trkpt>
      <trkpt lat="44.20462" lon="7.13662">
        <ele>2390</ele>
        <time>2013-09-20T07:14:56Z</time>
      </trkpt>
      <trkpt lat="44.20499" lon="7.13613">
        <ele>2389</ele>
        <time>2013-09-20T07:15:03Z</time>
      </trkpt>
      <trkpt lat="44.20531" lon="7.13563">
        <ele>2387</ele>
        <time>2013-09-20T07:15:10Z</time>
      </trkpt>
      <trkpt lat="44.20541" lon="7.13534">
        <ele>2386</ele>
        <time>2013-09-20T07:15:14Z</time>
      </trkpt>
      <trkpt lat="44.20546" lon="7.13481">
        <ele>2385</ele>
        <time>2013-09-20T07:15:20Z</time>
      </trkpt>
      <trkpt lat="44.20547" lon="7.13459">
        <ele>2384</ele>
        <time>2013-09-20T07:15:23Z</time>
      </trkpt>
      <trkpt lat="44.20546" lon="7.13412">
        <ele>2383</ele>
        <time>2013-09-20T07:15:29Z</time>
      </trkpt>
      <trkpt lat="44.20566" lon="7.13355">
        <ele>2380</ele>
        <time>2013-09-20T07:15:37Z</time>
      </trkpt>
      <trkpt lat="44.20577" lon="7.13313">
        <ele>2378</ele>
        <time>2013-09-20T07:15:42Z</time>
      </trkpt>
      <trkpt lat="44.2059" lon="7.13284">
        <ele>2377</ele>
        <time>2013-09-20T07:15:46Z</time>
      </trkpt>
      <trkpt lat="44.20602" lon="7.13267">
        <ele>2376</ele>
        <time>2013-09-20T07:15:50Z</time>
      </trkpt>
      <trkpt lat="44.20612" lon="7.13246">
        <ele>2374</ele>
        <time>2013-09-20T07:15:55Z</time>
      </trkpt>
      <trkpt lat="44.2062" lon="7.13227">
        <ele>2373</ele>
        <time>2013-09-20T07:16:00Z</time>
      </trkpt>
      <trkpt lat="44.20622" lon="7.13223">
        <ele>2371</ele>
        <time>2013-09-20T07:16:04Z</time>
      </trkpt>
      <trkpt lat="44.20625" lon="7.13215">
        <ele>2366</ele>
        <time>2013-09-20T07:16:26Z</time>
      </trkpt>
      <trkpt lat="44.20644" lon="7.13188">
        <ele>2364</ele>
        <time>2013-09-20T07:16:33Z</time>
      </trkpt>
      <trkpt lat="44.20658" lon="7.13151">
        <ele>2361</ele>
        <time>2013-09-20T07:16:43Z</time>
      </trkpt>
      <trkpt lat="44.2068" lon="7.13105">
        <ele>2358</ele>
        <time>2013-09-20T07:16:52Z</time>
      </trkpt>
      <trkpt lat="44.20719" lon="7.13045">
        <ele>2355</ele>
        <time>2013-09-20T07:17:02Z</time>
      </trkpt>
      <trkpt lat="44.20731" lon="7.1303">
        <ele>2353</ele>
        <time>2013-09-20T07:17:06Z</time>
      </trkpt>
      <trkpt lat="44.20744" lon="7.1302">
        <ele>2351</ele>
        <time>2013-09-20T07:17:12Z</time>
      </trkpt>
      <trkpt lat="44.20759" lon="7.13004">
        <ele>2348</ele>
        <time>2013-09-20T07:17:24Z</time>
      </trkpt>
      <trkpt lat="44.20775" lon="7.12978">
        <ele>2345</ele>
        <time>2013-09-20T07:17:40Z</time>
      </trkpt>
      <trkpt lat="44.20791" lon="7.12951">
        <ele>2342</ele>
        <time>2013-09-20T07:17:56Z</time>
      </trkpt>
      <trkpt lat="44.20817" lon="7.12931">
        <ele>2340</ele>
        <time>2013-09-20T07:18:10Z</time>
      </trkpt>
      <trkpt lat="44.20855" lon="7.12897">
        <ele>2339</ele>
        <time>2013-09-20T07:18:27Z</time>
      </trkpt>
      <trkpt lat="44.2088" lon="7.12879">
        <ele>2337</ele>
        <time>2013-09-20T07:18:42Z</time>
      </trkpt>
      <trkpt lat="44.20898" lon="7.12866">
        <ele>2337</ele>
        <time>2013-09-20T07:18:57Z</time>
      </trkpt>
      <trkpt lat="44.20898" lon="7.12864">
        <ele>2336</ele>
        <time>2013-09-20T07:19:23Z</time>
      </trkpt>
      <trkpt lat="44.20899" lon="7.12859">
        <ele>2336</ele>
        <time>2013-09-20T07:19:35Z</time>
      </trkpt>
      <trkpt lat="44.20896" lon="7.12858">
        <ele>2335</ele>
        <time>2013-09-20T07:19:49Z</time>
      </trkpt>
      <trkpt lat="44.20897" lon="7.12867">
        <ele>2335</ele>
        <time>2013-09-20T07:20:26Z</time>
      </trkpt>
      <trkpt lat="44.20897" lon="7.12863">
        <ele>2335</ele>
        <time>2013-09-20T07:25:13Z</time>
      </trkpt>
      <trkpt lat="44.20897" lon="7.12863">
        <ele>2336</ele>
        <time>2013-09-20T07:26:12Z</time>
      </trkpt>
      <trkpt lat="44.20897" lon="7.12865">
        <ele>2334</ele>
        <time>2013-09-20T07:27:55Z</time>
      </trkpt>
      <trkpt lat="44.20898" lon="7.12863">
        <ele>2333</ele>
        <time>2013-09-20T07:35:07Z</time>
      </trkpt>
      <trkpt lat="44.20903" lon="7.12859">
        <ele>2332</ele>
        <time>2013-09-20T07:35:30Z</time>
      </trkpt>
      <trkpt lat="44.20912" lon="7.1285">
        <ele>2332</ele>
        <time>2013-09-20T07:35:36Z</time>
      </trkpt>
      <trkpt lat="44.2094" lon="7.12821">
        <ele>2332</ele>
        <time>2013-09-20T07:35:50Z</time>
      </trkpt>
      <trkpt lat="44.20965" lon="7.12783">
        <ele>2332</ele>
        <time>2013-09-20T07:36:02Z</time>
      </trkpt>
      <trkpt lat="44.20988" lon="7.12754">
        <ele>2332</ele>
        <time>2013-09-20T07:36:13Z</time>
      </trkpt>
      <trkpt lat="44.21022" lon="7.12723">
        <ele>2332</ele>
        <time>2013-09-20T07:36:23Z</time>
      </trkpt>
      <trkpt lat="44.21066" lon="7.12681">
        <ele>2331</ele>
        <time>2013-09-20T07:36:32Z</time>
      </trkpt>
      <trkpt lat="44.2108" lon="7.12654">
        <ele>2331</ele>
        <time>2013-09-20T07:36:37Z</time>
      </trkpt>
      <trkpt lat="44.21086" lon="7.12644">
        <ele>2331</ele>
        <time>2013-09-20T07:36:39Z</time>
      </trkpt>
      <trkpt lat="44.21095" lon="7.12622">
        <ele>2331</ele>
        <time>2013-09-20T07:36:45Z</time>
      </trkpt>
      <trkpt lat="44.21111" lon="7.12593">
        <ele>2331</ele>
        <time>2013-09-20T07:36:52Z</time>
      </trkpt>
      <trkpt lat="44.21127" lon="7.12562">
        <ele>2330</ele>
        <time>2013-09-20T07:37:02Z</time>
      </trkpt>
      <trkpt lat="44.21134" lon="7.12529">
        <ele>2330</ele>
        <time>2013-09-20T07:37:11Z</time>
      </trkpt>
      <trkpt lat="44.21128" lon="7.12511">
        <ele>2329</ele>
        <time>2013-09-20T07:37:15Z</time>
      </trkpt>
      <trkpt lat="44.21129" lon="7.12467">
        <ele>2328</ele>
        <time>2013-09-20T07:37:22Z</time>
      </trkpt>
      <trkpt lat="44.21134" lon="7.1244">
        <ele>2328</ele>
        <time>2013-09-20T07:37:26Z</time>
      </trkpt>
      <trkpt lat="44.21137" lon="7.12421">
        <ele>2327</ele>
        <time>2013-09-20T07:37:30Z</time>
      </trkpt>
      <trkpt lat="44.21141" lon="7.12403">
        <ele>2326</ele>
        <time>2013-09-20T07:37:35Z</time>
      </trkpt>
      <trkpt lat="44.21149" lon="7.12395">
        <ele>2326</ele>
        <time>2013-09-20T07:37:39Z</time>
      </trkpt>
      <trkpt lat="44.21159" lon="7.12386">
        <ele>2325</ele>
        <time>2013-09-20T07:37:46Z</time>
      </trkpt>
      <trkpt lat="44.21157" lon="7.12387">
        <ele>2309</ele>
        <time>2013-09-20T07:43:37Z</time>
      </trkpt>
      <trkpt lat="44.21171" lon="7.12383">
        <ele>2309</ele>
        <time>2013-09-20T07:43:44Z</time>
      </trkpt>
      <trkpt lat="44.21196" lon="7.12339">
        <ele>2309</ele>
        <time>2013-09-20T07:43:53Z</time>
      </trkpt>
      <trkpt lat="44.21206" lon="7.12311">
        <ele>2309</ele>
        <time>2013-09-20T07:43:57Z</time>
      </trkpt>
      <trkpt lat="44.21215" lon="7.12277">
        <ele>2308</ele>
        <time>2013-09-20T07:44:01Z</time>
      </trkpt>
      <trkpt lat="44.21221" lon="7.12214">
        <ele>2308</ele>
        <time>2013-09-20T07:44:08Z</time>
      </trkpt>
      <trkpt lat="44.21224" lon="7.12195">
        <ele>2307</ele>
        <time>2013-09-20T07:44:11Z</time>
      </trkpt>
      <trkpt lat="44.21227" lon="7.12145">
        <ele>2307</ele>
        <time>2013-09-20T07:44:17Z</time>
      </trkpt>
      <trkpt lat="44.21243" lon="7.12094">
        <ele>2306</ele>
        <time>2013-09-20T07:44:24Z</time>
      </trkpt>
      <trkpt lat="44.21255" lon="7.12066">
        <ele>2306</ele>
        <time>2013-09-20T07:44:27Z</time>
      </trkpt>
      <trkpt lat="44.21277" lon="7.12035">
        <ele>2305</ele>
        <time>2013-09-20T07:44:33Z</time>
      </trkpt>
      <trkpt lat="44.21288" lon="7.12021">
        <ele>2305</ele>
        <time>2013-09-20T07:44:38Z</time>
      </trkpt>
      <trkpt lat="44.21312" lon="7.11979">
        <ele>2304</ele>
        <time>2013-09-20T07:44:47Z</time>
      </trkpt>
      <trkpt lat="44.21344" lon="7.11928">
        <ele>2303</ele>
        <time>2013-09-20T07:45:02Z</time>
      </trkpt>
      <trkpt lat="44.21373" lon="7.11899">
        <ele>2303</ele>
        <time>2013-09-20T07:45:15Z</time>
      </trkpt>
      <trkpt lat="44.21399" lon="7.11881">
        <ele>2303</ele>
        <time>2013-09-20T07:45:29Z</time>
      </trkpt>
      <trkpt lat="44.21408" lon="7.11875">
        <ele>2303</ele>
        <time>2013-09-20T07:45:37Z</time>
      </trkpt>
      <trkpt lat="44.2142" lon="7.11875">
        <ele>2303</ele>
        <time>2013-09-20T07:45:49Z</time>
      </trkpt>
      <trkpt lat="44.2143" lon="7.11866">
        <ele>2304</ele>
        <time>2013-09-20T07:46:06Z</time>
      </trkpt>
      <trkpt lat="44.21435" lon="7.11856">
        <ele>2305</ele>
        <time>2013-09-20T07:46:25Z</time>
      </trkpt>
      <trkpt lat="44.2144" lon="7.11852">
        <ele>2307</ele>
        <time>2013-09-20T07:46:39Z</time>
      </trkpt>
      <trkpt lat="44.21448" lon="7.11847">
        <ele>2309</ele>
        <time>2013-09-20T07:46:55Z</time>
      </trkpt>
      <trkpt lat="44.21455" lon="7.11839">
        <ele>2310</ele>
        <time>2013-09-20T07:47:11Z</time>
      </trkpt>
      <trkpt lat="44.21464" lon="7.11829">
        <ele>2312</ele>
        <time>2013-09-20T07:47:27Z</time>
      </trkpt>
      <trkpt lat="44.21473" lon="7.11824">
        <ele>2314</ele>
        <time>2013-09-20T07:47:42Z</time>
      </trkpt>
      <trkpt lat="44.21482" lon="7.11819">
        <ele>2316</ele>
        <time>2013-09-20T07:47:55Z</time>
      </trkpt>
      <trkpt lat="44.21486" lon="7.11813">
        <ele>2317</ele>
        <time>2013-09-20T07:48:07Z</time>
      </trkpt>
      <trkpt lat="44.21491" lon="7.11805">
        <ele>2320</ele>
        <time>2013-09-20T07:48:22Z</time>
      </trkpt>
      <trkpt lat="44.21497" lon="7.11795">
        <ele>2323</ele>
        <time>2013-09-20T07:48:38Z</time>
      </trkpt>
      <trkpt lat="44.21505" lon="7.11791">
        <ele>2326</ele>
        <time>2013-09-20T07:48:54Z</time>
      </trkpt>
      <trkpt lat="44.21511" lon="7.11785">
        <ele>2328</ele>
        <time>2013-09-20T07:49:07Z</time>
      </trkpt>
      <trkpt lat="44.21519" lon="7.11775">
        <ele>2331</ele>
        <time>2013-09-20T07:49:24Z</time>
      </trkpt>
      <trkpt lat="44.21523" lon="7.11761">
        <ele>2335</ele>
        <time>2013-09-20T07:49:42Z</time>
      </trkpt>
      <trkpt lat="44.21527" lon="7.11748">
        <ele>2337</ele>
        <time>2013-09-20T07:49:55Z</time>
      </trkpt>
      <trkpt lat="44.21535" lon="7.11737">
        <ele>2340</ele>
        <time>2013-09-20T07:50:10Z</time>
      </trkpt>
      <trkpt lat="44.21536" lon="7.11733">
        <ele>2340</ele>
        <time>2013-09-20T07:50:16Z</time>
      </trkpt>
      <trkpt lat="44.21547" lon="7.11711">
        <ele>2343</ele>
        <time>2013-09-20T07:50:31Z</time>
      </trkpt>
      <trkpt lat="44.2155" lon="7.11705">
        <ele>2343</ele>
        <time>2013-09-20T07:50:35Z</time>
      </trkpt>
      <trkpt lat="44.21561" lon="7.11691">
        <ele>2345</ele>
        <time>2013-09-20T07:50:45Z</time>
      </trkpt>
      <trkpt lat="44.21572" lon="7.11684">
        <ele>2346</ele>
        <time>2013-09-20T07:50:54Z</time>
      </trkpt>
      <trkpt lat="44.21577" lon="7.11674">
        <ele>2349</ele>
        <time>2013-09-20T07:51:06Z</time>
      </trkpt>
      <trkpt lat="44.21587" lon="7.11664">
        <ele>2351</ele>
        <time>2013-09-20T07:51:18Z</time>
      </trkpt>
      <trkpt lat="44.21612" lon="7.11646">
        <ele>2353</ele>
        <time>2013-09-20T07:51:33Z</time>
      </trkpt>
      <trkpt lat="44.21632" lon="7.11617">
        <ele>2353</ele>
        <time>2013-09-20T07:51:41Z</time>
      </trkpt>
      <trkpt lat="44.21652" lon="7.11578">
        <ele>2352</ele>
        <time>2013-09-20T07:51:49Z</time>
      </trkpt>
      <trkpt lat="44.21664" lon="7.11559">
        <ele>2352</ele>
        <time>2013-09-20T07:51:54Z</time>
      </trkpt>
      <trkpt lat="44.21675" lon="7.11515">
        <ele>2351</ele>
        <time>2013-09-20T07:52:04Z</time>
      </trkpt>
      <trkpt lat="44.21694" lon="7.11478">
        <ele>2350</ele>
        <time>2013-09-20T07:52:14Z</time>
      </trkpt>
      <trkpt lat="44.21718" lon="7.1145">
        <ele>2349</ele>
        <time>2013-09-20T07:52:20Z</time>
      </trkpt>
      <trkpt lat="44.21723" lon="7.11447">
        <ele>2349</ele>
        <time>2013-09-20T07:52:24Z</time>
      </trkpt>
      <trkpt lat="44.21734" lon="7.11434">
        <ele>2348</ele>
        <time>2013-09-20T07:52:33Z</time>
      </trkpt>
      <trkpt lat="44.21743" lon="7.11425">
        <ele>2347</ele>
        <time>2013-09-20T07:52:42Z</time>
      </trkpt>
      <trkpt lat="44.21756" lon="7.11414">
        <ele>2346</ele>
        <time>2013-09-20T07:52:55Z</time>
      </trkpt>
      <trkpt lat="44.21765" lon="7.11404">
        <ele>2346</ele>
        <time>2013-09-20T07:53:04Z</time>
      </trkpt>
      <trkpt lat="44.21771" lon="7.11395">
        <ele>2346</ele>
        <time>2013-09-20T07:53:12Z</time>
      </trkpt>
      <trkpt lat="44.21772" lon="7.11388">
        <ele>2346</ele>
        <time>2013-09-20T07:53:18Z</time>
      </trkpt>
      <trkpt lat="44.2178" lon="7.11377">
        <ele>2346</ele>
        <time>2013-09-20T07:53:30Z</time>
      </trkpt>
      <trkpt lat="44.21787" lon="7.11362">
        <ele>2347</ele>
        <time>2013-09-20T07:53:48Z</time>
      </trkpt>
      <trkpt lat="44.21796" lon="7.11346">
        <ele>2349</ele>
        <time>2013-09-20T07:54:07Z</time>
      </trkpt>
      <trkpt lat="44.21803" lon="7.11334">
        <ele>2351</ele>
        <time>2013-09-20T07:54:24Z</time>
      </trkpt>
      <trkpt lat="44.21811" lon="7.11321">
        <ele>2353</ele>
        <time>2013-09-20T07:54:43Z</time>
      </trkpt>
      <trkpt lat="44.21817" lon="7.11311">
        <ele>2356</ele>
        <time>2013-09-20T07:55:00Z</time>
      </trkpt>
      <trkpt lat="44.21815" lon="7.11306">
        <ele>2358</ele>
        <time>2013-09-20T07:55:11Z</time>
      </trkpt>
      <trkpt lat="44.21815" lon="7.11291">
        <ele>2361</ele>
        <time>2013-09-20T07:55:27Z</time>
      </trkpt>
      <trkpt lat="44.21827" lon="7.11271">
        <ele>2364</ele>
        <time>2013-09-20T07:55:47Z</time>
      </trkpt>
      <trkpt lat="44.21835" lon="7.11254">
        <ele>2367</ele>
        <time>2013-09-20T07:56:05Z</time>
      </trkpt>
      <trkpt lat="44.21835" lon="7.11253">
        <ele>2368</ele>
        <time>2013-09-20T07:56:17Z</time>
      </trkpt>
      <trkpt lat="44.21833" lon="7.11255">
        <ele>2371</ele>
        <time>2013-09-20T07:56:39Z</time>
      </trkpt>
      <trkpt lat="44.21836" lon="7.11253">
        <ele>2372</ele>
        <time>2013-09-20T07:56:55Z</time>
      </trkpt>
      <trkpt lat="44.21836" lon="7.11252">
        <ele>2373</ele>
        <time>2013-09-20T07:57:12Z</time>
      </trkpt>
      <trkpt lat="44.21842" lon="7.11244">
        <ele>2374</ele>
        <time>2013-09-20T07:57:45Z</time>
      </trkpt>
      <trkpt lat="44.21843" lon="7.11242">
        <ele>2374</ele>
        <time>2013-09-20T07:58:01Z</time>
      </trkpt>
      <trkpt lat="44.21842" lon="7.11244">
        <ele>2375</ele>
        <time>2013-09-20T07:58:56Z</time>
      </trkpt>
      <trkpt lat="44.21846" lon="7.11239">
        <ele>2375</ele>
        <time>2013-09-20T07:59:02Z</time>
      </trkpt>
      <trkpt lat="44.21843" lon="7.11242">
        <ele>2375</ele>
        <time>2013-09-20T07:59:26Z</time>
      </trkpt>
      <trkpt lat="44.21846" lon="7.11239">
        <ele>2374</ele>
        <time>2013-09-20T07:59:52Z</time>
      </trkpt>
      <trkpt lat="44.21846" lon="7.11242">
        <ele>2374</ele>
        <time>2013-09-20T07:59:56Z</time>
      </trkpt>
      <trkpt lat="44.21846" lon="7.11247">
        <ele>2374</ele>
        <time>2013-09-20T08:00:07Z</time>
      </trkpt>
      <trkpt lat="44.21845" lon="7.11247">
        <ele>2374</ele>
        <time>2013-09-20T08:00:39Z</time>
      </trkpt>
      <trkpt lat="44.21845" lon="7.11245">
        <ele>2374</ele>
        <time>2013-09-20T08:01:45Z</time>
      </trkpt>
      <trkpt lat="44.21844" lon="7.11243">
        <ele>2374</ele>
        <time>2013-09-20T08:02:03Z</time>
      </trkpt>
      <trkpt lat="44.2189" lon="7.11184">
        <ele>2369</ele>
        <time>2013-09-20T08:03:25Z</time>
      </trkpt>
      <trkpt lat="44.21895" lon="7.11178">
        <ele>2367</ele>
        <time>2013-09-20T08:03:39Z</time>
      </trkpt>
      <trkpt lat="44.21902" lon="7.11176">
        <ele>2366</ele>
        <time>2013-09-20T08:03:51Z</time>
      </trkpt>
      <trkpt lat="44.2191" lon="7.11167">
        <ele>2364</ele>
        <time>2013-09-20T08:04:03Z</time>
      </trkpt>
      <trkpt lat="44.21912" lon="7.11163">
        <ele>2364</ele>
        <time>2013-09-20T08:04:08Z</time>
      </trkpt>
      <trkpt lat="44.21923" lon="7.11154">
        <ele>2363</ele>
        <time>2013-09-20T08:04:19Z</time>
      </trkpt>
      <trkpt lat="44.21944" lon="7.1114">
        <ele>2361</ele>
        <time>2013-09-20T08:04:30Z</time>
      </trkpt>
      <trkpt lat="44.21946" lon="7.11137">
        <ele>2360</ele>
        <time>2013-09-20T08:04:40Z</time>
      </trkpt>
      <trkpt lat="44.21923" lon="7.11134">
        <ele>2358</ele>
        <time>2013-09-20T08:04:49Z</time>
      </trkpt>
      <trkpt lat="44.21898" lon="7.11128">
        <ele>2356</ele>
        <time>2013-09-20T08:04:58Z</time>
      </trkpt>
      <trkpt lat="44.21898" lon="7.11124">
        <ele>2356</ele>
        <time>2013-09-20T08:05:00Z</time>
      </trkpt>
      <trkpt lat="44.21909" lon="7.11112">
        <ele>2355</ele>
        <time>2013-09-20T08:05:06Z</time>
      </trkpt>
      <trkpt lat="44.21933" lon="7.11088">
        <ele>2352</ele>
        <time>2013-09-20T08:05:18Z</time>
      </trkpt>
      <trkpt lat="44.21952" lon="7.11062">
        <ele>2349</ele>
        <time>2013-09-20T08:05:30Z</time>
      </trkpt>
      <trkpt lat="44.21953" lon="7.11063">
        <ele>2348</ele>
        <time>2013-09-20T08:05:36Z</time>
      </trkpt>
      <trkpt lat="44.21965" lon="7.11055">
        <ele>2343</ele>
        <time>2013-09-20T08:05:54Z</time>
      </trkpt>
      <trkpt lat="44.21973" lon="7.11046">
        <ele>2339</ele>
        <time>2013-09-20T08:06:07Z</time>
      </trkpt>
      <trkpt lat="44.21976" lon="7.11043">
        <ele>2338</ele>
        <time>2013-09-20T08:06:10Z</time>
      </trkpt>
      <trkpt lat="44.21982" lon="7.11037">
        <ele>2336</ele>
        <time>2013-09-20T08:06:15Z</time>
      </trkpt>
      <trkpt lat="44.21991" lon="7.11034">
        <ele>2334</ele>
        <time>2013-09-20T08:06:23Z</time>
      </trkpt>
      <trkpt lat="44.2201" lon="7.11027">
        <ele>2331</ele>
        <time>2013-09-20T08:06:32Z</time>
      </trkpt>
      <trkpt lat="44.22017" lon="7.11019">
        <ele>2329</ele>
        <time>2013-09-20T08:06:39Z</time>
      </trkpt>
      <trkpt lat="44.22028" lon="7.1102">
        <ele>2328</ele>
        <time>2013-09-20T08:06:44Z</time>
      </trkpt>
      <trkpt lat="44.22043" lon="7.11012">
        <ele>2325</ele>
        <time>2013-09-20T08:06:53Z</time>
      </trkpt>
      <trkpt lat="44.2205" lon="7.11015">
        <ele>2323</ele>
        <time>2013-09-20T08:07:00Z</time>
      </trkpt>
      <trkpt lat="44.22067" lon="7.1101">
        <ele>2319</ele>
        <time>2013-09-20T08:07:09Z</time>
      </trkpt>
      <trkpt lat="44.22073" lon="7.11016">
        <ele>2318</ele>
        <time>2013-09-20T08:07:13Z</time>
      </trkpt>
      <trkpt lat="44.22081" lon="7.11016">
        <ele>2316</ele>
        <time>2013-09-20T08:07:18Z</time>
      </trkpt>
      <trkpt lat="44.22087" lon="7.11013">
        <ele>2315</ele>
        <time>2013-09-20T08:07:21Z</time>
      </trkpt>
      <trkpt lat="44.22094" lon="7.11008">
        <ele>2312</ele>
        <time>2013-09-20T08:07:27Z</time>
      </trkpt>
      <trkpt lat="44.22099" lon="7.11005">
        <ele>2311</ele>
        <time>2013-09-20T08:07:31Z</time>
      </trkpt>
      <trkpt lat="44.22111" lon="7.11002">
        <ele>2308</ele>
        <time>2013-09-20T08:07:37Z</time>
      </trkpt>
      <trkpt lat="44.22123" lon="7.10985">
        <ele>2304</ele>
        <time>2013-09-20T08:07:45Z</time>
      </trkpt>
      <trkpt lat="44.22124" lon="7.10986">
        <ele>2302</ele>
        <time>2013-09-20T08:07:50Z</time>
      </trkpt>
      <trkpt lat="44.22128" lon="7.10999">
        <ele>2297</ele>
        <time>2013-09-20T08:08:03Z</time>
      </trkpt>
      <trkpt lat="44.22134" lon="7.10995">
        <ele>2295</ele>
        <time>2013-09-20T08:08:07Z</time>
      </trkpt>
      <trkpt lat="44.22143" lon="7.10979">
        <ele>2293</ele>
        <time>2013-09-20T08:08:13Z</time>
      </trkpt>
      <trkpt lat="44.22148" lon="7.10982">
        <ele>2291</ele>
        <time>2013-09-20T08:08:18Z</time>
      </trkpt>
      <trkpt lat="44.22153" lon="7.10988">
        <ele>2289</ele>
        <time>2013-09-20T08:08:23Z</time>
      </trkpt>
      <trkpt lat="44.22165" lon="7.10985">
        <ele>2286</ele>
        <time>2013-09-20T08:08:30Z</time>
      </trkpt>
      <trkpt lat="44.22173" lon="7.10976">
        <ele>2283</ele>
        <time>2013-09-20T08:08:35Z</time>
      </trkpt>
      <trkpt lat="44.22179" lon="7.10977">
        <ele>2279</ele>
        <time>2013-09-20T08:08:46Z</time>
      </trkpt>
      <trkpt lat="44.22184" lon="7.10972">
        <ele>2273</ele>
        <time>2013-09-20T08:08:59Z</time>
      </trkpt>
      <trkpt lat="44.22187" lon="7.10972">
        <ele>2268</ele>
        <time>2013-09-20T08:09:14Z</time>
      </trkpt>
      <trkpt lat="44.22188" lon="7.10969">
        <ele>2262</ele>
        <time>2013-09-20T08:09:29Z</time>
      </trkpt>
      <trkpt lat="44.22193" lon="7.10967">
        <ele>2259</ele>
        <time>2013-09-20T08:09:39Z</time>
      </trkpt>
      <trkpt lat="44.22198" lon="7.1097">
        <ele>2254</ele>
        <time>2013-09-20T08:09:54Z</time>
      </trkpt>
      <trkpt lat="44.22199" lon="7.10963">
        <ele>2250</ele>
        <time>2013-09-20T08:10:06Z</time>
      </trkpt>
      <trkpt lat="44.22199" lon="7.10951">
        <ele>2246</ele>
        <time>2013-09-20T08:10:20Z</time>
      </trkpt>
      <trkpt lat="44.22199" lon="7.10945">
        <ele>2242</ele>
        <time>2013-09-20T08:10:35Z</time>
      </trkpt>
      <trkpt lat="44.22202" lon="7.10947">
        <ele>2231</ele>
        <time>2013-09-20T08:11:24Z</time>
      </trkpt>
      <trkpt lat="44.2221" lon="7.10959">
        <ele>2226</ele>
        <time>2013-09-20T08:11:48Z</time>
      </trkpt>
      <trkpt lat="44.22211" lon="7.10957">
        <ele>2225</ele>
        <time>2013-09-20T08:11:52Z</time>
      </trkpt>
      <trkpt lat="44.22209" lon="7.10949">
        <ele>2223</ele>
        <time>2013-09-20T08:12:02Z</time>
      </trkpt>
      <trkpt lat="44.22208" lon="7.10945">
        <ele>2223</ele>
        <time>2013-09-20T08:12:07Z</time>
      </trkpt>
      <trkpt lat="44.22212" lon="7.10944">
        <ele>2222</ele>
        <time>2013-09-20T08:12:11Z</time>
      </trkpt>
      <trkpt lat="44.22224" lon="7.10953">
        <ele>2220</ele>
        <time>2013-09-20T08:12:21Z</time>
      </trkpt>
      <trkpt lat="44.22233" lon="7.10952">
        <ele>2219</ele>
        <time>2013-09-20T08:12:26Z</time>
      </trkpt>
      <trkpt lat="44.2222" lon="7.10929">
        <ele>2217</ele>
        <time>2013-09-20T08:12:38Z</time>
      </trkpt>
      <trkpt lat="44.22232" lon="7.10935">
        <ele>2216</ele>
        <time>2013-09-20T08:12:45Z</time>
      </trkpt>
      <trkpt lat="44.22229" lon="7.10915">
        <ele>2214</ele>
        <time>2013-09-20T08:12:52Z</time>
      </trkpt>
      <trkpt lat="44.22221" lon="7.10906">
        <ele>2213</ele>
        <time>2013-09-20T08:12:55Z</time>
      </trkpt>
      <trkpt lat="44.22205" lon="7.1089">
        <ele>2212</ele>
        <time>2013-09-20T08:13:01Z</time>
      </trkpt>
      <trkpt lat="44.22201" lon="7.10875">
        <ele>2211</ele>
        <time>2013-09-20T08:13:05Z</time>
      </trkpt>
      <trkpt lat="44.22204" lon="7.10868">
        <ele>2210</ele>
        <time>2013-09-20T08:13:08Z</time>
      </trkpt>
      <trkpt lat="44.2221" lon="7.1085">
        <ele>2209</ele>
        <time>2013-09-20T08:13:13Z</time>
      </trkpt>
      <trkpt lat="44.22213" lon="7.10831">
        <ele>2207</ele>
        <time>2013-09-20T08:13:17Z</time>
      </trkpt>
      <trkpt lat="44.22244" lon="7.10789">
        <ele>2205</ele>
        <time>2013-09-20T08:13:27Z</time>
      </trkpt>
      <trkpt lat="44.22253" lon="7.1078">
        <ele>2204</ele>
        <time>2013-09-20T08:13:30Z</time>
      </trkpt>
      <trkpt lat="44.22275" lon="7.10771">
        <ele>2203</ele>
        <time>2013-09-20T08:13:34Z</time>
      </trkpt>
      <trkpt lat="44.22297" lon="7.10771">
        <ele>2201</ele>
        <time>2013-09-20T08:13:39Z</time>
      </trkpt>
      <trkpt lat="44.22298" lon="7.1077">
        <ele>2200</ele>
        <time>2013-09-20T08:13:42Z</time>
      </trkpt>
      <trkpt lat="44.22302" lon="7.10771">
        <ele>2199</ele>
        <time>2013-09-20T08:13:47Z</time>
      </trkpt>
      <trkpt lat="44.22304" lon="7.10769">
        <ele>2198</ele>
        <time>2013-09-20T08:13:52Z</time>
      </trkpt>
      <trkpt lat="44.22327" lon="7.10749">
        <ele>2194</ele>
        <time>2013-09-20T08:14:08Z</time>
      </trkpt>
      <trkpt lat="44.22347" lon="7.10717">
        <ele>2191</ele>
        <time>2013-09-20T08:14:18Z</time>
      </trkpt>
      <trkpt lat="44.22357" lon="7.10699">
        <ele>2190</ele>
        <time>2013-09-20T08:14:24Z</time>
      </trkpt>
      <trkpt lat="44.22347" lon="7.1069">
        <ele>2188</ele>
        <time>2013-09-20T08:14:33Z</time>
      </trkpt>
      <trkpt lat="44.22326" lon="7.10679">
        <ele>2185</ele>
        <time>2013-09-20T08:14:49Z</time>
      </trkpt>
      <trkpt lat="44.22314" lon="7.10672">
        <ele>2184</ele>
        <time>2013-09-20T08:14:58Z</time>
      </trkpt>
      <trkpt lat="44.22313" lon="7.10664">
        <ele>2184</ele>
        <time>2013-09-20T08:15:02Z</time>
      </trkpt>
      <trkpt lat="44.22318" lon="7.1066">
        <ele>2183</ele>
        <time>2013-09-20T08:15:06Z</time>
      </trkpt>
      <trkpt lat="44.22329" lon="7.10655">
        <ele>2182</ele>
        <time>2013-09-20T08:15:14Z</time>
      </trkpt>
      <trkpt lat="44.22331" lon="7.10646">
        <ele>2182</ele>
        <time>2013-09-20T08:15:18Z</time>
      </trkpt>
      <trkpt lat="44.22327" lon="7.10639">
        <ele>2181</ele>
        <time>2013-09-20T08:15:22Z</time>
      </trkpt>
      <trkpt lat="44.22308" lon="7.10638">
        <ele>2180</ele>
        <time>2013-09-20T08:15:36Z</time>
      </trkpt>
      <trkpt lat="44.22284" lon="7.10643">
        <ele>2180</ele>
        <time>2013-09-20T08:15:55Z</time>
      </trkpt>
      <trkpt lat="44.22271" lon="7.10653">
        <ele>2179</ele>
        <time>2013-09-20T08:16:08Z</time>
      </trkpt>
      <trkpt lat="44.22258" lon="7.10657">
        <ele>2180</ele>
        <time>2013-09-20T08:16:19Z</time>
      </trkpt>
      <trkpt lat="44.22255" lon="7.10657">
        <ele>2180</ele>
        <time>2013-09-20T08:16:25Z</time>
      </trkpt>
      <trkpt lat="44.22249" lon="7.10659">
        <ele>2181</ele>
        <time>2013-09-20T08:16:37Z</time>
      </trkpt>
      <trkpt lat="44.22232" lon="7.10663">
        <ele>2181</ele>
        <time>2013-09-20T08:16:50Z</time>
      </trkpt>
      <trkpt lat="44.22217" lon="7.10682">
        <ele>2183</ele>
        <time>2013-09-20T08:17:05Z</time>
      </trkpt>
      <trkpt lat="44.22205" lon="7.10703">
        <ele>2183</ele>
        <time>2013-09-20T08:17:17Z</time>
      </trkpt>
      <trkpt lat="44.22199" lon="7.1072">
        <ele>2184</ele>
        <time>2013-09-20T08:17:25Z</time>
      </trkpt>
      <trkpt lat="44.22202" lon="7.10742">
        <ele>2185</ele>
        <time>2013-09-20T08:17:37Z</time>
      </trkpt>
      <trkpt lat="44.22202" lon="7.10755">
        <ele>2186</ele>
        <time>2013-09-20T08:17:43Z</time>
      </trkpt>
      <trkpt lat="44.22189" lon="7.10778">
        <ele>2188</ele>
        <time>2013-09-20T08:17:59Z</time>
      </trkpt>
      <trkpt lat="44.22179" lon="7.10792">
        <ele>2189</ele>
        <time>2013-09-20T08:18:11Z</time>
      </trkpt>
      <trkpt lat="44.22168" lon="7.10813">
        <ele>2192</ele>
        <time>2013-09-20T08:18:27Z</time>
      </trkpt>
      <trkpt lat="44.22162" lon="7.10838">
        <ele>2194</ele>
        <time>2013-09-20T08:18:43Z</time>
      </trkpt>
      <trkpt lat="44.22153" lon="7.10859">
        <ele>2197</ele>
        <time>2013-09-20T08:18:58Z</time>
      </trkpt>
      <trkpt lat="44.22143" lon="7.1087">
        <ele>2198</ele>
        <time>2013-09-20T08:19:09Z</time>
      </trkpt>
      <trkpt lat="44.22141" lon="7.10881">
        <ele>2200</ele>
        <time>2013-09-20T08:19:18Z</time>
      </trkpt>
      <trkpt lat="44.22142" lon="7.10887">
        <ele>2201</ele>
        <time>2013-09-20T08:19:29Z</time>
      </trkpt>
      <trkpt lat="44.22144" lon="7.10892">
        <ele>2203</ele>
        <time>2013-09-20T08:19:36Z</time>
      </trkpt>
      <trkpt lat="44.22136" lon="7.10902">
        <ele>2204</ele>
        <time>2013-09-20T08:19:47Z</time>
      </trkpt>
      <trkpt lat="44.22131" lon="7.10895">
        <ele>2205</ele>
        <time>2013-09-20T08:19:52Z</time>
      </trkpt>
      <trkpt lat="44.22128" lon="7.10883">
        <ele>2206</ele>
        <time>2013-09-20T08:19:59Z</time>
      </trkpt>
      <trkpt lat="44.2213" lon="7.10862">
        <ele>2208</ele>
        <time>2013-09-20T08:20:10Z</time>
      </trkpt>
      <trkpt lat="44.22134" lon="7.10846">
        <ele>2209</ele>
        <time>2013-09-20T08:20:18Z</time>
      </trkpt>
      <trkpt lat="44.2214" lon="7.10815">
        <ele>2211</ele>
        <time>2013-09-20T08:20:33Z</time>
      </trkpt>
      <trkpt lat="44.22138" lon="7.10805">
        <ele>2212</ele>
        <time>2013-09-20T08:20:38Z</time>
      </trkpt>
      <trkpt lat="44.22129" lon="7.10798">
        <ele>2213</ele>
        <time>2013-09-20T08:20:45Z</time>
      </trkpt>
      <trkpt lat="44.22118" lon="7.10774">
        <ele>2215</ele>
        <time>2013-09-20T08:20:59Z</time>
      </trkpt>
      <trkpt lat="44.22107" lon="7.10748">
        <ele>2218</ele>
        <time>2013-09-20T08:21:15Z</time>
      </trkpt>
      <trkpt lat="44.22112" lon="7.10737">
        <ele>2219</ele>
        <time>2013-09-20T08:21:22Z</time>
      </trkpt>
      <trkpt lat="44.22123" lon="7.10729">
        <ele>2221</ele>
        <time>2013-09-20T08:21:32Z</time>
      </trkpt>
      <trkpt lat="44.22125" lon="7.1072">
        <ele>2222</ele>
        <time>2013-09-20T08:21:38Z</time>
      </trkpt>
      <trkpt lat="44.22113" lon="7.10714">
        <ele>2224</ele>
        <time>2013-09-20T08:21:49Z</time>
      </trkpt>
      <trkpt lat="44.22104" lon="7.10714">
        <ele>2225</ele>
        <time>2013-09-20T08:21:55Z</time>
      </trkpt>
      <trkpt lat="44.22081" lon="7.10715">
        <ele>2227</ele>
        <time>2013-09-20T08:22:11Z</time>
      </trkpt>
      <trkpt lat="44.22063" lon="7.10711">
        <ele>2229</ele>
        <time>2013-09-20T08:22:24Z</time>
      </trkpt>
      <trkpt lat="44.22046" lon="7.10705">
        <ele>2231</ele>
        <time>2013-09-20T08:22:37Z</time>
      </trkpt>
      <trkpt lat="44.22025" lon="7.10693">
        <ele>2234</ele>
        <time>2013-09-20T08:22:54Z</time>
      </trkpt>
      <trkpt lat="44.22009" lon="7.10681">
        <ele>2236</ele>
        <time>2013-09-20T08:23:09Z</time>
      </trkpt>
      <trkpt lat="44.21997" lon="7.10671">
        <ele>2238</ele>
        <time>2013-09-20T08:23:20Z</time>
      </trkpt>
      <trkpt lat="44.21993" lon="7.1067">
        <ele>2239</ele>
        <time>2013-09-20T08:23:24Z</time>
      </trkpt>
      <trkpt lat="44.2199" lon="7.10665">
        <ele>2241</ele>
        <time>2013-09-20T08:23:36Z</time>
      </trkpt>
      <trkpt lat="44.21983" lon="7.1064">
        <ele>2243</ele>
        <time>2013-09-20T08:23:50Z</time>
      </trkpt>
      <trkpt lat="44.2199" lon="7.10614">
        <ele>2245</ele>
        <time>2013-09-20T08:24:06Z</time>
      </trkpt>
      <trkpt lat="44.22002" lon="7.10592">
        <ele>2247</ele>
        <time>2013-09-20T08:24:21Z</time>
      </trkpt>
      <trkpt lat="44.22018" lon="7.10572">
        <ele>2250</ele>
        <time>2013-09-20T08:24:37Z</time>
      </trkpt>
      <trkpt lat="44.22038" lon="7.10558">
        <ele>2253</ele>
        <time>2013-09-20T08:24:54Z</time>
      </trkpt>
      <trkpt lat="44.22045" lon="7.10547">
        <ele>2254</ele>
        <time>2013-09-20T08:25:02Z</time>
      </trkpt>
      <trkpt lat="44.22034" lon="7.10545">
        <ele>2255</ele>
        <time>2013-09-20T08:25:11Z</time>
      </trkpt>
      <trkpt lat="44.22025" lon="7.10548">
        <ele>2257</ele>
        <time>2013-09-20T08:25:19Z</time>
      </trkpt>
      <trkpt lat="44.22021" lon="7.10548">
        <ele>2258</ele>
        <time>2013-09-20T08:25:23Z</time>
      </trkpt>
      <trkpt lat="44.22018" lon="7.10552">
        <ele>2259</ele>
        <time>2013-09-20T08:25:32Z</time>
      </trkpt>
      <trkpt lat="44.22013" lon="7.10549">
        <ele>2260</ele>
        <time>2013-09-20T08:25:39Z</time>
      </trkpt>
      <trkpt lat="44.22012" lon="7.10545">
        <ele>2262</ele>
        <time>2013-09-20T08:25:46Z</time>
      </trkpt>
      <trkpt lat="44.22015" lon="7.10539">
        <ele>2262</ele>
        <time>2013-09-20T08:25:50Z</time>
      </trkpt>
      <trkpt lat="44.22032" lon="7.10533">
        <ele>2264</ele>
        <time>2013-09-20T08:26:01Z</time>
      </trkpt>
      <trkpt lat="44.22036" lon="7.10524">
        <ele>2265</ele>
        <time>2013-09-20T08:26:07Z</time>
      </trkpt>
      <trkpt lat="44.22028" lon="7.10525">
        <ele>2266</ele>
        <time>2013-09-20T08:26:14Z</time>
      </trkpt>
      <trkpt lat="44.22011" lon="7.10531">
        <ele>2268</ele>
        <time>2013-09-20T08:26:27Z</time>
      </trkpt>
      <trkpt lat="44.21989" lon="7.10536">
        <ele>2271</ele>
        <time>2013-09-20T08:26:43Z</time>
      </trkpt>
      <trkpt lat="44.21968" lon="7.10549">
        <ele>2273</ele>
        <time>2013-09-20T08:26:59Z</time>
      </trkpt>
      <trkpt lat="44.21955" lon="7.10561">
        <ele>2275</ele>
        <time>2013-09-20T08:27:10Z</time>
      </trkpt>
      <trkpt lat="44.21952" lon="7.10548">
        <ele>2276</ele>
        <time>2013-09-20T08:27:18Z</time>
      </trkpt>
      <trkpt lat="44.21961" lon="7.10543">
        <ele>2277</ele>
        <time>2013-09-20T08:27:24Z</time>
      </trkpt>
      <trkpt lat="44.21975" lon="7.10525">
        <ele>2279</ele>
        <time>2013-09-20T08:27:37Z</time>
      </trkpt>
      <trkpt lat="44.21984" lon="7.10512">
        <ele>2281</ele>
        <time>2013-09-20T08:27:46Z</time>
      </trkpt>
      <trkpt lat="44.21998" lon="7.10499">
        <ele>2283</ele>
        <time>2013-09-20T08:27:58Z</time>
      </trkpt>
      <trkpt lat="44.21993" lon="7.10494">
        <ele>2284</ele>
        <time>2013-09-20T08:28:03Z</time>
      </trkpt>
      <trkpt lat="44.21985" lon="7.10502">
        <ele>2285</ele>
        <time>2013-09-20T08:28:09Z</time>
      </trkpt>
      <trkpt lat="44.2196" lon="7.10519">
        <ele>2287</ele>
        <time>2013-09-20T08:28:25Z</time>
      </trkpt>
      <trkpt lat="44.21943" lon="7.10535">
        <ele>2289</ele>
        <time>2013-09-20T08:28:38Z</time>
      </trkpt>
      <trkpt lat="44.21939" lon="7.10533">
        <ele>2289</ele>
        <time>2013-09-20T08:28:40Z</time>
      </trkpt>
      <trkpt lat="44.21944" lon="7.10521">
        <ele>2290</ele>
        <time>2013-09-20T08:28:47Z</time>
      </trkpt>
      <trkpt lat="44.21967" lon="7.10497">
        <ele>2292</ele>
        <time>2013-09-20T08:29:03Z</time>
      </trkpt>
      <trkpt lat="44.2198" lon="7.1048">
        <ele>2293</ele>
        <time>2013-09-20T08:29:13Z</time>
      </trkpt>
      <trkpt lat="44.21979" lon="7.10471">
        <ele>2294</ele>
        <time>2013-09-20T08:29:18Z</time>
      </trkpt>
      <trkpt lat="44.21964" lon="7.1047">
        <ele>2295</ele>
        <time>2013-09-20T08:29:29Z</time>
      </trkpt>
      <trkpt lat="44.21943" lon="7.10472">
        <ele>2298</ele>
        <time>2013-09-20T08:29:46Z</time>
      </trkpt>
      <trkpt lat="44.21929" lon="7.10468">
        <ele>2300</ele>
        <time>2013-09-20T08:29:57Z</time>
      </trkpt>
      <trkpt lat="44.21929" lon="7.1045">
        <ele>2302</ele>
        <time>2013-09-20T08:30:08Z</time>
      </trkpt>
      <trkpt lat="44.21934" lon="7.10442">
        <ele>2304</ele>
        <time>2013-09-20T08:30:21Z</time>
      </trkpt>
      <trkpt lat="44.21929" lon="7.10439">
        <ele>2306</ele>
        <time>2013-09-20T08:30:32Z</time>
      </trkpt>
      <trkpt lat="44.21926" lon="7.10433">
        <ele>2309</ele>
        <time>2013-09-20T08:31:42Z</time>
      </trkpt>
      <trkpt lat="44.21926" lon="7.10431">
        <ele>2309</ele>
        <time>2013-09-20T08:31:46Z</time>
      </trkpt>
      <trkpt lat="44.21927" lon="7.10436">
        <ele>2310</ele>
        <time>2013-09-20T08:31:54Z</time>
      </trkpt>
      <trkpt lat="44.21935" lon="7.10434">
        <ele>2312</ele>
        <time>2013-09-20T08:34:59Z</time>
      </trkpt>
      <trkpt lat="44.21937" lon="7.10428">
        <ele>2312</ele>
        <time>2013-09-20T08:35:03Z</time>
      </trkpt>
      <trkpt lat="44.21939" lon="7.10416">
        <ele>2313</ele>
        <time>2013-09-20T08:35:10Z</time>
      </trkpt>
      <trkpt lat="44.21951" lon="7.10408">
        <ele>2313</ele>
        <time>2013-09-20T08:35:22Z</time>
      </trkpt>
      <trkpt lat="44.21971" lon="7.10413">
        <ele>2314</ele>
        <time>2013-09-20T08:35:37Z</time>
      </trkpt>
      <trkpt lat="44.21974" lon="7.10415">
        <ele>2315</ele>
        <time>2013-09-20T08:35:42Z</time>
      </trkpt>
      <trkpt lat="44.21987" lon="7.10418">
        <ele>2316</ele>
        <time>2013-09-20T08:35:57Z</time>
      </trkpt>
      <trkpt lat="44.21982" lon="7.10401">
        <ele>2318</ele>
        <time>2013-09-20T08:36:10Z</time>
      </trkpt>
      <trkpt lat="44.2197" lon="7.10385">
        <ele>2320</ele>
        <time>2013-09-20T08:36:24Z</time>
      </trkpt>
      <trkpt lat="44.21972" lon="7.10374">
        <ele>2321</ele>
        <time>2013-09-20T08:36:31Z</time>
      </trkpt>
      <trkpt lat="44.21978" lon="7.10374">
        <ele>2322</ele>
        <time>2013-09-20T08:36:36Z</time>
      </trkpt>
      <trkpt lat="44.21993" lon="7.10383">
        <ele>2324</ele>
        <time>2013-09-20T08:36:50Z</time>
      </trkpt>
      <trkpt lat="44.22009" lon="7.10378">
        <ele>2326</ele>
        <time>2013-09-20T08:37:04Z</time>
      </trkpt>
      <trkpt lat="44.2203" lon="7.10368">
        <ele>2328</ele>
        <time>2013-09-20T08:37:19Z</time>
      </trkpt>
      <trkpt lat="44.22049" lon="7.10384">
        <ele>2330</ele>
        <time>2013-09-20T08:37:33Z</time>
      </trkpt>
      <trkpt lat="44.22079" lon="7.10384">
        <ele>2332</ele>
        <time>2013-09-20T08:37:47Z</time>
      </trkpt>
      <trkpt lat="44.22086" lon="7.10376">
        <ele>2332</ele>
        <time>2013-09-20T08:37:52Z</time>
      </trkpt>
      <trkpt lat="44.22081" lon="7.10358">
        <ele>2333</ele>
        <time>2013-09-20T08:37:58Z</time>
      </trkpt>
      <trkpt lat="44.22097" lon="7.10324">
        <ele>2335</ele>
        <time>2013-09-20T08:38:11Z</time>
      </trkpt>
      <trkpt lat="44.22115" lon="7.10289">
        <ele>2337</ele>
        <time>2013-09-20T08:38:27Z</time>
      </trkpt>
      <trkpt lat="44.22114" lon="7.10255">
        <ele>2338</ele>
        <time>2013-09-20T08:38:38Z</time>
      </trkpt>
      <trkpt lat="44.22112" lon="7.10228">
        <ele>2338</ele>
        <time>2013-09-20T08:38:44Z</time>
      </trkpt>
      <trkpt lat="44.22132" lon="7.10206">
        <ele>2339</ele>
        <time>2013-09-20T08:38:58Z</time>
      </trkpt>
      <trkpt lat="44.22144" lon="7.10166">
        <ele>2341</ele>
        <time>2013-09-20T08:39:15Z</time>
      </trkpt>
      <trkpt lat="44.22155" lon="7.10137">
        <ele>2343</ele>
        <time>2013-09-20T08:39:27Z</time>
      </trkpt>
      <trkpt lat="44.22174" lon="7.10112">
        <ele>2345</ele>
        <time>2013-09-20T08:39:42Z</time>
      </trkpt>
      <trkpt lat="44.22191" lon="7.10098">
        <ele>2346</ele>
        <time>2013-09-20T08:39:56Z</time>
      </trkpt>
      <trkpt lat="44.22216" lon="7.10094">
        <ele>2348</ele>
        <time>2013-09-20T08:40:14Z</time>
      </trkpt>
      <trkpt lat="44.22235" lon="7.10098">
        <ele>2349</ele>
        <time>2013-09-20T08:40:27Z</time>
      </trkpt>
      <trkpt lat="44.22246" lon="7.10103">
        <ele>2351</ele>
        <time>2013-09-20T08:40:34Z</time>
      </trkpt>
      <trkpt lat="44.22249" lon="7.10097">
        <ele>2351</ele>
        <time>2013-09-20T08:40:39Z</time>
      </trkpt>
      <trkpt lat="44.22244" lon="7.10091">
        <ele>2352</ele>
        <time>2013-09-20T08:40:45Z</time>
      </trkpt>
      <trkpt lat="44.22227" lon="7.10084">
        <ele>2355</ele>
        <time>2013-09-20T08:40:59Z</time>
      </trkpt>
      <trkpt lat="44.2221" lon="7.10081">
        <ele>2358</ele>
        <time>2013-09-20T08:41:14Z</time>
      </trkpt>
      <trkpt lat="44.22209" lon="7.10081">
        <ele>2359</ele>
        <time>2013-09-20T08:41:18Z</time>
      </trkpt>
      <trkpt lat="44.22198" lon="7.10078">
        <ele>2362</ele>
        <time>2013-09-20T08:41:34Z</time>
      </trkpt>
      <trkpt lat="44.22192" lon="7.10076">
        <ele>2363</ele>
        <time>2013-09-20T08:41:42Z</time>
      </trkpt>
      <trkpt lat="44.22196" lon="7.10068">
        <ele>2365</ele>
        <time>2013-09-20T08:41:54Z</time>
      </trkpt>
      <trkpt lat="44.22212" lon="7.10068">
        <ele>2367</ele>
        <time>2013-09-20T08:42:11Z</time>
      </trkpt>
      <trkpt lat="44.22226" lon="7.10059">
        <ele>2369</ele>
        <time>2013-09-20T08:42:29Z</time>
      </trkpt>
      <trkpt lat="44.2222" lon="7.10046">
        <ele>2371</ele>
        <time>2013-09-20T08:42:44Z</time>
      </trkpt>
      <trkpt lat="44.22209" lon="7.10025">
        <ele>2371</ele>
        <time>2013-09-20T08:42:54Z</time>
      </trkpt>
      <trkpt lat="44.22191" lon="7.1">
        <ele>2371</ele>
        <time>2013-09-20T08:43:03Z</time>
      </trkpt>
      <trkpt lat="44.22162" lon="7.09976">
        <ele>2371</ele>
        <time>2013-09-20T08:43:12Z</time>
      </trkpt>
      <trkpt lat="44.22142" lon="7.09959">
        <ele>2371</ele>
        <time>2013-09-20T08:43:17Z</time>
      </trkpt>
      <trkpt lat="44.22132" lon="7.09939">
        <ele>2371</ele>
        <time>2013-09-20T08:43:21Z</time>
      </trkpt>
      <trkpt lat="44.22111" lon="7.09911">
        <ele>2371</ele>
        <time>2013-09-20T08:43:26Z</time>
      </trkpt>
      <trkpt lat="44.22105" lon="7.09866">
        <ele>2370</ele>
        <time>2013-09-20T08:43:32Z</time>
      </trkpt>
      <trkpt lat="44.2211" lon="7.09843">
        <ele>2370</ele>
        <time>2013-09-20T08:43:36Z</time>
      </trkpt>
      <trkpt lat="44.22114" lon="7.09828">
        <ele>2370</ele>
        <time>2013-09-20T08:43:40Z</time>
      </trkpt>
      <trkpt lat="44.22121" lon="7.09792">
        <ele>2369</ele>
        <time>2013-09-20T08:43:48Z</time>
      </trkpt>
      <trkpt lat="44.22134" lon="7.09768">
        <ele>2368</ele>
        <time>2013-09-20T08:43:59Z</time>
      </trkpt>
      <trkpt lat="44.22141" lon="7.0976">
        <ele>2368</ele>
        <time>2013-09-20T08:44:04Z</time>
      </trkpt>
      <trkpt lat="44.22146" lon="7.09738">
        <ele>2367</ele>
        <time>2013-09-20T08:44:15Z</time>
      </trkpt>
      <trkpt lat="44.22152" lon="7.09715">
        <ele>2366</ele>
        <time>2013-09-20T08:44:26Z</time>
      </trkpt>
      <trkpt lat="44.22169" lon="7.09703">
        <ele>2366</ele>
        <time>2013-09-20T08:44:40Z</time>
      </trkpt>
      <trkpt lat="44.22175" lon="7.09691">
        <ele>2365</ele>
        <time>2013-09-20T08:44:51Z</time>
      </trkpt>
      <trkpt lat="44.22178" lon="7.09688">
        <ele>2365</ele>
        <time>2013-09-20T08:45:15Z</time>
      </trkpt>
      <trkpt lat="44.2218" lon="7.09679">
        <ele>2365</ele>
        <time>2013-09-20T08:45:26Z</time>
      </trkpt>
      <trkpt lat="44.22184" lon="7.09665">
        <ele>2365</ele>
        <time>2013-09-20T08:45:38Z</time>
      </trkpt>
      <trkpt lat="44.22187" lon="7.09656">
        <ele>2365</ele>
        <time>2013-09-20T08:45:46Z</time>
      </trkpt>
      <trkpt lat="44.22189" lon="7.09648">
        <ele>2364</ele>
        <time>2013-09-20T08:45:53Z</time>
      </trkpt>
      <trkpt lat="44.22189" lon="7.0963">
        <ele>2365</ele>
        <time>2013-09-20T08:46:05Z</time>
      </trkpt>
      <trkpt lat="44.22191" lon="7.09616">
        <ele>2365</ele>
        <time>2013-09-20T08:46:16Z</time>
      </trkpt>
      <trkpt lat="44.22192" lon="7.09609">
        <ele>2365</ele>
        <time>2013-09-20T08:46:22Z</time>
      </trkpt>
      <trkpt lat="44.22195" lon="7.09598">
        <ele>2366</ele>
        <time>2013-09-20T08:46:33Z</time>
      </trkpt>
      <trkpt lat="44.22198" lon="7.09586">
        <ele>2367</ele>
        <time>2013-09-20T08:46:40Z</time>
      </trkpt>
      <trkpt lat="44.22202" lon="7.09558">
        <ele>2368</ele>
        <time>2013-09-20T08:46:55Z</time>
      </trkpt>
      <trkpt lat="44.22213" lon="7.09548">
        <ele>2369</ele>
        <time>2013-09-20T08:47:04Z</time>
      </trkpt>
      <trkpt lat="44.22224" lon="7.09542">
        <ele>2370</ele>
        <time>2013-09-20T08:47:12Z</time>
      </trkpt>
      <trkpt lat="44.22231" lon="7.09537">
        <ele>2370</ele>
        <time>2013-09-20T08:47:18Z</time>
      </trkpt>
      <trkpt lat="44.22238" lon="7.0953">
        <ele>2371</ele>
        <time>2013-09-20T08:47:24Z</time>
      </trkpt>
      <trkpt lat="44.22241" lon="7.09525">
        <ele>2372</ele>
        <time>2013-09-20T08:47:34Z</time>
      </trkpt>
      <trkpt lat="44.22253" lon="7.09512">
        <ele>2373</ele>
        <time>2013-09-20T08:47:51Z</time>
      </trkpt>
      <trkpt lat="44.22268" lon="7.09511">
        <ele>2375</ele>
        <time>2013-09-20T08:48:07Z</time>
      </trkpt>
      <trkpt lat="44.22282" lon="7.09511">
        <ele>2377</ele>
        <time>2013-09-20T08:48:21Z</time>
      </trkpt>
      <trkpt lat="44.22299" lon="7.09503">
        <ele>2378</ele>
        <time>2013-09-20T08:48:33Z</time>
      </trkpt>
      <trkpt lat="44.22314" lon="7.09504">
        <ele>2379</ele>
        <time>2013-09-20T08:48:44Z</time>
      </trkpt>
      <trkpt lat="44.22326" lon="7.09504">
        <ele>2381</ele>
        <time>2013-09-20T08:49:00Z</time>
      </trkpt>
      <trkpt lat="44.22337" lon="7.09506">
        <ele>2382</ele>
        <time>2013-09-20T08:49:14Z</time>
      </trkpt>
      <trkpt lat="44.22351" lon="7.0951">
        <ele>2385</ele>
        <time>2013-09-20T08:49:30Z</time>
      </trkpt>
      <trkpt lat="44.2237" lon="7.09506">
        <ele>2387</ele>
        <time>2013-09-20T08:49:43Z</time>
      </trkpt>
      <trkpt lat="44.22379" lon="7.09498">
        <ele>2389</ele>
        <time>2013-09-20T08:49:53Z</time>
      </trkpt>
      <trkpt lat="44.22375" lon="7.0949">
        <ele>2389</ele>
        <time>2013-09-20T08:49:59Z</time>
      </trkpt>
      <trkpt lat="44.22358" lon="7.09479">
        <ele>2390</ele>
        <time>2013-09-20T08:50:05Z</time>
      </trkpt>
      <trkpt lat="44.22328" lon="7.09463">
        <ele>2390</ele>
        <time>2013-09-20T08:50:16Z</time>
      </trkpt>
      <trkpt lat="44.2229" lon="7.09442">
        <ele>2390</ele>
        <time>2013-09-20T08:50:25Z</time>
      </trkpt>
      <trkpt lat="44.22272" lon="7.09436">
        <ele>2390</ele>
        <time>2013-09-20T08:50:31Z</time>
      </trkpt>
      <trkpt lat="44.22257" lon="7.09421">
        <ele>2390</ele>
        <time>2013-09-20T08:50:37Z</time>
      </trkpt>
      <trkpt lat="44.22236" lon="7.09409">
        <ele>2391</ele>
        <time>2013-09-20T08:50:47Z</time>
      </trkpt>
      <trkpt lat="44.22226" lon="7.09384">
        <ele>2391</ele>
        <time>2013-09-20T08:50:57Z</time>
      </trkpt>
      <trkpt lat="44.22223" lon="7.09371">
        <ele>2392</ele>
        <time>2013-09-20T08:51:02Z</time>
      </trkpt>
      <trkpt lat="44.22221" lon="7.09369">
        <ele>2392</ele>
        <time>2013-09-20T08:51:06Z</time>
      </trkpt>
      <trkpt lat="44.22217" lon="7.09364">
        <ele>2393</ele>
        <time>2013-09-20T08:51:11Z</time>
      </trkpt>
      <trkpt lat="44.22206" lon="7.09356">
        <ele>2394</ele>
        <time>2013-09-20T08:51:23Z</time>
      </trkpt>
      <trkpt lat="44.22198" lon="7.09338">
        <ele>2395</ele>
        <time>2013-09-20T08:51:34Z</time>
      </trkpt>
      <trkpt lat="44.2219" lon="7.09315">
        <ele>2396</ele>
        <time>2013-09-20T08:51:48Z</time>
      </trkpt>
      <trkpt lat="44.22183" lon="7.09291">
        <ele>2398</ele>
        <time>2013-09-20T08:52:02Z</time>
      </trkpt>
      <trkpt lat="44.22182" lon="7.09281">
        <ele>2400</ele>
        <time>2013-09-20T08:52:17Z</time>
      </trkpt>
      <trkpt lat="44.22181" lon="7.09273">
        <ele>2401</ele>
        <time>2013-09-20T08:52:28Z</time>
      </trkpt>
      <trkpt lat="44.22179" lon="7.09263">
        <ele>2402</ele>
        <time>2013-09-20T08:52:39Z</time>
      </trkpt>
      <trkpt lat="44.22178" lon="7.09253">
        <ele>2404</ele>
        <time>2013-09-20T08:52:52Z</time>
      </trkpt>
      <trkpt lat="44.22177" lon="7.09248">
        <ele>2404</ele>
        <time>2013-09-20T08:52:57Z</time>
      </trkpt>
      <trkpt lat="44.22173" lon="7.09231">
        <ele>2406</ele>
        <time>2013-09-20T08:53:12Z</time>
      </trkpt>
      <trkpt lat="44.22171" lon="7.09224">
        <ele>2407</ele>
        <time>2013-09-20T08:53:19Z</time>
      </trkpt>
      <trkpt lat="44.22169" lon="7.09206">
        <ele>2408</ele>
        <time>2013-09-20T08:53:35Z</time>
      </trkpt>
      <trkpt lat="44.22167" lon="7.09193">
        <ele>2410</ele>
        <time>2013-09-20T08:53:47Z</time>
      </trkpt>
      <trkpt lat="44.22165" lon="7.09187">
        <ele>2410</ele>
        <time>2013-09-20T08:53:54Z</time>
      </trkpt>
      <trkpt lat="44.22164" lon="7.09174">
        <ele>2412</ele>
        <time>2013-09-20T08:54:07Z</time>
      </trkpt>
      <trkpt lat="44.22162" lon="7.09163">
        <ele>2413</ele>
        <time>2013-09-20T08:54:17Z</time>
      </trkpt>
      <trkpt lat="44.22161" lon="7.09153">
        <ele>2414</ele>
        <time>2013-09-20T08:54:25Z</time>
      </trkpt>
      <trkpt lat="44.22169" lon="7.09132">
        <ele>2416</ele>
        <time>2013-09-20T08:54:42Z</time>
      </trkpt>
      <trkpt lat="44.22182" lon="7.09116">
        <ele>2418</ele>
        <time>2013-09-20T08:54:58Z</time>
      </trkpt>
      <trkpt lat="44.22192" lon="7.09112">
        <ele>2420</ele>
        <time>2013-09-20T08:55:10Z</time>
      </trkpt>
      <trkpt lat="44.22188" lon="7.09109">
        <ele>2421</ele>
        <time>2013-09-20T08:55:18Z</time>
      </trkpt>
      <trkpt lat="44.22179" lon="7.09102">
        <ele>2424</ele>
        <time>2013-09-20T08:55:34Z</time>
      </trkpt>
      <trkpt lat="44.22172" lon="7.09097">
        <ele>2427</ele>
        <time>2013-09-20T08:55:49Z</time>
      </trkpt>
      <trkpt lat="44.22172" lon="7.09092">
        <ele>2430</ele>
        <time>2013-09-20T08:56:02Z</time>
      </trkpt>
      <trkpt lat="44.22178" lon="7.09097">
        <ele>2431</ele>
        <time>2013-09-20T08:56:16Z</time>
      </trkpt>
      <trkpt lat="44.22279" lon="7.08819">
        <ele>2415</ele>
        <time>2013-09-20T09:10:07Z</time>
      </trkpt>
      <trkpt lat="44.22288" lon="7.08789">
        <ele>2412</ele>
        <time>2013-09-20T09:11:09Z</time>
      </trkpt>
      <trkpt lat="44.22294" lon="7.08768">
        <ele>2412</ele>
        <time>2013-09-20T09:11:15Z</time>
      </trkpt>
      <trkpt lat="44.22301" lon="7.0876">
        <ele>2412</ele>
        <time>2013-09-20T09:11:24Z</time>
      </trkpt>
      <trkpt lat="44.22305" lon="7.08752">
        <ele>2412</ele>
        <time>2013-09-20T09:11:29Z</time>
      </trkpt>
      <trkpt lat="44.22315" lon="7.08744">
        <ele>2411</ele>
        <time>2013-09-20T09:11:33Z</time>
      </trkpt>
      <trkpt lat="44.22326" lon="7.08748">
        <ele>2411</ele>
        <time>2013-09-20T09:11:36Z</time>
      </trkpt>
      <trkpt lat="44.22337" lon="7.08746">
        <ele>2411</ele>
        <time>2013-09-20T09:11:40Z</time>
      </trkpt>
      <trkpt lat="44.22363" lon="7.0873">
        <ele>2410</ele>
        <time>2013-09-20T09:11:49Z</time>
      </trkpt>
      <trkpt lat="44.22385" lon="7.08718">
        <ele>2409</ele>
        <time>2013-09-20T09:11:59Z</time>
      </trkpt>
      <trkpt lat="44.22399" lon="7.08709">
        <ele>2406</ele>
        <time>2013-09-20T09:12:21Z</time>
      </trkpt>
      <trkpt lat="44.22404" lon="7.08701">
        <ele>2406</ele>
        <time>2013-09-20T09:12:25Z</time>
      </trkpt>
      <trkpt lat="44.2242" lon="7.08684">
        <ele>2406</ele>
        <time>2013-09-20T09:12:32Z</time>
      </trkpt>
      <trkpt lat="44.22434" lon="7.08668">
        <ele>2405</ele>
        <time>2013-09-20T09:12:36Z</time>
      </trkpt>
      <trkpt lat="44.22448" lon="7.08653">
        <ele>2405</ele>
        <time>2013-09-20T09:12:43Z</time>
      </trkpt>
      <trkpt lat="44.2245" lon="7.08647">
        <ele>2404</ele>
        <time>2013-09-20T09:12:49Z</time>
      </trkpt>
      <trkpt lat="44.22453" lon="7.08644">
        <ele>2404</ele>
        <time>2013-09-20T09:12:54Z</time>
      </trkpt>
      <trkpt lat="44.22471" lon="7.08645">
        <ele>2405</ele>
        <time>2013-09-20T09:13:08Z</time>
      </trkpt>
      <trkpt lat="44.22435" lon="7.0864">
        <ele>2399</ele>
        <time>2013-09-20T09:13:49Z</time>
      </trkpt>
      <trkpt lat="44.22433" lon="7.08634">
        <ele>2398</ele>
        <time>2013-09-20T09:13:55Z</time>
      </trkpt>
      <trkpt lat="44.22433" lon="7.0863">
        <ele>2397</ele>
        <time>2013-09-20T09:13:58Z</time>
      </trkpt>
      <trkpt lat="44.22434" lon="7.08631">
        <ele>2395</ele>
        <time>2013-09-20T09:14:11Z</time>
      </trkpt>
      <trkpt lat="44.2244" lon="7.08628">
        <ele>2393</ele>
        <time>2013-09-20T09:14:22Z</time>
      </trkpt>
      <trkpt lat="44.22443" lon="7.08625">
        <ele>2391</ele>
        <time>2013-09-20T09:14:30Z</time>
      </trkpt>
      <trkpt lat="44.22447" lon="7.08615">
        <ele>2389</ele>
        <time>2013-09-20T09:14:40Z</time>
      </trkpt>
      <trkpt lat="44.22452" lon="7.08613">
        <ele>2388</ele>
        <time>2013-09-20T09:14:47Z</time>
      </trkpt>
      <trkpt lat="44.22456" lon="7.08607">
        <ele>2387</ele>
        <time>2013-09-20T09:14:56Z</time>
      </trkpt>
      <trkpt lat="44.22472" lon="7.08597">
        <ele>2385</ele>
        <time>2013-09-20T09:15:10Z</time>
      </trkpt>
      <trkpt lat="44.22493" lon="7.08595">
        <ele>2383</ele>
        <time>2013-09-20T09:15:21Z</time>
      </trkpt>
      <trkpt lat="44.22516" lon="7.08585">
        <ele>2382</ele>
        <time>2013-09-20T09:15:31Z</time>
      </trkpt>
      <trkpt lat="44.22546" lon="7.0857">
        <ele>2381</ele>
        <time>2013-09-20T09:15:41Z</time>
      </trkpt>
      <trkpt lat="44.22567" lon="7.0857">
        <ele>2380</ele>
        <time>2013-09-20T09:15:52Z</time>
      </trkpt>
      <trkpt lat="44.22573" lon="7.08569">
        <ele>2378</ele>
        <time>2013-09-20T09:16:07Z</time>
      </trkpt>
      <trkpt lat="44.22577" lon="7.08556">
        <ele>2377</ele>
        <time>2013-09-20T09:16:21Z</time>
      </trkpt>
      <trkpt lat="44.2258" lon="7.08556">
        <ele>2377</ele>
        <time>2013-09-20T09:16:33Z</time>
      </trkpt>
      <trkpt lat="44.22588" lon="7.08555">
        <ele>2376</ele>
        <time>2013-09-20T09:16:46Z</time>
      </trkpt>
      <trkpt lat="44.22595" lon="7.08556">
        <ele>2376</ele>
        <time>2013-09-20T09:16:55Z</time>
      </trkpt>
      <trkpt lat="44.22599" lon="7.08562">
        <ele>2376</ele>
        <time>2013-09-20T09:17:11Z</time>
      </trkpt>
      <trkpt lat="44.22604" lon="7.08569">
        <ele>2376</ele>
        <time>2013-09-20T09:17:24Z</time>
      </trkpt>
      <trkpt lat="44.22608" lon="7.0857">
        <ele>2376</ele>
        <time>2013-09-20T09:17:36Z</time>
      </trkpt>
      <trkpt lat="44.22614" lon="7.08567">
        <ele>2377</ele>
        <time>2013-09-20T09:17:49Z</time>
      </trkpt>
      <trkpt lat="44.2262" lon="7.0857">
        <ele>2377</ele>
        <time>2013-09-20T09:18:00Z</time>
      </trkpt>
      <trkpt lat="44.22625" lon="7.08567">
        <ele>2379</ele>
        <time>2013-09-20T09:18:14Z</time>
      </trkpt>
      <trkpt lat="44.22625" lon="7.08552">
        <ele>2381</ele>
        <time>2013-09-20T09:18:31Z</time>
      </trkpt>
      <trkpt lat="44.22631" lon="7.08556">
        <ele>2382</ele>
        <time>2013-09-20T09:18:43Z</time>
      </trkpt>
      <trkpt lat="44.22638" lon="7.08564">
        <ele>2384</ele>
        <time>2013-09-20T09:18:57Z</time>
      </trkpt>
      <trkpt lat="44.22643" lon="7.0856">
        <ele>2385</ele>
        <time>2013-09-20T09:19:09Z</time>
      </trkpt>
      <trkpt lat="44.22646" lon="7.08548">
        <ele>2387</ele>
        <time>2013-09-20T09:19:26Z</time>
      </trkpt>
      <trkpt lat="44.2265" lon="7.08543">
        <ele>2390</ele>
        <time>2013-09-20T09:19:40Z</time>
      </trkpt>
      <trkpt lat="44.22652" lon="7.08536">
        <ele>2392</ele>
        <time>2013-09-20T09:19:53Z</time>
      </trkpt>
      <trkpt lat="44.22653" lon="7.08529">
        <ele>2393</ele>
        <time>2013-09-20T09:20:04Z</time>
      </trkpt>
      <trkpt lat="44.22654" lon="7.08518">
        <ele>2395</ele>
        <time>2013-09-20T09:20:18Z</time>
      </trkpt>
      <trkpt lat="44.22657" lon="7.08507">
        <ele>2398</ele>
        <time>2013-09-20T09:20:34Z</time>
      </trkpt>
      <trkpt lat="44.22661" lon="7.08501">
        <ele>2400</ele>
        <time>2013-09-20T09:20:48Z</time>
      </trkpt>
      <trkpt lat="44.22667" lon="7.08496">
        <ele>2401</ele>
        <time>2013-09-20T09:20:58Z</time>
      </trkpt>
      <trkpt lat="44.22675" lon="7.08492">
        <ele>2403</ele>
        <time>2013-09-20T09:21:12Z</time>
      </trkpt>
      <trkpt lat="44.22679" lon="7.08483">
        <ele>2405</ele>
        <time>2013-09-20T09:21:24Z</time>
      </trkpt>
      <trkpt lat="44.22683" lon="7.08476">
        <ele>2406</ele>
        <time>2013-09-20T09:21:35Z</time>
      </trkpt>
      <trkpt lat="44.22695" lon="7.08461">
        <ele>2407</ele>
        <time>2013-09-20T09:21:43Z</time>
      </trkpt>
      <trkpt lat="44.22706" lon="7.08443">
        <ele>2408</ele>
        <time>2013-09-20T09:21:51Z</time>
      </trkpt>
      <trkpt lat="44.22719" lon="7.08432">
        <ele>2409</ele>
        <time>2013-09-20T09:21:58Z</time>
      </trkpt>
      <trkpt lat="44.22723" lon="7.08429">
        <ele>2409</ele>
        <time>2013-09-20T09:22:03Z</time>
      </trkpt>
      <trkpt lat="44.22727" lon="7.08421">
        <ele>2411</ele>
        <time>2013-09-20T09:22:13Z</time>
      </trkpt>
      <trkpt lat="44.22729" lon="7.08417">
        <ele>2412</ele>
        <time>2013-09-20T09:22:23Z</time>
      </trkpt>
      <trkpt lat="44.22738" lon="7.08407">
        <ele>2415</ele>
        <time>2013-09-20T09:22:39Z</time>
      </trkpt>
      <trkpt lat="44.22747" lon="7.08397">
        <ele>2417</ele>
        <time>2013-09-20T09:22:54Z</time>
      </trkpt>
      <trkpt lat="44.22756" lon="7.08389">
        <ele>2420</ele>
        <time>2013-09-20T09:23:10Z</time>
      </trkpt>
      <trkpt lat="44.22763" lon="7.08383">
        <ele>2422</ele>
        <time>2013-09-20T09:23:21Z</time>
      </trkpt>
      <trkpt lat="44.2277" lon="7.08376">
        <ele>2425</ele>
        <time>2013-09-20T09:23:35Z</time>
      </trkpt>
      <trkpt lat="44.22778" lon="7.08367">
        <ele>2427</ele>
        <time>2013-09-20T09:23:49Z</time>
      </trkpt>
      <trkpt lat="44.2278" lon="7.0836">
        <ele>2429</ele>
        <time>2013-09-20T09:23:59Z</time>
      </trkpt>
      <trkpt lat="44.22788" lon="7.08355">
        <ele>2431</ele>
        <time>2013-09-20T09:24:12Z</time>
      </trkpt>
      <trkpt lat="44.22793" lon="7.08345">
        <ele>2433</ele>
        <time>2013-09-20T09:24:26Z</time>
      </trkpt>
      <trkpt lat="44.22802" lon="7.08337">
        <ele>2436</ele>
        <time>2013-09-20T09:24:41Z</time>
      </trkpt>
      <trkpt lat="44.22816" lon="7.0833">
        <ele>2439</ele>
        <time>2013-09-20T09:25:00Z</time>
      </trkpt>
      <trkpt lat="44.22822" lon="7.08322">
        <ele>2441</ele>
        <time>2013-09-20T09:25:16Z</time>
      </trkpt>
      <trkpt lat="44.22827" lon="7.08318">
        <ele>2443</ele>
        <time>2013-09-20T09:25:28Z</time>
      </trkpt>
      <trkpt lat="44.22828" lon="7.08309">
        <ele>2445</ele>
        <time>2013-09-20T09:25:41Z</time>
      </trkpt>
      <trkpt lat="44.22837" lon="7.0831">
        <ele>2446</ele>
        <time>2013-09-20T09:25:56Z</time>
      </trkpt>
      <trkpt lat="44.22839" lon="7.083">
        <ele>2448</ele>
        <time>2013-09-20T09:26:09Z</time>
      </trkpt>
      <trkpt lat="44.22843" lon="7.08294">
        <ele>2450</ele>
        <time>2013-09-20T09:26:24Z</time>
      </trkpt>
      <trkpt lat="44.22846" lon="7.08285">
        <ele>2452</ele>
        <time>2013-09-20T09:26:37Z</time>
      </trkpt>
      <trkpt lat="44.22849" lon="7.08283">
        <ele>2453</ele>
        <time>2013-09-20T09:26:43Z</time>
      </trkpt>
      <trkpt lat="44.22859" lon="7.08287">
        <ele>2454</ele>
        <time>2013-09-20T09:26:58Z</time>
      </trkpt>
      <trkpt lat="44.22854" lon="7.0827">
        <ele>2456</ele>
        <time>2013-09-20T09:27:12Z</time>
      </trkpt>
      <trkpt lat="44.22856" lon="7.08268">
        <ele>2457</ele>
        <time>2013-09-20T09:27:15Z</time>
      </trkpt>
      <trkpt lat="44.22866" lon="7.08273">
        <ele>2458</ele>
        <time>2013-09-20T09:27:26Z</time>
      </trkpt>
      <trkpt lat="44.22869" lon="7.08271">
        <ele>2459</ele>
        <time>2013-09-20T09:27:32Z</time>
      </trkpt>
      <trkpt lat="44.22867" lon="7.08257">
        <ele>2461</ele>
        <time>2013-09-20T09:27:48Z</time>
      </trkpt>
      <trkpt lat="44.22865" lon="7.08245">
        <ele>2463</ele>
        <time>2013-09-20T09:28:03Z</time>
      </trkpt>
      <trkpt lat="44.22861" lon="7.08244">
        <ele>2469</ele>
        <time>2013-09-20T09:29:08Z</time>
      </trkpt>
      <trkpt lat="44.22861" lon="7.08245">
        <ele>2472</ele>
        <time>2013-09-20T09:30:12Z</time>
      </trkpt>
      <trkpt lat="44.22865" lon="7.08241">
        <ele>2477</ele>
        <time>2013-09-20T09:32:31Z</time>
      </trkpt>
      <trkpt lat="44.22901" lon="7.08215">
        <ele>2477</ele>
        <time>2013-09-20T09:32:41Z</time>
      </trkpt>
      <trkpt lat="44.22923" lon="7.08196">
        <ele>2477</ele>
        <time>2013-09-20T09:32:50Z</time>
      </trkpt>
      <trkpt lat="44.22939" lon="7.08178">
        <ele>2477</ele>
        <time>2013-09-20T09:32:59Z</time>
      </trkpt>
      <trkpt lat="44.22945" lon="7.08168">
        <ele>2477</ele>
        <time>2013-09-20T09:33:14Z</time>
      </trkpt>
      <trkpt lat="44.22952" lon="7.08158">
        <ele>2477</ele>
        <time>2013-09-20T09:33:18Z</time>
      </trkpt>
      <trkpt lat="44.22963" lon="7.08154">
        <ele>2477</ele>
        <time>2013-09-20T09:33:23Z</time>
      </trkpt>
      <trkpt lat="44.22985" lon="7.08138">
        <ele>2477</ele>
        <time>2013-09-20T09:33:33Z</time>
      </trkpt>
      <trkpt lat="44.23009" lon="7.08116">
        <ele>2477</ele>
        <time>2013-09-20T09:33:43Z</time>
      </trkpt>
      <trkpt lat="44.23018" lon="7.08103">
        <ele>2477</ele>
        <time>2013-09-20T09:33:48Z</time>
      </trkpt>
      <trkpt lat="44.23042" lon="7.08072">
        <ele>2477</ele>
        <time>2013-09-20T09:33:58Z</time>
      </trkpt>
      <trkpt lat="44.23042" lon="7.08071">
        <ele>2477</ele>
        <time>2013-09-20T09:34:01Z</time>
      </trkpt>
      <trkpt lat="44.23044" lon="7.08069">
        <ele>2477</ele>
        <time>2013-09-20T09:34:09Z</time>
      </trkpt>
      <trkpt lat="44.23046" lon="7.08068">
        <ele>2476</ele>
        <time>2013-09-20T09:34:22Z</time>
      </trkpt>
      <trkpt lat="44.2305" lon="7.0806">
        <ele>2473</ele>
        <time>2013-09-20T09:35:11Z</time>
      </trkpt>
      <trkpt lat="44.23047" lon="7.08067">
        <ele>2473</ele>
        <time>2013-09-20T09:35:33Z</time>
      </trkpt>
      <trkpt lat="44.23047" lon="7.08068">
        <ele>2471</ele>
        <time>2013-09-20T09:36:08Z</time>
      </trkpt>
      <trkpt lat="44.23049" lon="7.08074">
        <ele>2471</ele>
        <time>2013-09-20T09:36:13Z</time>
      </trkpt>
      <trkpt lat="44.23055" lon="7.08075">
        <ele>2471</ele>
        <time>2013-09-20T09:36:17Z</time>
      </trkpt>
      <trkpt lat="44.23061" lon="7.08095">
        <ele>2470</ele>
        <time>2013-09-20T09:36:23Z</time>
      </trkpt>
      <trkpt lat="44.23081" lon="7.08123">
        <ele>2469</ele>
        <time>2013-09-20T09:36:33Z</time>
      </trkpt>
      <trkpt lat="44.23089" lon="7.08156">
        <ele>2468</ele>
        <time>2013-09-20T09:36:42Z</time>
      </trkpt>
      <trkpt lat="44.23084" lon="7.08172">
        <ele>2467</ele>
        <time>2013-09-20T09:36:46Z</time>
      </trkpt>
      <trkpt lat="44.23083" lon="7.08212">
        <ele>2465</ele>
        <time>2013-09-20T09:36:56Z</time>
      </trkpt>
      <trkpt lat="44.23078" lon="7.08218">
        <ele>2465</ele>
        <time>2013-09-20T09:37:00Z</time>
      </trkpt>
      <trkpt lat="44.23078" lon="7.08248">
        <ele>2463</ele>
        <time>2013-09-20T09:37:09Z</time>
      </trkpt>
      <trkpt lat="44.23086" lon="7.08295">
        <ele>2462</ele>
        <time>2013-09-20T09:37:19Z</time>
      </trkpt>
      <trkpt lat="44.23082" lon="7.08334">
        <ele>2460</ele>
        <time>2013-09-20T09:37:28Z</time>
      </trkpt>
      <trkpt lat="44.23066" lon="7.0837">
        <ele>2459</ele>
        <time>2013-09-20T09:37:37Z</time>
      </trkpt>
      <trkpt lat="44.23057" lon="7.08391">
        <ele>2458</ele>
        <time>2013-09-20T09:37:41Z</time>
      </trkpt>
      <trkpt lat="44.23063" lon="7.08441">
        <ele>2457</ele>
        <time>2013-09-20T09:37:49Z</time>
      </trkpt>
      <trkpt lat="44.23073" lon="7.08462">
        <ele>2456</ele>
        <time>2013-09-20T09:37:54Z</time>
      </trkpt>
      <trkpt lat="44.23077" lon="7.0848">
        <ele>2455</ele>
        <time>2013-09-20T09:37:59Z</time>
      </trkpt>
      <trkpt lat="44.23088" lon="7.08519">
        <ele>2454</ele>
        <time>2013-09-20T09:38:08Z</time>
      </trkpt>
      <trkpt lat="44.23104" lon="7.08557">
        <ele>2452</ele>
        <time>2013-09-20T09:38:18Z</time>
      </trkpt>
      <trkpt lat="44.23106" lon="7.08567">
        <ele>2446</ele>
        <time>2013-09-20T09:38:56Z</time>
      </trkpt>
      <trkpt lat="44.23107" lon="7.08576">
        <ele>2445</ele>
        <time>2013-09-20T09:39:00Z</time>
      </trkpt>
      <trkpt lat="44.23112" lon="7.08613">
        <ele>2443</ele>
        <time>2013-09-20T09:39:10Z</time>
      </trkpt>
      <trkpt lat="44.23124" lon="7.08658">
        <ele>2441</ele>
        <time>2013-09-20T09:39:23Z</time>
      </trkpt>
      <trkpt lat="44.23132" lon="7.08689">
        <ele>2439</ele>
        <time>2013-09-20T09:39:35Z</time>
      </trkpt>
      <trkpt lat="44.23139" lon="7.08732">
        <ele>2438</ele>
        <time>2013-09-20T09:39:47Z</time>
      </trkpt>
      <trkpt lat="44.23149" lon="7.08743">
        <ele>2437</ele>
        <time>2013-09-20T09:39:51Z</time>
      </trkpt>
      <trkpt lat="44.23175" lon="7.08784">
        <ele>2436</ele>
        <time>2013-09-20T09:40:03Z</time>
      </trkpt>
      <trkpt lat="44.23191" lon="7.08831">
        <ele>2434</ele>
        <time>2013-09-20T09:40:15Z</time>
      </trkpt>
      <trkpt lat="44.23214" lon="7.0887">
        <ele>2433</ele>
        <time>2013-09-20T09:40:23Z</time>
      </trkpt>
      <trkpt lat="44.23228" lon="7.08882">
        <ele>2432</ele>
        <time>2013-09-20T09:40:26Z</time>
      </trkpt>
      <trkpt lat="44.23244" lon="7.08905">
        <ele>2431</ele>
        <time>2013-09-20T09:40:34Z</time>
      </trkpt>
      <trkpt lat="44.23299" lon="7.08948">
        <ele>2428</ele>
        <time>2013-09-20T09:40:52Z</time>
      </trkpt>
      <trkpt lat="44.2333" lon="7.08949">
        <ele>2427</ele>
        <time>2013-09-20T09:40:59Z</time>
      </trkpt>
      <trkpt lat="44.23346" lon="7.08949">
        <ele>2427</ele>
        <time>2013-09-20T09:41:04Z</time>
      </trkpt>
      <trkpt lat="44.23369" lon="7.08952">
        <ele>2426</ele>
        <time>2013-09-20T09:41:14Z</time>
      </trkpt>
      <trkpt lat="44.23411" lon="7.08967">
        <ele>2426</ele>
        <time>2013-09-20T09:41:27Z</time>
      </trkpt>
      <trkpt lat="44.23417" lon="7.08984">
        <ele>2425</ele>
        <time>2013-09-20T09:41:33Z</time>
      </trkpt>
      <trkpt lat="44.23412" lon="7.09001">
        <ele>2424</ele>
        <time>2013-09-20T09:41:40Z</time>
      </trkpt>
      <trkpt lat="44.23413" lon="7.08994">
        <ele>2424</ele>
        <time>2013-09-20T09:41:48Z</time>
      </trkpt>
      <trkpt lat="44.23416" lon="7.08986">
        <ele>2422</ele>
        <time>2013-09-20T09:41:57Z</time>
      </trkpt>
      <trkpt lat="44.23415" lon="7.08986">
        <ele>2420</ele>
        <time>2013-09-20T09:42:18Z</time>
      </trkpt>
      <trkpt lat="44.23415" lon="7.08985">
        <ele>2419</ele>
        <time>2013-09-20T09:42:28Z</time>
      </trkpt>
      <trkpt lat="44.23412" lon="7.08992">
        <ele>2417</ele>
        <time>2013-09-20T09:42:47Z</time>
      </trkpt>
      <trkpt lat="44.23409" lon="7.08993">
        <ele>2416</ele>
        <time>2013-09-20T09:42:54Z</time>
      </trkpt>
      <trkpt lat="44.23406" lon="7.09002">
        <ele>2415</ele>
        <time>2013-09-20T09:43:02Z</time>
      </trkpt>
      <trkpt lat="44.23405" lon="7.09007">
        <ele>2415</ele>
        <time>2013-09-20T09:43:06Z</time>
      </trkpt>
      <trkpt lat="44.23406" lon="7.09018">
        <ele>2413</ele>
        <time>2013-09-20T09:43:20Z</time>
      </trkpt>
      <trkpt lat="44.23574" lon="7.09016">
        <ele>2411</ele>
        <time>2013-09-20T09:43:48Z</time>
      </trkpt>
      <trkpt lat="44.23512" lon="7.09062">
        <ele>2410</ele>
        <time>2013-09-20T09:43:54Z</time>
      </trkpt>
      <trkpt lat="44.23473" lon="7.09095">
        <ele>2409</ele>
        <time>2013-09-20T09:44:03Z</time>
      </trkpt>
      <trkpt lat="44.23469" lon="7.09099">
        <ele>2408</ele>
        <time>2013-09-20T09:44:07Z</time>
      </trkpt>
      <trkpt lat="44.2346" lon="7.09111">
        <ele>2398</ele>
        <time>2013-09-20T09:45:44Z</time>
      </trkpt>
      <trkpt lat="44.2346" lon="7.09112">
        <ele>2397</ele>
        <time>2013-09-20T09:46:27Z</time>
      </trkpt>
      <trkpt lat="44.2346" lon="7.0911">
        <ele>2397</ele>
        <time>2013-09-20T09:46:44Z</time>
      </trkpt>
      <trkpt lat="44.23458" lon="7.09113">
        <ele>2397</ele>
        <time>2013-09-20T09:47:16Z</time>
      </trkpt>
      <trkpt lat="44.2346" lon="7.09113">
        <ele>2398</ele>
        <time>2013-09-20T09:47:34Z</time>
      </trkpt>
      <trkpt lat="44.23469" lon="7.09116">
        <ele>2398</ele>
        <time>2013-09-20T09:47:51Z</time>
      </trkpt>
      <trkpt lat="44.23463" lon="7.0911">
        <ele>2398</ele>
        <time>2013-09-20T09:47:55Z</time>
      </trkpt>
      <trkpt lat="44.23462" lon="7.09105">
        <ele>2398</ele>
        <time>2013-09-20T09:47:57Z</time>
      </trkpt>
      <trkpt lat="44.23473" lon="7.09104">
        <ele>2398</ele>
        <time>2013-09-20T09:48:02Z</time>
      </trkpt>
      <trkpt lat="44.2348" lon="7.09103">
        <ele>2398</ele>
        <time>2013-09-20T09:48:07Z</time>
      </trkpt>
      <trkpt lat="44.23483" lon="7.09101">
        <ele>2398</ele>
        <time>2013-09-20T09:48:16Z</time>
      </trkpt>
      <trkpt lat="44.23492" lon="7.09095">
        <ele>2398</ele>
        <time>2013-09-20T09:48:30Z</time>
      </trkpt>
      <trkpt lat="44.2351" lon="7.09084">
        <ele>2398</ele>
        <time>2013-09-20T09:48:39Z</time>
      </trkpt>
      <trkpt lat="44.2352" lon="7.09076">
        <ele>2398</ele>
        <time>2013-09-20T09:48:45Z</time>
      </trkpt>
      <trkpt lat="44.23525" lon="7.09072">
        <ele>2398</ele>
        <time>2013-09-20T09:48:49Z</time>
      </trkpt>
      <trkpt lat="44.23521" lon="7.09064">
        <ele>2398</ele>
        <time>2013-09-20T09:48:57Z</time>
      </trkpt>
      <trkpt lat="44.23531" lon="7.09057">
        <ele>2398</ele>
        <time>2013-09-20T09:49:05Z</time>
      </trkpt>
      <trkpt lat="44.23543" lon="7.09038">
        <ele>2398</ele>
        <time>2013-09-20T09:49:14Z</time>
      </trkpt>
      <trkpt lat="44.23551" lon="7.09036">
        <ele>2398</ele>
        <time>2013-09-20T09:49:19Z</time>
      </trkpt>
      <trkpt lat="44.23555" lon="7.0903">
        <ele>2398</ele>
        <time>2013-09-20T09:49:27Z</time>
      </trkpt>
      <trkpt lat="44.23557" lon="7.09027">
        <ele>2398</ele>
        <time>2013-09-20T09:49:30Z</time>
      </trkpt>
      <trkpt lat="44.23561" lon="7.09026">
        <ele>2398</ele>
        <time>2013-09-20T09:49:32Z</time>
      </trkpt>
      <trkpt lat="44.23565" lon="7.09024">
        <ele>2398</ele>
        <time>2013-09-20T09:49:36Z</time>
      </trkpt>
      <trkpt lat="44.23577" lon="7.09009">
        <ele>2398</ele>
        <time>2013-09-20T09:49:43Z</time>
      </trkpt>
      <trkpt lat="44.23597" lon="7.08988">
        <ele>2398</ele>
        <time>2013-09-20T09:49:55Z</time>
      </trkpt>
      <trkpt lat="44.23603" lon="7.08984">
        <ele>2398</ele>
        <time>2013-09-20T09:49:59Z</time>
      </trkpt>
      <trkpt lat="44.23605" lon="7.08986">
        <ele>2398</ele>
        <time>2013-09-20T09:50:03Z</time>
      </trkpt>
      <trkpt lat="44.23607" lon="7.08988">
        <ele>2398</ele>
        <time>2013-09-20T09:50:06Z</time>
      </trkpt>
      <trkpt lat="44.23606" lon="7.08987">
        <ele>2398</ele>
        <time>2013-09-20T09:50:18Z</time>
      </trkpt>
      <trkpt lat="44.23622" lon="7.08979">
        <ele>2398</ele>
        <time>2013-09-20T09:50:39Z</time>
      </trkpt>
      <trkpt lat="44.23632" lon="7.08971">
        <ele>2398</ele>
        <time>2013-09-20T09:50:48Z</time>
      </trkpt>
      <trkpt lat="44.23621" lon="7.08963">
        <ele>2398</ele>
        <time>2013-09-20T09:50:54Z</time>
      </trkpt>
      <trkpt lat="44.23623" lon="7.0896">
        <ele>2398</ele>
        <time>2013-09-20T09:51:01Z</time>
      </trkpt>
      <trkpt lat="44.23629" lon="7.08958">
        <ele>2398</ele>
        <time>2013-09-20T09:51:05Z</time>
      </trkpt>
      <trkpt lat="44.23645" lon="7.08958">
        <ele>2398</ele>
        <time>2013-09-20T09:51:11Z</time>
      </trkpt>
      <trkpt lat="44.23653" lon="7.08959">
        <ele>2398</ele>
        <time>2013-09-20T09:51:16Z</time>
      </trkpt>
      <trkpt lat="44.23651" lon="7.08956">
        <ele>2398</ele>
        <time>2013-09-20T09:51:20Z</time>
      </trkpt>
      <trkpt lat="44.23652" lon="7.08952">
        <ele>2398</ele>
        <time>2013-09-20T09:51:27Z</time>
      </trkpt>
      <trkpt lat="44.23665" lon="7.0896">
        <ele>2398</ele>
        <time>2013-09-20T09:51:39Z</time>
      </trkpt>
      <trkpt lat="44.23716" lon="7.08961">
        <ele>2398</ele>
        <time>2013-09-20T09:52:22Z</time>
      </trkpt>
      <trkpt lat="44.23716" lon="7.08956">
        <ele>2398</ele>
        <time>2013-09-20T09:52:31Z</time>
      </trkpt>
      <trkpt lat="44.23724" lon="7.08957">
        <ele>2398</ele>
        <time>2013-09-20T09:52:44Z</time>
      </trkpt>
      <trkpt lat="44.23743" lon="7.08966">
        <ele>2398</ele>
        <time>2013-09-20T09:52:54Z</time>
      </trkpt>
      <trkpt lat="44.23752" lon="7.08963">
        <ele>2398</ele>
        <time>2013-09-20T09:52:59Z</time>
      </trkpt>
      <trkpt lat="44.23762" lon="7.08958">
        <ele>2398</ele>
        <time>2013-09-20T09:53:03Z</time>
      </trkpt>
      <trkpt lat="44.23775" lon="7.08953">
        <ele>2398</ele>
        <time>2013-09-20T09:53:10Z</time>
      </trkpt>
      <trkpt lat="44.23785" lon="7.08947">
        <ele>2398</ele>
        <time>2013-09-20T09:53:14Z</time>
      </trkpt>
      <trkpt lat="44.23792" lon="7.08944">
        <ele>2398</ele>
        <time>2013-09-20T09:53:17Z</time>
      </trkpt>
      <trkpt lat="44.23793" lon="7.08943">
        <ele>2397</ele>
        <time>2013-09-20T09:53:19Z</time>
      </trkpt>
      <trkpt lat="44.23791" lon="7.08938">
        <ele>2397</ele>
        <time>2013-09-20T09:53:26Z</time>
      </trkpt>
      <trkpt lat="44.23795" lon="7.08934">
        <ele>2395</ele>
        <time>2013-09-20T09:53:35Z</time>
      </trkpt>
      <trkpt lat="44.23802" lon="7.08929">
        <ele>2394</ele>
        <time>2013-09-20T09:53:40Z</time>
      </trkpt>
      <trkpt lat="44.23808" lon="7.08928">
        <ele>2392</ele>
        <time>2013-09-20T09:53:47Z</time>
      </trkpt>
      <trkpt lat="44.23816" lon="7.08926">
        <ele>2388</ele>
        <time>2013-09-20T09:54:02Z</time>
      </trkpt>
      <trkpt lat="44.23823" lon="7.08923">
        <ele>2384</ele>
        <time>2013-09-20T09:54:12Z</time>
      </trkpt>
      <trkpt lat="44.23829" lon="7.08928">
        <ele>2383</ele>
        <time>2013-09-20T09:54:16Z</time>
      </trkpt>
      <trkpt lat="44.23845" lon="7.08926">
        <ele>2381</ele>
        <time>2013-09-20T09:54:22Z</time>
      </trkpt>
      <trkpt lat="44.23854" lon="7.08918">
        <ele>2379</ele>
        <time>2013-09-20T09:54:26Z</time>
      </trkpt>
      <trkpt lat="44.23866" lon="7.08905">
        <ele>2376</ele>
        <time>2013-09-20T09:54:31Z</time>
      </trkpt>
      <trkpt lat="44.23869" lon="7.08903">
        <ele>2373</ele>
        <time>2013-09-20T09:54:36Z</time>
      </trkpt>
      <trkpt lat="44.23876" lon="7.08898">
        <ele>2366</ele>
        <time>2013-09-20T09:54:47Z</time>
      </trkpt>
      <trkpt lat="44.23883" lon="7.08896">
        <ele>2362</ele>
        <time>2013-09-20T09:54:53Z</time>
      </trkpt>
      <trkpt lat="44.23908" lon="7.08886">
        <ele>2355</ele>
        <time>2013-09-20T09:55:02Z</time>
      </trkpt>
      <trkpt lat="44.23937" lon="7.08868">
        <ele>2348</ele>
        <time>2013-09-20T09:55:10Z</time>
      </trkpt>
      <trkpt lat="44.23955" lon="7.08856">
        <ele>2339</ele>
        <time>2013-09-20T09:55:19Z</time>
      </trkpt>
      <trkpt lat="44.23958" lon="7.08855">
        <ele>2332</ele>
        <time>2013-09-20T09:55:26Z</time>
      </trkpt>
      <trkpt lat="44.23961" lon="7.08856">
        <ele>2319</ele>
        <time>2013-09-20T09:55:39Z</time>
      </trkpt>
      <trkpt lat="44.23962" lon="7.08856">
        <ele>2305</ele>
        <time>2013-09-20T09:55:54Z</time>
      </trkpt>
      <trkpt lat="44.23975" lon="7.08837">
        <ele>2297</ele>
        <time>2013-09-20T09:56:03Z</time>
      </trkpt>
      <trkpt lat="44.2399" lon="7.08831">
        <ele>2290</ele>
        <time>2013-09-20T09:56:11Z</time>
      </trkpt>
      <trkpt lat="44.23991" lon="7.08829">
        <ele>2287</ele>
        <time>2013-09-20T09:56:15Z</time>
      </trkpt>
      <trkpt lat="44.2399" lon="7.08832">
        <ele>2269</ele>
        <time>2013-09-20T09:56:39Z</time>
      </trkpt>
      <trkpt lat="44.23991" lon="7.08839">
        <ele>2238</ele>
        <time>2013-09-20T09:57:30Z</time>
      </trkpt>
      <trkpt lat="44.23991" lon="7.08839">
        <ele>2219</ele>
        <time>2013-09-20T09:58:16Z</time>
      </trkpt>
      <trkpt lat="44.23996" lon="7.08843">
        <ele>2204</ele>
        <time>2013-09-20T09:59:11Z</time>
      </trkpt>
      <trkpt lat="44.23996" lon="7.08841">
        <ele>2192</ele>
        <time>2013-09-20T10:00:23Z</time>
      </trkpt>
      <trkpt lat="44.23998" lon="7.08837">
        <ele>2187</ele>
        <time>2013-09-20T10:01:34Z</time>
      </trkpt>
      <trkpt lat="44.24016" lon="7.08833">
        <ele>2186</ele>
        <time>2013-09-20T10:01:47Z</time>
      </trkpt>
      <trkpt lat="44.24027" lon="7.08823">
        <ele>2186</ele>
        <time>2013-09-20T10:01:55Z</time>
      </trkpt>
      <trkpt lat="44.24032" lon="7.08818">
        <ele>2185</ele>
        <time>2013-09-20T10:02:07Z</time>
      </trkpt>
      <trkpt lat="44.24037" lon="7.08812">
        <ele>2184</ele>
        <time>2013-09-20T10:02:11Z</time>
      </trkpt>
      <trkpt lat="44.24063" lon="7.08798">
        <ele>2183</ele>
        <time>2013-09-20T10:02:21Z</time>
      </trkpt>
      <trkpt lat="44.24073" lon="7.08791">
        <ele>2183</ele>
        <time>2013-09-20T10:02:27Z</time>
      </trkpt>
      <trkpt lat="44.24073" lon="7.08763">
        <ele>2182</ele>
        <time>2013-09-20T10:02:34Z</time>
      </trkpt>
      <trkpt lat="44.24073" lon="7.08745">
        <ele>2181</ele>
        <time>2013-09-20T10:02:39Z</time>
      </trkpt>
      <trkpt lat="44.24063" lon="7.08735">
        <ele>2180</ele>
        <time>2013-09-20T10:02:48Z</time>
      </trkpt>
      <trkpt lat="44.2405" lon="7.08731">
        <ele>2180</ele>
        <time>2013-09-20T10:02:54Z</time>
      </trkpt>
      <trkpt lat="44.24042" lon="7.08726">
        <ele>2179</ele>
        <time>2013-09-20T10:02:58Z</time>
      </trkpt>
      <trkpt lat="44.24026" lon="7.08709">
        <ele>2178</ele>
        <time>2013-09-20T10:03:04Z</time>
      </trkpt>
      <trkpt lat="44.2403" lon="7.087">
        <ele>2178</ele>
        <time>2013-09-20T10:03:07Z</time>
      </trkpt>
      <trkpt lat="44.24048" lon="7.08685">
        <ele>2177</ele>
        <time>2013-09-20T10:03:14Z</time>
      </trkpt>
      <trkpt lat="44.24055" lon="7.08658">
        <ele>2175</ele>
        <time>2013-09-20T10:03:25Z</time>
      </trkpt>
      <trkpt lat="44.24066" lon="7.08634">
        <ele>2174</ele>
        <time>2013-09-20T10:03:38Z</time>
      </trkpt>
      <trkpt lat="44.24068" lon="7.08632">
        <ele>2173</ele>
        <time>2013-09-20T10:03:43Z</time>
      </trkpt>
      <trkpt lat="44.24083" lon="7.08625">
        <ele>2171</ele>
        <time>2013-09-20T10:04:02Z</time>
      </trkpt>
      <trkpt lat="44.24091" lon="7.08617">
        <ele>2171</ele>
        <time>2013-09-20T10:04:07Z</time>
      </trkpt>
      <trkpt lat="44.24096" lon="7.0859">
        <ele>2170</ele>
        <time>2013-09-20T10:04:17Z</time>
      </trkpt>
      <trkpt lat="44.24099" lon="7.08565">
        <ele>2169</ele>
        <time>2013-09-20T10:04:27Z</time>
      </trkpt>
      <trkpt lat="44.24118" lon="7.08545">
        <ele>2168</ele>
        <time>2013-09-20T10:04:40Z</time>
      </trkpt>
      <trkpt lat="44.24129" lon="7.08529">
        <ele>2167</ele>
        <time>2013-09-20T10:04:53Z</time>
      </trkpt>
      <trkpt lat="44.24146" lon="7.08504">
        <ele>2166</ele>
        <time>2013-09-20T10:05:07Z</time>
      </trkpt>
      <trkpt lat="44.24159" lon="7.08477">
        <ele>2166</ele>
        <time>2013-09-20T10:05:21Z</time>
      </trkpt>
      <trkpt lat="44.24162" lon="7.08466">
        <ele>2165</ele>
        <time>2013-09-20T10:05:32Z</time>
      </trkpt>
      <trkpt lat="44.24166" lon="7.0846">
        <ele>2165</ele>
        <time>2013-09-20T10:05:40Z</time>
      </trkpt>
      <trkpt lat="44.24168" lon="7.08449">
        <ele>2165</ele>
        <time>2013-09-20T10:05:53Z</time>
      </trkpt>
      <trkpt lat="44.24174" lon="7.08436">
        <ele>2166</ele>
        <time>2013-09-20T10:06:09Z</time>
      </trkpt>
      <trkpt lat="44.24178" lon="7.08417">
        <ele>2167</ele>
        <time>2013-09-20T10:06:25Z</time>
      </trkpt>
      <trkpt lat="44.24179" lon="7.08393">
        <ele>2167</ele>
        <time>2013-09-20T10:06:36Z</time>
      </trkpt>
      <trkpt lat="44.24185" lon="7.08384">
        <ele>2167</ele>
        <time>2013-09-20T10:06:46Z</time>
      </trkpt>
      <trkpt lat="44.24188" lon="7.08371">
        <ele>2168</ele>
        <time>2013-09-20T10:07:01Z</time>
      </trkpt>
      <trkpt lat="44.24191" lon="7.08351">
        <ele>2169</ele>
        <time>2013-09-20T10:07:15Z</time>
      </trkpt>
      <trkpt lat="44.24192" lon="7.08344">
        <ele>2170</ele>
        <time>2013-09-20T10:07:25Z</time>
      </trkpt>
      <trkpt lat="44.242" lon="7.08329">
        <ele>2171</ele>
        <time>2013-09-20T10:07:35Z</time>
      </trkpt>
      <trkpt lat="44.24209" lon="7.08318">
        <ele>2171</ele>
        <time>2013-09-20T10:07:46Z</time>
      </trkpt>
      <trkpt lat="44.24215" lon="7.0831">
        <ele>2174</ele>
        <time>2013-09-20T10:08:39Z</time>
      </trkpt>
      <trkpt lat="44.2423" lon="7.08292">
        <ele>2174</ele>
        <time>2013-09-20T10:08:48Z</time>
      </trkpt>
      <trkpt lat="44.24249" lon="7.08265">
        <ele>2174</ele>
        <time>2013-09-20T10:08:57Z</time>
      </trkpt>
      <trkpt lat="44.24261" lon="7.08244">
        <ele>2174</ele>
        <time>2013-09-20T10:09:07Z</time>
      </trkpt>
      <trkpt lat="44.24265" lon="7.08244">
        <ele>2174</ele>
        <time>2013-09-20T10:09:11Z</time>
      </trkpt>
      <trkpt lat="44.2427" lon="7.08243">
        <ele>2173</ele>
        <time>2013-09-20T10:09:24Z</time>
      </trkpt>
      <trkpt lat="44.24274" lon="7.08236">
        <ele>2172</ele>
        <time>2013-09-20T10:09:37Z</time>
      </trkpt>
      <trkpt lat="44.24276" lon="7.08235">
        <ele>2172</ele>
        <time>2013-09-20T10:09:39Z</time>
      </trkpt>
      <trkpt lat="44.2428" lon="7.08228">
        <ele>2171</ele>
        <time>2013-09-20T10:09:48Z</time>
      </trkpt>
      <trkpt lat="44.24274" lon="7.08228">
        <ele>2171</ele>
        <time>2013-09-20T10:09:54Z</time>
      </trkpt>
      <trkpt lat="44.24277" lon="7.08225">
        <ele>2170</ele>
        <time>2013-09-20T10:09:58Z</time>
      </trkpt>
      <trkpt lat="44.24281" lon="7.08221">
        <ele>2170</ele>
        <time>2013-09-20T10:10:05Z</time>
      </trkpt>
      <trkpt lat="44.24276" lon="7.08217">
        <ele>2168</ele>
        <time>2013-09-20T10:10:16Z</time>
      </trkpt>
      <trkpt lat="44.24277" lon="7.08213">
        <ele>2167</ele>
        <time>2013-09-20T10:10:30Z</time>
      </trkpt>
      <trkpt lat="44.24274" lon="7.08211">
        <ele>2166</ele>
        <time>2013-09-20T10:10:38Z</time>
      </trkpt>
      <trkpt lat="44.24264" lon="7.08208">
        <ele>2165</ele>
        <time>2013-09-20T10:10:44Z</time>
      </trkpt>
      <trkpt lat="44.24258" lon="7.08202">
        <ele>2164</ele>
        <time>2013-09-20T10:10:48Z</time>
      </trkpt>
      <trkpt lat="44.24257" lon="7.08198">
        <ele>2163</ele>
        <time>2013-09-20T10:10:59Z</time>
      </trkpt>
      <trkpt lat="44.24254" lon="7.08195">
        <ele>2162</ele>
        <time>2013-09-20T10:11:04Z</time>
      </trkpt>
      <trkpt lat="44.24266" lon="7.08172">
        <ele>2160</ele>
        <time>2013-09-20T10:11:14Z</time>
      </trkpt>
      <trkpt lat="44.24263" lon="7.08153">
        <ele>2158</ele>
        <time>2013-09-20T10:11:22Z</time>
      </trkpt>
      <trkpt lat="44.24255" lon="7.08141">
        <ele>2156</ele>
        <time>2013-09-20T10:11:29Z</time>
      </trkpt>
      <trkpt lat="44.24246" lon="7.08133">
        <ele>2154</ele>
        <time>2013-09-20T10:11:37Z</time>
      </trkpt>
      <trkpt lat="44.24238" lon="7.08124">
        <ele>2128</ele>
        <time>2013-09-20T10:13:36Z</time>
      </trkpt>
      <trkpt lat="44.24223" lon="7.08106">
        <ele>2127</ele>
        <time>2013-09-20T10:13:44Z</time>
      </trkpt>
      <trkpt lat="44.24223" lon="7.08089">
        <ele>2126</ele>
        <time>2013-09-20T10:13:48Z</time>
      </trkpt>
      <trkpt lat="44.24236" lon="7.08059">
        <ele>2124</ele>
        <time>2013-09-20T10:13:55Z</time>
      </trkpt>
      <trkpt lat="44.24245" lon="7.08053">
        <ele>2123</ele>
        <time>2013-09-20T10:13:59Z</time>
      </trkpt>
      <trkpt lat="44.24245" lon="7.08052">
        <ele>2122</ele>
        <time>2013-09-20T10:14:02Z</time>
      </trkpt>
      <trkpt lat="44.2425" lon="7.08043">
        <ele>2120</ele>
        <time>2013-09-20T10:14:12Z</time>
      </trkpt>
      <trkpt lat="44.24252" lon="7.08043">
        <ele>2119</ele>
        <time>2013-09-20T10:14:17Z</time>
      </trkpt>
      <trkpt lat="44.24256" lon="7.08034">
        <ele>2117</ele>
        <time>2013-09-20T10:14:25Z</time>
      </trkpt>
      <trkpt lat="44.24259" lon="7.08034">
        <ele>2116</ele>
        <time>2013-09-20T10:14:29Z</time>
      </trkpt>
      <trkpt lat="44.24265" lon="7.08035">
        <ele>2109</ele>
        <time>2013-09-20T10:14:59Z</time>
      </trkpt>
      <trkpt lat="44.24269" lon="7.08038">
        <ele>2108</ele>
        <time>2013-09-20T10:15:05Z</time>
      </trkpt>
      <trkpt lat="44.24272" lon="7.08031">
        <ele>2106</ele>
        <time>2013-09-20T10:15:16Z</time>
      </trkpt>
      <trkpt lat="44.24273" lon="7.0802">
        <ele>2103</ele>
        <time>2013-09-20T10:15:32Z</time>
      </trkpt>
      <trkpt lat="44.2427" lon="7.08012">
        <ele>2101</ele>
        <time>2013-09-20T10:15:38Z</time>
      </trkpt>
      <trkpt lat="44.24265" lon="7.08007">
        <ele>2101</ele>
        <time>2013-09-20T10:15:43Z</time>
      </trkpt>
      <trkpt lat="44.24264" lon="7.08008">
        <ele>2100</ele>
        <time>2013-09-20T10:15:48Z</time>
      </trkpt>
      <trkpt lat="44.24264" lon="7.08009">
        <ele>2097</ele>
        <time>2013-09-20T10:16:00Z</time>
      </trkpt>
      <trkpt lat="44.24264" lon="7.08011">
        <ele>2087</ele>
        <time>2013-09-20T10:17:03Z</time>
      </trkpt>
      <trkpt lat="44.24262" lon="7.08007">
        <ele>2085</ele>
        <time>2013-09-20T10:17:23Z</time>
      </trkpt>
      <trkpt lat="44.24248" lon="7.07987">
        <ele>2083</ele>
        <time>2013-09-20T10:17:32Z</time>
      </trkpt>
      <trkpt lat="44.24228" lon="7.07958">
        <ele>2082</ele>
        <time>2013-09-20T10:17:41Z</time>
      </trkpt>
      <trkpt lat="44.24231" lon="7.07951">
        <ele>2082</ele>
        <time>2013-09-20T10:17:44Z</time>
      </trkpt>
      <trkpt lat="44.24244" lon="7.07952">
        <ele>2081</ele>
        <time>2013-09-20T10:17:52Z</time>
      </trkpt>
      <trkpt lat="44.24248" lon="7.0795">
        <ele>2080</ele>
        <time>2013-09-20T10:17:57Z</time>
      </trkpt>
      <trkpt lat="44.24264" lon="7.07941">
        <ele>2076</ele>
        <time>2013-09-20T10:18:38Z</time>
      </trkpt>
      <trkpt lat="44.24271" lon="7.07942">
        <ele>2075</ele>
        <time>2013-09-20T10:18:43Z</time>
      </trkpt>
      <trkpt lat="44.24282" lon="7.07939">
        <ele>2074</ele>
        <time>2013-09-20T10:19:00Z</time>
      </trkpt>
      <trkpt lat="44.24284" lon="7.07939">
        <ele>2074</ele>
        <time>2013-09-20T10:19:02Z</time>
      </trkpt>
      <trkpt lat="44.24278" lon="7.07929">
        <ele>2073</ele>
        <time>2013-09-20T10:19:13Z</time>
      </trkpt>
      <trkpt lat="44.24272" lon="7.07907">
        <ele>2073</ele>
        <time>2013-09-20T10:19:23Z</time>
      </trkpt>
      <trkpt lat="44.24274" lon="7.07893">
        <ele>2072</ele>
        <time>2013-09-20T10:19:37Z</time>
      </trkpt>
      <trkpt lat="44.24289" lon="7.07877">
        <ele>2071</ele>
        <time>2013-09-20T10:19:44Z</time>
      </trkpt>
      <trkpt lat="44.243" lon="7.0787">
        <ele>2071</ele>
        <time>2013-09-20T10:19:48Z</time>
      </trkpt>
      <trkpt lat="44.2432" lon="7.07861">
        <ele>2071</ele>
        <time>2013-09-20T10:19:52Z</time>
      </trkpt>
      <trkpt lat="44.24345" lon="7.07868">
        <ele>2071</ele>
        <time>2013-09-20T10:19:58Z</time>
      </trkpt>
      <trkpt lat="44.2435" lon="7.07873">
        <ele>2071</ele>
        <time>2013-09-20T10:20:01Z</time>
      </trkpt>
      <trkpt lat="44.24353" lon="7.07877">
        <ele>2067</ele>
        <time>2013-09-20T10:21:32Z</time>
      </trkpt>
      <trkpt lat="44.24361" lon="7.07883">
        <ele>2065</ele>
        <time>2013-09-20T10:23:42Z</time>
      </trkpt>
      <trkpt lat="44.24364" lon="7.0788">
        <ele>2064</ele>
        <time>2013-09-20T10:23:51Z</time>
      </trkpt>
      <trkpt lat="44.24367" lon="7.07871">
        <ele>2064</ele>
        <time>2013-09-20T10:24:05Z</time>
      </trkpt>
      <trkpt lat="44.24371" lon="7.07873">
        <ele>2064</ele>
        <time>2013-09-20T10:24:11Z</time>
      </trkpt>
      <trkpt lat="44.24379" lon="7.0788">
        <ele>2064</ele>
        <time>2013-09-20T10:24:25Z</time>
      </trkpt>
      <trkpt lat="44.24385" lon="7.07888">
        <ele>2064</ele>
        <time>2013-09-20T10:24:29Z</time>
      </trkpt>
      <trkpt lat="44.24385" lon="7.0789">
        <ele>2063</ele>
        <time>2013-09-20T10:24:34Z</time>
      </trkpt>
      <trkpt lat="44.2439" lon="7.07894">
        <ele>2063</ele>
        <time>2013-09-20T10:24:54Z</time>
      </trkpt>
      <trkpt lat="44.24399" lon="7.07899">
        <ele>2063</ele>
        <time>2013-09-20T10:25:13Z</time>
      </trkpt>
      <trkpt lat="44.24404" lon="7.07892">
        <ele>2062</ele>
        <time>2013-09-20T10:25:22Z</time>
      </trkpt>
      <trkpt lat="44.24423" lon="7.07893">
        <ele>2062</ele>
        <time>2013-09-20T10:25:31Z</time>
      </trkpt>
      <trkpt lat="44.24436" lon="7.07887">
        <ele>2062</ele>
        <time>2013-09-20T10:25:35Z</time>
      </trkpt>
      <trkpt lat="44.24447" lon="7.07888">
        <ele>2062</ele>
        <time>2013-09-20T10:25:39Z</time>
      </trkpt>
      <trkpt lat="44.24453" lon="7.07901">
        <ele>2062</ele>
        <time>2013-09-20T10:25:43Z</time>
      </trkpt>
      <trkpt lat="44.24463" lon="7.07903">
        <ele>2062</ele>
        <time>2013-09-20T10:25:47Z</time>
      </trkpt>
      <trkpt lat="44.24467" lon="7.07911">
        <ele>2062</ele>
        <time>2013-09-20T10:25:52Z</time>
      </trkpt>
      <trkpt lat="44.24469" lon="7.07908">
        <ele>2061</ele>
        <time>2013-09-20T10:25:57Z</time>
      </trkpt>
      <trkpt lat="44.24474" lon="7.07903">
        <ele>2061</ele>
        <time>2013-09-20T10:26:02Z</time>
      </trkpt>
      <trkpt lat="44.24476" lon="7.07902">
        <ele>2061</ele>
        <time>2013-09-20T10:26:05Z</time>
      </trkpt>
      <trkpt lat="44.24482" lon="7.07896">
        <ele>2061</ele>
        <time>2013-09-20T10:26:10Z</time>
      </trkpt>
      <trkpt lat="44.2449" lon="7.07889">
        <ele>2061</ele>
        <time>2013-09-20T10:26:18Z</time>
      </trkpt>
      <trkpt lat="44.24507" lon="7.07899">
        <ele>2060</ele>
        <time>2013-09-20T10:26:27Z</time>
      </trkpt>
      <trkpt lat="44.2453" lon="7.07895">
        <ele>2060</ele>
        <time>2013-09-20T10:26:38Z</time>
      </trkpt>
      <trkpt lat="44.24533" lon="7.07896">
        <ele>2060</ele>
        <time>2013-09-20T10:26:42Z</time>
      </trkpt>
      <trkpt lat="44.24536" lon="7.07893">
        <ele>2060</ele>
        <time>2013-09-20T10:26:50Z</time>
      </trkpt>
      <trkpt lat="44.24537" lon="7.07891">
        <ele>2059</ele>
        <time>2013-09-20T10:26:52Z</time>
      </trkpt>
      <trkpt lat="44.24543" lon="7.0789">
        <ele>2059</ele>
        <time>2013-09-20T10:27:06Z</time>
      </trkpt>
      <trkpt lat="44.24563" lon="7.07898">
        <ele>2059</ele>
        <time>2013-09-20T10:27:13Z</time>
      </trkpt>
      <trkpt lat="44.2457" lon="7.07897">
        <ele>2059</ele>
        <time>2013-09-20T10:27:15Z</time>
      </trkpt>
      <trkpt lat="44.24578" lon="7.07896">
        <ele>2059</ele>
        <time>2013-09-20T10:27:18Z</time>
      </trkpt>
      <trkpt lat="44.24588" lon="7.0789">
        <ele>2058</ele>
        <time>2013-09-20T10:27:24Z</time>
      </trkpt>
      <trkpt lat="44.24602" lon="7.07891">
        <ele>2058</ele>
        <time>2013-09-20T10:27:30Z</time>
      </trkpt>
      <trkpt lat="44.24617" lon="7.07896">
        <ele>2058</ele>
        <time>2013-09-20T10:27:35Z</time>
      </trkpt>
      <trkpt lat="44.24647" lon="7.07894">
        <ele>2057</ele>
        <time>2013-09-20T10:27:42Z</time>
      </trkpt>
      <trkpt lat="44.24664" lon="7.07889">
        <ele>2057</ele>
        <time>2013-09-20T10:27:45Z</time>
      </trkpt>
      <trkpt lat="44.24688" lon="7.07893">
        <ele>2057</ele>
        <time>2013-09-20T10:27:50Z</time>
      </trkpt>
      <trkpt lat="44.24705" lon="7.07893">
        <ele>2057</ele>
        <time>2013-09-20T10:27:54Z</time>
      </trkpt>
      <trkpt lat="44.24728" lon="7.0789">
        <ele>2057</ele>
        <time>2013-09-20T10:27:59Z</time>
      </trkpt>
      <trkpt lat="44.2476" lon="7.07889">
        <ele>2056</ele>
        <time>2013-09-20T10:28:07Z</time>
      </trkpt>
      <trkpt lat="44.24778" lon="7.07895">
        <ele>2056</ele>
        <time>2013-09-20T10:28:12Z</time>
      </trkpt>
      <trkpt lat="44.24821" lon="7.07889">
        <ele>2055</ele>
        <time>2013-09-20T10:28:23Z</time>
      </trkpt>
      <trkpt lat="44.24833" lon="7.07887">
        <ele>2055</ele>
        <time>2013-09-20T10:28:28Z</time>
      </trkpt>
      <trkpt lat="44.24852" lon="7.07882">
        <ele>2054</ele>
        <time>2013-09-20T10:28:35Z</time>
      </trkpt>
      <trkpt lat="44.249" lon="7.07869">
        <ele>2053</ele>
        <time>2013-09-20T10:28:48Z</time>
      </trkpt>
      <trkpt lat="44.24925" lon="7.0786">
        <ele>2053</ele>
        <time>2013-09-20T10:28:54Z</time>
      </trkpt>
      <trkpt lat="44.24963" lon="7.07849">
        <ele>2052</ele>
        <time>2013-09-20T10:29:02Z</time>
      </trkpt>
      <trkpt lat="44.24977" lon="7.07852">
        <ele>2052</ele>
        <time>2013-09-20T10:29:05Z</time>
      </trkpt>
      <trkpt lat="44.24991" lon="7.07853">
        <ele>2052</ele>
        <time>2013-09-20T10:29:08Z</time>
      </trkpt>
      <trkpt lat="44.25021" lon="7.07855">
        <ele>2051</ele>
        <time>2013-09-20T10:29:15Z</time>
      </trkpt>
      <trkpt lat="44.25035" lon="7.07852">
        <ele>2051</ele>
        <time>2013-09-20T10:29:19Z</time>
      </trkpt>
      <trkpt lat="44.25051" lon="7.07848">
        <ele>2050</ele>
        <time>2013-09-20T10:29:35Z</time>
      </trkpt>
      <trkpt lat="44.2506" lon="7.07848">
        <ele>2048</ele>
        <time>2013-09-20T10:29:47Z</time>
      </trkpt>
      <trkpt lat="44.25063" lon="7.07851">
        <ele>2048</ele>
        <time>2013-09-20T10:29:51Z</time>
      </trkpt>
      <trkpt lat="44.25067" lon="7.07845">
        <ele>2047</ele>
        <time>2013-09-20T10:29:59Z</time>
      </trkpt>
      <trkpt lat="44.25072" lon="7.07836">
        <ele>2046</ele>
        <time>2013-09-20T10:30:06Z</time>
      </trkpt>
      <trkpt lat="44.25081" lon="7.07832">
        <ele>2044</ele>
        <time>2013-09-20T10:30:15Z</time>
      </trkpt>
      <trkpt lat="44.25087" lon="7.0783">
        <ele>2043</ele>
        <time>2013-09-20T10:30:23Z</time>
      </trkpt>
      <trkpt lat="44.25094" lon="7.07833">
        <ele>2040</ele>
        <time>2013-09-20T10:30:37Z</time>
      </trkpt>
      <trkpt lat="44.25099" lon="7.07829">
        <ele>2039</ele>
        <time>2013-09-20T10:30:42Z</time>
      </trkpt>
      <trkpt lat="44.25106" lon="7.07824">
        <ele>2038</ele>
        <time>2013-09-20T10:30:48Z</time>
      </trkpt>
      <trkpt lat="44.25115" lon="7.07819">
        <ele>2036</ele>
        <time>2013-09-20T10:30:58Z</time>
      </trkpt>
      <trkpt lat="44.25118" lon="7.07818">
        <ele>2036</ele>
        <time>2013-09-20T10:31:00Z</time>
      </trkpt>
      <trkpt lat="44.25124" lon="7.07812">
        <ele>2034</ele>
        <time>2013-09-20T10:31:08Z</time>
      </trkpt>
      <trkpt lat="44.25129" lon="7.07811">
        <ele>2032</ele>
        <time>2013-09-20T10:31:14Z</time>
      </trkpt>
      <trkpt lat="44.25137" lon="7.0782">
        <ele>2030</ele>
        <time>2013-09-20T10:31:22Z</time>
      </trkpt>
      <trkpt lat="44.25149" lon="7.07829">
        <ele>2028</ele>
        <time>2013-09-20T10:31:31Z</time>
      </trkpt>
      <trkpt lat="44.25154" lon="7.07831">
        <ele>2025</ele>
        <time>2013-09-20T10:31:41Z</time>
      </trkpt>
      <trkpt lat="44.25163" lon="7.07844">
        <ele>2021</ele>
        <time>2013-09-20T10:31:57Z</time>
      </trkpt>
      <trkpt lat="44.25166" lon="7.07848">
        <ele>2018</ele>
        <time>2013-09-20T10:32:05Z</time>
      </trkpt>
      <trkpt lat="44.25185" lon="7.07857">
        <ele>2016</ele>
        <time>2013-09-20T10:32:13Z</time>
      </trkpt>
      <trkpt lat="44.25203" lon="7.07858">
        <ele>2015</ele>
        <time>2013-09-20T10:32:20Z</time>
      </trkpt>
      <trkpt lat="44.25235" lon="7.07836">
        <ele>2013</ele>
        <time>2013-09-20T10:32:27Z</time>
      </trkpt>
      <trkpt lat="44.25254" lon="7.07827">
        <ele>2010</ele>
        <time>2013-09-20T10:32:35Z</time>
      </trkpt>
      <trkpt lat="44.25261" lon="7.07823">
        <ele>2009</ele>
        <time>2013-09-20T10:32:41Z</time>
      </trkpt>
      <trkpt lat="44.25265" lon="7.07823">
        <ele>2006</ele>
        <time>2013-09-20T10:32:50Z</time>
      </trkpt>
      <trkpt lat="44.25272" lon="7.0782">
        <ele>2004</ele>
        <time>2013-09-20T10:32:58Z</time>
      </trkpt>
      <trkpt lat="44.25294" lon="7.07809">
        <ele>2001</ele>
        <time>2013-09-20T10:33:07Z</time>
      </trkpt>
      <trkpt lat="44.25309" lon="7.07787">
        <ele>1999</ele>
        <time>2013-09-20T10:33:13Z</time>
      </trkpt>
      <trkpt lat="44.25315" lon="7.07774">
        <ele>1980</ele>
        <time>2013-09-20T10:34:39Z</time>
      </trkpt>
      <trkpt lat="44.2534" lon="7.07771">
        <ele>1907</ele>
        <time>2013-09-20T10:48:29Z</time>
      </trkpt>
      <trkpt lat="44.25372" lon="7.07764">
        <ele>1908</ele>
        <time>2013-09-20T10:48:40Z</time>
      </trkpt>
      <trkpt lat="44.25384" lon="7.07762">
        <ele>1909</ele>
        <time>2013-09-20T10:48:48Z</time>
      </trkpt>
      <trkpt lat="44.25401" lon="7.0777">
        <ele>1909</ele>
        <time>2013-09-20T10:48:56Z</time>
      </trkpt>
      <trkpt lat="44.25421" lon="7.07778">
        <ele>1909</ele>
        <time>2013-09-20T10:49:04Z</time>
      </trkpt>
      <trkpt lat="44.25432" lon="7.07775">
        <ele>1909</ele>
        <time>2013-09-20T10:49:09Z</time>
      </trkpt>
      <trkpt lat="44.25463" lon="7.07751">
        <ele>1909</ele>
        <time>2013-09-20T10:49:18Z</time>
      </trkpt>
      <trkpt lat="44.25503" lon="7.07748">
        <ele>1911</ele>
        <time>2013-09-20T11:24:17Z</time>
      </trkpt>
      <trkpt lat="44.25518" lon="7.07745">
        <ele>1910</ele>
        <time>2013-09-20T11:24:23Z</time>
      </trkpt>
      <trkpt lat="44.25525" lon="7.07742">
        <ele>1910</ele>
        <time>2013-09-20T11:24:27Z</time>
      </trkpt>
      <trkpt lat="44.25541" lon="7.07739">
        <ele>1909</ele>
        <time>2013-09-20T11:24:35Z</time>
      </trkpt>
      <trkpt lat="44.25561" lon="7.07729">
        <ele>1909</ele>
        <time>2013-09-20T11:24:42Z</time>
      </trkpt>
      <trkpt lat="44.25564" lon="7.07725">
        <ele>1908</ele>
        <time>2013-09-20T11:24:47Z</time>
      </trkpt>
      <trkpt lat="44.2557" lon="7.07724">
        <ele>1908</ele>
        <time>2013-09-20T11:24:54Z</time>
      </trkpt>
      <trkpt lat="44.25581" lon="7.07723">
        <ele>1907</ele>
        <time>2013-09-20T11:25:04Z</time>
      </trkpt>
      <trkpt lat="44.25589" lon="7.07723">
        <ele>1907</ele>
        <time>2013-09-20T11:25:16Z</time>
      </trkpt>
      <trkpt lat="44.25601" lon="7.07725">
        <ele>1909</ele>
        <time>2013-09-20T11:25:35Z</time>
      </trkpt>
      <trkpt lat="44.2561" lon="7.07727">
        <ele>1912</ele>
        <time>2013-09-20T11:25:46Z</time>
      </trkpt>
      <trkpt lat="44.25619" lon="7.07726">
        <ele>1914</ele>
        <time>2013-09-20T11:25:53Z</time>
      </trkpt>
      <trkpt lat="44.25632" lon="7.07726">
        <ele>1917</ele>
        <time>2013-09-20T11:26:01Z</time>
      </trkpt>
      <trkpt lat="44.25644" lon="7.07722">
        <ele>1921</ele>
        <time>2013-09-20T11:26:09Z</time>
      </trkpt>
      <trkpt lat="44.25647" lon="7.07723">
        <ele>1922</ele>
        <time>2013-09-20T11:26:12Z</time>
      </trkpt>
      <trkpt lat="44.25655" lon="7.07723">
        <ele>1924</ele>
        <time>2013-09-20T11:26:18Z</time>
      </trkpt>
      <trkpt lat="44.25666" lon="7.07719">
        <ele>1927</ele>
        <time>2013-09-20T11:26:26Z</time>
      </trkpt>
      <trkpt lat="44.25694" lon="7.07711">
        <ele>1930</ele>
        <time>2013-09-20T11:26:36Z</time>
      </trkpt>
      <trkpt lat="44.25704" lon="7.07707">
        <ele>1932</ele>
        <time>2013-09-20T11:26:43Z</time>
      </trkpt>
      <trkpt lat="44.25706" lon="7.07707">
        <ele>1933</ele>
        <time>2013-09-20T11:26:53Z</time>
      </trkpt>
      <trkpt lat="44.25702" lon="7.07704">
        <ele>1933</ele>
        <time>2013-09-20T11:27:05Z</time>
      </trkpt>
      <trkpt lat="44.25694" lon="7.07706">
        <ele>1932</ele>
        <time>2013-09-20T11:27:14Z</time>
      </trkpt>
      <trkpt lat="44.25701" lon="7.07704">
        <ele>1932</ele>
        <time>2013-09-20T11:27:29Z</time>
      </trkpt>
      <trkpt lat="44.25711" lon="7.07702">
        <ele>1932</ele>
        <time>2013-09-20T11:27:33Z</time>
      </trkpt>
      <trkpt lat="44.25733" lon="7.07694">
        <ele>1931</ele>
        <time>2013-09-20T11:27:41Z</time>
      </trkpt>
      <trkpt lat="44.25771" lon="7.07685">
        <ele>1931</ele>
        <time>2013-09-20T11:27:50Z</time>
      </trkpt>
      <trkpt lat="44.258" lon="7.07689">
        <ele>1930</ele>
        <time>2013-09-20T11:27:57Z</time>
      </trkpt>
      <trkpt lat="44.25818" lon="7.07691">
        <ele>1930</ele>
        <time>2013-09-20T11:28:03Z</time>
      </trkpt>
      <trkpt lat="44.25829" lon="7.07689">
        <ele>1930</ele>
        <time>2013-09-20T11:28:07Z</time>
      </trkpt>
      <trkpt lat="44.25838" lon="7.07686">
        <ele>1930</ele>
        <time>2013-09-20T11:28:11Z</time>
      </trkpt>
      <trkpt lat="44.25851" lon="7.07668">
        <ele>1930</ele>
        <time>2013-09-20T11:28:19Z</time>
      </trkpt>
      <trkpt lat="44.2586" lon="7.07663">
        <ele>1930</ele>
        <time>2013-09-20T11:28:23Z</time>
      </trkpt>
      <trkpt lat="44.25865" lon="7.07661">
        <ele>1930</ele>
        <time>2013-09-20T11:28:28Z</time>
      </trkpt>
      <trkpt lat="44.25873" lon="7.07655">
        <ele>1931</ele>
        <time>2013-09-20T11:28:33Z</time>
      </trkpt>
      <trkpt lat="44.25888" lon="7.07646">
        <ele>1932</ele>
        <time>2013-09-20T11:28:41Z</time>
      </trkpt>
      <trkpt lat="44.25897" lon="7.07648">
        <ele>1932</ele>
        <time>2013-09-20T11:28:45Z</time>
      </trkpt>
      <trkpt lat="44.25908" lon="7.07647">
        <ele>1932</ele>
        <time>2013-09-20T11:28:49Z</time>
      </trkpt>
      <trkpt lat="44.2593" lon="7.0763">
        <ele>1932</ele>
        <time>2013-09-20T11:28:58Z</time>
      </trkpt>
      <trkpt lat="44.25951" lon="7.076">
        <ele>1932</ele>
        <time>2013-09-20T11:29:07Z</time>
      </trkpt>
      <trkpt lat="44.25967" lon="7.07581">
        <ele>1932</ele>
        <time>2013-09-20T11:29:15Z</time>
      </trkpt>
      <trkpt lat="44.25992" lon="7.07585">
        <ele>1932</ele>
        <time>2013-09-20T11:29:25Z</time>
      </trkpt>
      <trkpt lat="44.26002" lon="7.07586">
        <ele>1932</ele>
        <time>2013-09-20T11:29:33Z</time>
      </trkpt>
      <trkpt lat="44.26007" lon="7.07584">
        <ele>1932</ele>
        <time>2013-09-20T11:29:38Z</time>
      </trkpt>
      <trkpt lat="44.26014" lon="7.07586">
        <ele>1932</ele>
        <time>2013-09-20T11:29:44Z</time>
      </trkpt>
      <trkpt lat="44.26045" lon="7.07593">
        <ele>1931</ele>
        <time>2013-09-20T11:29:51Z</time>
      </trkpt>
      <trkpt lat="44.26078" lon="7.07599">
        <ele>1931</ele>
        <time>2013-09-20T11:29:57Z</time>
      </trkpt>
      <trkpt lat="44.26113" lon="7.07611">
        <ele>1931</ele>
        <time>2013-09-20T11:30:03Z</time>
      </trkpt>
      <trkpt lat="44.26128" lon="7.07614">
        <ele>1931</ele>
        <time>2013-09-20T11:30:08Z</time>
      </trkpt>
      <trkpt lat="44.26146" lon="7.07611">
        <ele>1931</ele>
        <time>2013-09-20T11:30:13Z</time>
      </trkpt>
      <trkpt lat="44.26157" lon="7.07615">
        <ele>1931</ele>
        <time>2013-09-20T11:30:20Z</time>
      </trkpt>
      <trkpt lat="44.26157" lon="7.07606">
        <ele>1931</ele>
        <time>2013-09-20T11:30:24Z</time>
      </trkpt>
      <trkpt lat="44.26158" lon="7.07601">
        <ele>1931</ele>
        <time>2013-09-20T11:30:27Z</time>
      </trkpt>
      <trkpt lat="44.26158" lon="7.07591">
        <ele>1930</ele>
        <time>2013-09-20T11:30:34Z</time>
      </trkpt>
      <trkpt lat="44.26161" lon="7.07583">
        <ele>1930</ele>
        <time>2013-09-20T11:30:37Z</time>
      </trkpt>
      <trkpt lat="44.26159" lon="7.07568">
        <ele>1930</ele>
        <time>2013-09-20T11:30:43Z</time>
      </trkpt>
      <trkpt lat="44.26155" lon="7.07546">
        <ele>1930</ele>
        <time>2013-09-20T11:30:49Z</time>
      </trkpt>
      <trkpt lat="44.26149" lon="7.0753">
        <ele>1930</ele>
        <time>2013-09-20T11:30:54Z</time>
      </trkpt>
      <trkpt lat="44.26144" lon="7.07513">
        <ele>1930</ele>
        <time>2013-09-20T11:30:57Z</time>
      </trkpt>
      <trkpt lat="44.26137" lon="7.07485">
        <ele>1930</ele>
        <time>2013-09-20T11:31:03Z</time>
      </trkpt>
      <trkpt lat="44.26135" lon="7.07478">
        <ele>1930</ele>
        <time>2013-09-20T11:31:05Z</time>
      </trkpt>
      <trkpt lat="44.26108" lon="7.07449">
        <ele>1930</ele>
        <time>2013-09-20T11:31:10Z</time>
      </trkpt>
      <trkpt lat="44.26085" lon="7.07428">
        <ele>1929</ele>
        <time>2013-09-20T11:31:16Z</time>
      </trkpt>
      <trkpt lat="44.26064" lon="7.07409">
        <ele>1929</ele>
        <time>2013-09-20T11:31:23Z</time>
      </trkpt>
      <trkpt lat="44.26052" lon="7.07387">
        <ele>1929</ele>
        <time>2013-09-20T11:31:28Z</time>
      </trkpt>
      <trkpt lat="44.26043" lon="7.07376">
        <ele>1929</ele>
        <time>2013-09-20T11:31:32Z</time>
      </trkpt>
      <trkpt lat="44.26037" lon="7.07368">
        <ele>1929</ele>
        <time>2013-09-20T11:31:38Z</time>
      </trkpt>
      <trkpt lat="44.26032" lon="7.07355">
        <ele>1929</ele>
        <time>2013-09-20T11:31:45Z</time>
      </trkpt>
      <trkpt lat="44.26028" lon="7.07348">
        <ele>1929</ele>
        <time>2013-09-20T11:31:49Z</time>
      </trkpt>
      <trkpt lat="44.26025" lon="7.07343">
        <ele>1928</ele>
        <time>2013-09-20T11:31:53Z</time>
      </trkpt>
      <trkpt lat="44.26017" lon="7.07331">
        <ele>1928</ele>
        <time>2013-09-20T11:32:01Z</time>
      </trkpt>
      <trkpt lat="44.2601" lon="7.07315">
        <ele>1928</ele>
        <time>2013-09-20T11:32:11Z</time>
      </trkpt>
      <trkpt lat="44.26001" lon="7.07294">
        <ele>1928</ele>
        <time>2013-09-20T11:32:23Z</time>
      </trkpt>
      <trkpt lat="44.25985" lon="7.07244">
        <ele>1928</ele>
        <time>2013-09-20T11:32:35Z</time>
      </trkpt>
      <trkpt lat="44.25975" lon="7.07215">
        <ele>1927</ele>
        <time>2013-09-20T11:32:46Z</time>
      </trkpt>
      <trkpt lat="44.2597" lon="7.07183">
        <ele>1927</ele>
        <time>2013-09-20T11:32:54Z</time>
      </trkpt>
      <trkpt lat="44.25973" lon="7.07182">
        <ele>1927</ele>
        <time>2013-09-20T11:33:05Z</time>
      </trkpt>
      <trkpt lat="44.25985" lon="7.07166">
        <ele>1927</ele>
        <time>2013-09-20T11:33:13Z</time>
      </trkpt>
      <trkpt lat="44.25985" lon="7.07164">
        <ele>1927</ele>
        <time>2013-09-20T11:33:18Z</time>
      </trkpt>
      <trkpt lat="44.25985" lon="7.07156">
        <ele>1926</ele>
        <time>2013-09-20T11:33:28Z</time>
      </trkpt>
      <trkpt lat="44.25975" lon="7.07137">
        <ele>1926</ele>
        <time>2013-09-20T11:33:38Z</time>
      </trkpt>
      <trkpt lat="44.25978" lon="7.07123">
        <ele>1926</ele>
        <time>2013-09-20T11:33:52Z</time>
      </trkpt>
      <trkpt lat="44.2598" lon="7.07116">
        <ele>1925</ele>
        <time>2013-09-20T11:33:56Z</time>
      </trkpt>
      <trkpt lat="44.2598" lon="7.07106">
        <ele>1925</ele>
        <time>2013-09-20T11:34:06Z</time>
      </trkpt>
      <trkpt lat="44.25979" lon="7.07095">
        <ele>1925</ele>
        <time>2013-09-20T11:34:12Z</time>
      </trkpt>
      <trkpt lat="44.2598" lon="7.07091">
        <ele>1925</ele>
        <time>2013-09-20T11:34:16Z</time>
      </trkpt>
      <trkpt lat="44.26" lon="7.0705">
        <ele>1925</ele>
        <time>2013-09-20T11:34:41Z</time>
      </trkpt>
      <trkpt lat="44.2602" lon="7.06992">
        <ele>1925</ele>
        <time>2013-09-20T11:34:59Z</time>
      </trkpt>
      <trkpt lat="44.26036" lon="7.06985">
        <ele>1925</ele>
        <time>2013-09-20T11:35:04Z</time>
      </trkpt>
      <trkpt lat="44.26042" lon="7.06977">
        <ele>1924</ele>
        <time>2013-09-20T11:35:07Z</time>
      </trkpt>
      <trkpt lat="44.26059" lon="7.06965">
        <ele>1924</ele>
        <time>2013-09-20T11:35:14Z</time>
      </trkpt>
      <trkpt lat="44.26072" lon="7.06956">
        <ele>1924</ele>
        <time>2013-09-20T11:35:19Z</time>
      </trkpt>
      <trkpt lat="44.26087" lon="7.06945">
        <ele>1923</ele>
        <time>2013-09-20T11:35:26Z</time>
      </trkpt>
      <trkpt lat="44.26097" lon="7.06925">
        <ele>1923</ele>
        <time>2013-09-20T11:35:31Z</time>
      </trkpt>
      <trkpt lat="44.2612" lon="7.06889">
        <ele>1922</ele>
        <time>2013-09-20T11:35:39Z</time>
      </trkpt>
      <trkpt lat="44.26132" lon="7.06867">
        <ele>1921</ele>
        <time>2013-09-20T11:35:45Z</time>
      </trkpt>
      <trkpt lat="44.26144" lon="7.06847">
        <ele>1921</ele>
        <time>2013-09-20T11:35:49Z</time>
      </trkpt>
      <trkpt lat="44.26152" lon="7.06835">
        <ele>1919</ele>
        <time>2013-09-20T11:35:54Z</time>
      </trkpt>
      <trkpt lat="44.26163" lon="7.06848">
        <ele>1915</ele>
        <time>2013-09-20T11:36:05Z</time>
      </trkpt>
      <trkpt lat="44.26179" lon="7.06829">
        <ele>1910</ele>
        <time>2013-09-20T11:36:15Z</time>
      </trkpt>
      <trkpt lat="44.26195" lon="7.0682">
        <ele>1904</ele>
        <time>2013-09-20T11:36:25Z</time>
      </trkpt>
      <trkpt lat="44.26217" lon="7.06814">
        <ele>1897</ele>
        <time>2013-09-20T11:36:33Z</time>
      </trkpt>
      <trkpt lat="44.2623" lon="7.06805">
        <ele>1892</ele>
        <time>2013-09-20T11:36:39Z</time>
      </trkpt>
      <trkpt lat="44.26263" lon="7.06779">
        <ele>1885</ele>
        <time>2013-09-20T11:36:48Z</time>
      </trkpt>
      <trkpt lat="44.26277" lon="7.0675">
        <ele>1879</ele>
        <time>2013-09-20T11:36:55Z</time>
      </trkpt>
      <trkpt lat="44.26291" lon="7.06721">
        <ele>1872</ele>
        <time>2013-09-20T11:37:03Z</time>
      </trkpt>
      <trkpt lat="44.26323" lon="7.06703">
        <ele>1863</ele>
        <time>2013-09-20T11:37:13Z</time>
      </trkpt>
      <trkpt lat="44.26352" lon="7.06684">
        <ele>1854</ele>
        <time>2013-09-20T11:37:23Z</time>
      </trkpt>
      <trkpt lat="44.26362" lon="7.06663">
        <ele>1848</ele>
        <time>2013-09-20T11:37:29Z</time>
      </trkpt>
      <trkpt lat="44.26384" lon="7.06666">
        <ele>1808</ele>
        <time>2013-09-20T11:38:11Z</time>
      </trkpt>
      <trkpt lat="44.26388" lon="7.06648">
        <ele>1801</ele>
        <time>2013-09-20T11:38:18Z</time>
      </trkpt>
      <trkpt lat="44.26405" lon="7.06629">
        <ele>1794</ele>
        <time>2013-09-20T11:38:27Z</time>
      </trkpt>
      <trkpt lat="44.26433" lon="7.06612">
        <ele>1786</ele>
        <time>2013-09-20T11:38:36Z</time>
      </trkpt>
      <trkpt lat="44.26464" lon="7.06579">
        <ele>1779</ele>
        <time>2013-09-20T11:38:46Z</time>
      </trkpt>
      <trkpt lat="44.26484" lon="7.06555">
        <ele>1773</ele>
        <time>2013-09-20T11:38:55Z</time>
      </trkpt>
      <trkpt lat="44.26485" lon="7.06502">
        <ele>1766</ele>
        <time>2013-09-20T11:39:04Z</time>
      </trkpt>
      <trkpt lat="44.26489" lon="7.06479">
        <ele>1764</ele>
        <time>2013-09-20T11:39:08Z</time>
      </trkpt>
      <trkpt lat="44.26495" lon="7.06445">
        <ele>1760</ele>
        <time>2013-09-20T11:39:14Z</time>
      </trkpt>
      <trkpt lat="44.26505" lon="7.06434">
        <ele>1758</ele>
        <time>2013-09-20T11:39:17Z</time>
      </trkpt>
      <trkpt lat="44.26515" lon="7.06405">
        <ele>1755</ele>
        <time>2013-09-20T11:39:23Z</time>
      </trkpt>
      <trkpt lat="44.26516" lon="7.06383">
        <ele>1752</ele>
        <time>2013-09-20T11:39:27Z</time>
      </trkpt>
      <trkpt lat="44.2652" lon="7.06348">
        <ele>1748</ele>
        <time>2013-09-20T11:39:35Z</time>
      </trkpt>
      <trkpt lat="44.26523" lon="7.06323">
        <ele>1745</ele>
        <time>2013-09-20T11:39:41Z</time>
      </trkpt>
      <trkpt lat="44.26532" lon="7.06309">
        <ele>1742</ele>
        <time>2013-09-20T11:39:46Z</time>
      </trkpt>
      <trkpt lat="44.26553" lon="7.06284">
        <ele>1738</ele>
        <time>2013-09-20T11:39:54Z</time>
      </trkpt>
      <trkpt lat="44.26574" lon="7.06255">
        <ele>1733</ele>
        <time>2013-09-20T11:40:03Z</time>
      </trkpt>
      <trkpt lat="44.26593" lon="7.06226">
        <ele>1730</ele>
        <time>2013-09-20T11:40:10Z</time>
      </trkpt>
      <trkpt lat="44.26598" lon="7.06197">
        <ele>1728</ele>
        <time>2013-09-20T11:40:15Z</time>
      </trkpt>
      <trkpt lat="44.26592" lon="7.06172">
        <ele>1726</ele>
        <time>2013-09-20T11:40:19Z</time>
      </trkpt>
      <trkpt lat="44.2659" lon="7.06136">
        <ele>1723</ele>
        <time>2013-09-20T11:40:26Z</time>
      </trkpt>
      <trkpt lat="44.26584" lon="7.06116">
        <ele>1721</ele>
        <time>2013-09-20T11:40:29Z</time>
      </trkpt>
      <trkpt lat="44.2658" lon="7.06101">
        <ele>1721</ele>
        <time>2013-09-20T11:40:31Z</time>
      </trkpt>
      <trkpt lat="44.26578" lon="7.0608">
        <ele>1719</ele>
        <time>2013-09-20T11:40:35Z</time>
      </trkpt>
      <trkpt lat="44.26577" lon="7.06063">
        <ele>1717</ele>
        <time>2013-09-20T11:40:40Z</time>
      </trkpt>
      <trkpt lat="44.26574" lon="7.06048">
        <ele>1710</ele>
        <time>2013-09-20T11:41:03Z</time>
      </trkpt>
      <trkpt lat="44.26564" lon="7.06043">
        <ele>1690</ele>
        <time>2013-09-20T11:43:05Z</time>
      </trkpt>
      <trkpt lat="44.26566" lon="7.0605">
        <ele>1689</ele>
        <time>2013-09-20T11:43:18Z</time>
      </trkpt>
      <trkpt lat="44.26567" lon="7.06035">
        <ele>1685</ele>
        <time>2013-09-20T11:44:19Z</time>
      </trkpt>
      <trkpt lat="44.26572" lon="7.06031">
        <ele>1684</ele>
        <time>2013-09-20T11:44:28Z</time>
      </trkpt>
      <trkpt lat="44.26567" lon="7.06049">
        <ele>1682</ele>
        <time>2013-09-20T11:45:14Z</time>
      </trkpt>
      <trkpt lat="44.26553" lon="7.06059">
        <ele>1682</ele>
        <time>2013-09-20T11:45:21Z</time>
      </trkpt>
      <trkpt lat="44.26558" lon="7.06049">
        <ele>1682</ele>
        <time>2013-09-20T11:45:39Z</time>
      </trkpt>
      <trkpt lat="44.26563" lon="7.06044">
        <ele>1681</ele>
        <time>2013-09-20T11:45:49Z</time>
      </trkpt>
      <trkpt lat="44.2657" lon="7.06043">
        <ele>1681</ele>
        <time>2013-09-20T11:46:01Z</time>
      </trkpt>
      <trkpt lat="44.26565" lon="7.06033">
        <ele>1681</ele>
        <time>2013-09-20T11:46:10Z</time>
      </trkpt>
      <trkpt lat="44.26562" lon="7.06013">
        <ele>1681</ele>
        <time>2013-09-20T11:46:14Z</time>
      </trkpt>
      <trkpt lat="44.2656" lon="7.05994">
        <ele>1681</ele>
        <time>2013-09-20T11:46:18Z</time>
      </trkpt>
      <trkpt lat="44.26551" lon="7.05965">
        <ele>1681</ele>
        <time>2013-09-20T11:46:26Z</time>
      </trkpt>
      <trkpt lat="44.26545" lon="7.05952">
        <ele>1680</ele>
        <time>2013-09-20T11:46:30Z</time>
      </trkpt>
      <trkpt lat="44.2654" lon="7.0593">
        <ele>1680</ele>
        <time>2013-09-20T11:46:34Z</time>
      </trkpt>
      <trkpt lat="44.26532" lon="7.05886">
        <ele>1680</ele>
        <time>2013-09-20T11:46:41Z</time>
      </trkpt>
      <trkpt lat="44.26527" lon="7.05858">
        <ele>1680</ele>
        <time>2013-09-20T11:46:48Z</time>
      </trkpt>
      <trkpt lat="44.26522" lon="7.0584">
        <ele>1680</ele>
        <time>2013-09-20T11:46:56Z</time>
      </trkpt>
      <trkpt lat="44.26519" lon="7.0583">
        <ele>1680</ele>
        <time>2013-09-20T11:47:00Z</time>
      </trkpt>
      <trkpt lat="44.26512" lon="7.0581">
        <ele>1680</ele>
        <time>2013-09-20T11:47:05Z</time>
      </trkpt>
      <trkpt lat="44.26504" lon="7.05776">
        <ele>1680</ele>
        <time>2013-09-20T11:47:13Z</time>
      </trkpt>
      <trkpt lat="44.26502" lon="7.05757">
        <ele>1680</ele>
        <time>2013-09-20T11:47:17Z</time>
      </trkpt>
      <trkpt lat="44.265" lon="7.05736">
        <ele>1679</ele>
        <time>2013-09-20T11:47:22Z</time>
      </trkpt>
      <trkpt lat="44.26496" lon="7.05718">
        <ele>1679</ele>
        <time>2013-09-20T11:47:26Z</time>
      </trkpt>
      <trkpt lat="44.26483" lon="7.05703">
        <ele>1679</ele>
        <time>2013-09-20T11:47:30Z</time>
      </trkpt>
      <trkpt lat="44.26455" lon="7.05662">
        <ele>1679</ele>
        <time>2013-09-20T11:47:35Z</time>
      </trkpt>
      <trkpt lat="44.26441" lon="7.05641">
        <ele>1679</ele>
        <time>2013-09-20T11:47:38Z</time>
      </trkpt>
      <trkpt lat="44.26413" lon="7.05605">
        <ele>1679</ele>
        <time>2013-09-20T11:47:43Z</time>
      </trkpt>
      <trkpt lat="44.26398" lon="7.05573">
        <ele>1679</ele>
        <time>2013-09-20T11:47:48Z</time>
      </trkpt>
      <trkpt lat="44.26384" lon="7.05552">
        <ele>1679</ele>
        <time>2013-09-20T11:47:51Z</time>
      </trkpt>
      <trkpt lat="44.26324" lon="7.05474">
        <ele>1678</ele>
        <time>2013-09-20T11:48:01Z</time>
      </trkpt>
      <trkpt lat="44.26318" lon="7.05465">
        <ele>1678</ele>
        <time>2013-09-20T11:48:04Z</time>
      </trkpt>
      <trkpt lat="44.26326" lon="7.05454">
        <ele>1676</ele>
        <time>2013-09-20T11:48:56Z</time>
      </trkpt>
      <trkpt lat="44.26322" lon="7.05429">
        <ele>1676</ele>
        <time>2013-09-20T11:49:06Z</time>
      </trkpt>
      <trkpt lat="44.26325" lon="7.05425">
        <ele>1676</ele>
        <time>2013-09-20T11:49:09Z</time>
      </trkpt>
      <trkpt lat="44.26323" lon="7.05419">
        <ele>1675</ele>
        <time>2013-09-20T11:49:17Z</time>
      </trkpt>
      <trkpt lat="44.2632" lon="7.05415">
        <ele>1674</ele>
        <time>2013-09-20T11:49:23Z</time>
      </trkpt>
      <trkpt lat="44.26318" lon="7.05412">
        <ele>1674</ele>
        <time>2013-09-20T11:49:27Z</time>
      </trkpt>
      <trkpt lat="44.26314" lon="7.05407">
        <ele>1672</ele>
        <time>2013-09-20T11:49:36Z</time>
      </trkpt>
      <trkpt lat="44.26316" lon="7.05407">
        <ele>1667</ele>
        <time>2013-09-20T11:49:49Z</time>
      </trkpt>
      <trkpt lat="44.26323" lon="7.05405">
        <ele>1660</ele>
        <time>2013-09-20T11:50:01Z</time>
      </trkpt>
      <trkpt lat="44.26324" lon="7.05413">
        <ele>1654</ele>
        <time>2013-09-20T11:50:10Z</time>
      </trkpt>
      <trkpt lat="44.26329" lon="7.05437">
        <ele>1647</ele>
        <time>2013-09-20T11:50:18Z</time>
      </trkpt>
      <trkpt lat="44.2633" lon="7.05459">
        <ele>1640</ele>
        <time>2013-09-20T11:50:27Z</time>
      </trkpt>
      <trkpt lat="44.26326" lon="7.0548">
        <ele>1630</ele>
        <time>2013-09-20T11:50:37Z</time>
      </trkpt>
      <trkpt lat="44.26323" lon="7.05494">
        <ele>1623</ele>
        <time>2013-09-20T11:50:44Z</time>
      </trkpt>
      <trkpt lat="44.26313" lon="7.05499">
        <ele>1618</ele>
        <time>2013-09-20T11:50:50Z</time>
      </trkpt>
      <trkpt lat="44.26313" lon="7.0551">
        <ele>1612</ele>
        <time>2013-09-20T11:50:56Z</time>
      </trkpt>
      <trkpt lat="44.26312" lon="7.0552">
        <ele>1604</ele>
        <time>2013-09-20T11:51:06Z</time>
      </trkpt>
      <trkpt lat="44.26312" lon="7.05527">
        <ele>1600</ele>
        <time>2013-09-20T11:51:12Z</time>
      </trkpt>
      <trkpt lat="44.26313" lon="7.05538">
        <ele>1595</ele>
        <time>2013-09-20T11:51:19Z</time>
      </trkpt>
      <trkpt lat="44.2631" lon="7.05542">
        <ele>1593</ele>
        <time>2013-09-20T11:51:22Z</time>
      </trkpt>
      <trkpt lat="44.26304" lon="7.05543">
        <ele>1591</ele>
        <time>2013-09-20T11:51:26Z</time>
      </trkpt>
      <trkpt lat="44.26299" lon="7.05538">
        <ele>1588</ele>
        <time>2013-09-20T11:51:31Z</time>
      </trkpt>
      <trkpt lat="44.26295" lon="7.05529">
        <ele>1584</ele>
        <time>2013-09-20T11:51:37Z</time>
      </trkpt>
      <trkpt lat="44.26291" lon="7.05519">
        <ele>1580</ele>
        <time>2013-09-20T11:51:44Z</time>
      </trkpt>
      <trkpt lat="44.26284" lon="7.05507">
        <ele>1575</ele>
        <time>2013-09-20T11:51:55Z</time>
      </trkpt>
      <trkpt lat="44.26283" lon="7.05501">
        <ele>1573</ele>
        <time>2013-09-20T11:51:59Z</time>
      </trkpt>
      <trkpt lat="44.26281" lon="7.05498">
        <ele>1572</ele>
        <time>2013-09-20T11:52:02Z</time>
      </trkpt>
      <trkpt lat="44.26279" lon="7.05485">
        <ele>1567</ele>
        <time>2013-09-20T11:52:13Z</time>
      </trkpt>
      <trkpt lat="44.26281" lon="7.05481">
        <ele>1565</ele>
        <time>2013-09-20T11:52:18Z</time>
      </trkpt>
      <trkpt lat="44.26281" lon="7.05471">
        <ele>1561</ele>
        <time>2013-09-20T11:52:27Z</time>
      </trkpt>
      <trkpt lat="44.26287" lon="7.05464">
        <ele>1557</ele>
        <time>2013-09-20T11:52:37Z</time>
      </trkpt>
      <trkpt lat="44.26287" lon="7.05458">
        <ele>1555</ele>
        <time>2013-09-20T11:52:43Z</time>
      </trkpt>
      <trkpt lat="44.26284" lon="7.05455">
        <ele>1554</ele>
        <time>2013-09-20T11:52:46Z</time>
      </trkpt>
      <trkpt lat="44.26281" lon="7.05444">
        <ele>1550</ele>
        <time>2013-09-20T11:52:55Z</time>
      </trkpt>
      <trkpt lat="44.26281" lon="7.05442">
        <ele>1549</ele>
        <time>2013-09-20T11:52:58Z</time>
      </trkpt>
      <trkpt lat="44.26278" lon="7.05433">
        <ele>1546</ele>
        <time>2013-09-20T11:53:07Z</time>
      </trkpt>
      <trkpt lat="44.26274" lon="7.05425">
        <ele>1544</ele>
        <time>2013-09-20T11:53:14Z</time>
      </trkpt>
      <trkpt lat="44.26268" lon="7.05413">
        <ele>1541</ele>
        <time>2013-09-20T11:53:24Z</time>
      </trkpt>
      <trkpt lat="44.26262" lon="7.05409">
        <ele>1539</ele>
        <time>2013-09-20T11:53:31Z</time>
      </trkpt>
      <trkpt lat="44.26256" lon="7.05407">
        <ele>1538</ele>
        <time>2013-09-20T11:53:36Z</time>
      </trkpt>
      <trkpt lat="44.26244" lon="7.05402">
        <ele>1536</ele>
        <time>2013-09-20T11:53:47Z</time>
      </trkpt>
      <trkpt lat="44.26234" lon="7.054">
        <ele>1535</ele>
        <time>2013-09-20T11:53:59Z</time>
      </trkpt>
      <trkpt lat="44.26219" lon="7.05396">
        <ele>1534</ele>
        <time>2013-09-20T11:54:12Z</time>
      </trkpt>
      <trkpt lat="44.26215" lon="7.05396">
        <ele>1533</ele>
        <time>2013-09-20T11:54:18Z</time>
      </trkpt>
      <trkpt lat="44.26206" lon="7.0539">
        <ele>1532</ele>
        <time>2013-09-20T11:54:36Z</time>
      </trkpt>
      <trkpt lat="44.262" lon="7.05384">
        <ele>1532</ele>
        <time>2013-09-20T11:54:42Z</time>
      </trkpt>
      <trkpt lat="44.26189" lon="7.05378">
        <ele>1532</ele>
        <time>2013-09-20T11:54:49Z</time>
      </trkpt>
      <trkpt lat="44.26177" lon="7.05375">
        <ele>1532</ele>
        <time>2013-09-20T11:54:58Z</time>
      </trkpt>
      <trkpt lat="44.26175" lon="7.05376">
        <ele>1532</ele>
        <time>2013-09-20T11:55:07Z</time>
      </trkpt>
      <trkpt lat="44.26168" lon="7.0537">
        <ele>1532</ele>
        <time>2013-09-20T11:55:17Z</time>
      </trkpt>
      <trkpt lat="44.2616" lon="7.05363">
        <ele>1531</ele>
        <time>2013-09-20T11:55:27Z</time>
      </trkpt>
      <trkpt lat="44.2615" lon="7.05355">
        <ele>1531</ele>
        <time>2013-09-20T11:55:39Z</time>
      </trkpt>
      <trkpt lat="44.26146" lon="7.05351">
        <ele>1531</ele>
        <time>2013-09-20T11:55:45Z</time>
      </trkpt>
      <trkpt lat="44.26142" lon="7.0534">
        <ele>1530</ele>
        <time>2013-09-20T11:56:10Z</time>
      </trkpt>
      <trkpt lat="44.26131" lon="7.05343">
        <ele>1530</ele>
        <time>2013-09-20T11:56:39Z</time>
      </trkpt>
      <trkpt lat="44.26122" lon="7.05342">
        <ele>1530</ele>
        <time>2013-09-20T11:56:44Z</time>
      </trkpt>
      <trkpt lat="44.26112" lon="7.05341">
        <ele>1530</ele>
        <time>2013-09-20T11:56:50Z</time>
      </trkpt>
      <trkpt lat="44.26097" lon="7.05344">
        <ele>1529</ele>
        <time>2013-09-20T11:57:00Z</time>
      </trkpt>
      <trkpt lat="44.26092" lon="7.05342">
        <ele>1529</ele>
        <time>2013-09-20T11:57:04Z</time>
      </trkpt>
      <trkpt lat="44.26084" lon="7.05334">
        <ele>1529</ele>
        <time>2013-09-20T11:57:13Z</time>
      </trkpt>
      <trkpt lat="44.26085" lon="7.0533">
        <ele>1529</ele>
        <time>2013-09-20T11:57:18Z</time>
      </trkpt>
      <trkpt lat="44.26084" lon="7.05325">
        <ele>1529</ele>
        <time>2013-09-20T11:57:22Z</time>
      </trkpt>
      <trkpt lat="44.2608" lon="7.0532">
        <ele>1529</ele>
        <time>2013-09-20T11:57:26Z</time>
      </trkpt>
      <trkpt lat="44.26076" lon="7.05315">
        <ele>1529</ele>
        <time>2013-09-20T11:57:31Z</time>
      </trkpt>
      <trkpt lat="44.26069" lon="7.0531">
        <ele>1529</ele>
        <time>2013-09-20T11:57:37Z</time>
      </trkpt>
      <trkpt lat="44.26067" lon="7.05305">
        <ele>1529</ele>
        <time>2013-09-20T11:57:41Z</time>
      </trkpt>
      <trkpt lat="44.26064" lon="7.05299">
        <ele>1529</ele>
        <time>2013-09-20T11:57:48Z</time>
      </trkpt>
      <trkpt lat="44.26061" lon="7.05296">
        <ele>1529</ele>
        <time>2013-09-20T11:57:54Z</time>
      </trkpt>
      <trkpt lat="44.26057" lon="7.0529">
        <ele>1529</ele>
        <time>2013-09-20T11:58:03Z</time>
      </trkpt>
      <trkpt lat="44.26052" lon="7.05282">
        <ele>1528</ele>
        <time>2013-09-20T11:58:12Z</time>
      </trkpt>
      <trkpt lat="44.26038" lon="7.05271">
        <ele>1528</ele>
        <time>2013-09-20T11:58:24Z</time>
      </trkpt>
      <trkpt lat="44.26033" lon="7.05267">
        <ele>1528</ele>
        <time>2013-09-20T11:58:28Z</time>
      </trkpt>
      <trkpt lat="44.26015" lon="7.05259">
        <ele>1528</ele>
        <time>2013-09-20T11:58:39Z</time>
      </trkpt>
      <trkpt lat="44.26001" lon="7.05249">
        <ele>1528</ele>
        <time>2013-09-20T11:58:50Z</time>
      </trkpt>
      <trkpt lat="44.25997" lon="7.05244">
        <ele>1528</ele>
        <time>2013-09-20T11:58:54Z</time>
      </trkpt>
      <trkpt lat="44.25997" lon="7.05239">
        <ele>1528</ele>
        <time>2013-09-20T11:58:58Z</time>
      </trkpt>
      <trkpt lat="44.2599" lon="7.05231">
        <ele>1528</ele>
        <time>2013-09-20T11:59:04Z</time>
      </trkpt>
      <trkpt lat="44.25988" lon="7.05224">
        <ele>1528</ele>
        <time>2013-09-20T11:59:09Z</time>
      </trkpt>
      <trkpt lat="44.25979" lon="7.05213">
        <ele>1528</ele>
        <time>2013-09-20T11:59:18Z</time>
      </trkpt>
      <trkpt lat="44.25972" lon="7.05207">
        <ele>1528</ele>
        <time>2013-09-20T11:59:23Z</time>
      </trkpt>
      <trkpt lat="44.25955" lon="7.052">
        <ele>1528</ele>
        <time>2013-09-20T11:59:32Z</time>
      </trkpt>
      <trkpt lat="44.25953" lon="7.05196">
        <ele>1528</ele>
        <time>2013-09-20T11:59:37Z</time>
      </trkpt>
      <trkpt lat="44.25941" lon="7.05195">
        <ele>1528</ele>
        <time>2013-09-20T11:59:47Z</time>
      </trkpt>
      <trkpt lat="44.25946" lon="7.05199">
        <ele>1528</ele>
        <time>2013-09-20T11:59:54Z</time>
      </trkpt>
      <trkpt lat="44.25939" lon="7.05198">
        <ele>1528</ele>
        <time>2013-09-20T11:59:59Z</time>
      </trkpt>
      <trkpt lat="44.25956" lon="7.05207">
        <ele>1529</ele>
        <time>2013-09-20T12:00:13Z</time>
      </trkpt>
      <trkpt lat="44.25958" lon="7.05214">
        <ele>1529</ele>
        <time>2013-09-20T12:00:24Z</time>
      </trkpt>
      <trkpt lat="44.25961" lon="7.05225">
        <ele>1529</ele>
        <time>2013-09-20T12:00:32Z</time>
      </trkpt>
      <trkpt lat="44.25956" lon="7.05228">
        <ele>1529</ele>
        <time>2013-09-20T12:00:36Z</time>
      </trkpt>
      <trkpt lat="44.25962" lon="7.05241">
        <ele>1529</ele>
        <time>2013-09-20T12:00:44Z</time>
      </trkpt>
      <trkpt lat="44.25971" lon="7.05249">
        <ele>1529</ele>
        <time>2013-09-20T12:00:48Z</time>
      </trkpt>
      <trkpt lat="44.25977" lon="7.05258">
        <ele>1529</ele>
        <time>2013-09-20T12:00:54Z</time>
      </trkpt>
      <trkpt lat="44.25979" lon="7.05266">
        <ele>1529</ele>
        <time>2013-09-20T12:01:00Z</time>
      </trkpt>
      <trkpt lat="44.25982" lon="7.05271">
        <ele>1529</ele>
        <time>2013-09-20T12:01:04Z</time>
      </trkpt>
      <trkpt lat="44.25982" lon="7.05274">
        <ele>1529</ele>
        <time>2013-09-20T12:01:08Z</time>
      </trkpt>
      <trkpt lat="44.25994" lon="7.05287">
        <ele>1529</ele>
        <time>2013-09-20T12:01:18Z</time>
      </trkpt>
      <trkpt lat="44.25999" lon="7.05297">
        <ele>1529</ele>
        <time>2013-09-20T12:01:25Z</time>
      </trkpt>
      <trkpt lat="44.26003" lon="7.05306">
        <ele>1529</ele>
        <time>2013-09-20T12:01:30Z</time>
      </trkpt>
      <trkpt lat="44.26007" lon="7.05314">
        <ele>1529</ele>
        <time>2013-09-20T12:01:35Z</time>
      </trkpt>
      <trkpt lat="44.26013" lon="7.0532">
        <ele>1529</ele>
        <time>2013-09-20T12:01:38Z</time>
      </trkpt>
      <trkpt lat="44.26012" lon="7.0532">
        <ele>1529</ele>
        <time>2013-09-20T12:01:46Z</time>
      </trkpt>
      <trkpt lat="44.26004" lon="7.05307">
        <ele>1529</ele>
        <time>2013-09-20T12:02:00Z</time>
      </trkpt>
      <trkpt lat="44.25999" lon="7.05303">
        <ele>1529</ele>
        <time>2013-09-20T12:02:04Z</time>
      </trkpt>
      <trkpt lat="44.25991" lon="7.05295">
        <ele>1529</ele>
        <time>2013-09-20T12:02:17Z</time>
      </trkpt>
      <trkpt lat="44.25985" lon="7.05291">
        <ele>1529</ele>
        <time>2013-09-20T12:02:26Z</time>
      </trkpt>
      <trkpt lat="44.25984" lon="7.05289">
        <ele>1529</ele>
        <time>2013-09-20T12:02:38Z</time>
      </trkpt>
      <trkpt lat="44.2597" lon="7.05272">
        <ele>1529</ele>
        <time>2013-09-20T12:03:04Z</time>
      </trkpt>
      <trkpt lat="44.25955" lon="7.05268">
        <ele>1529</ele>
        <time>2013-09-20T12:03:14Z</time>
      </trkpt>
      <trkpt lat="44.25944" lon="7.05265">
        <ele>1529</ele>
        <time>2013-09-20T12:03:25Z</time>
      </trkpt>
      <trkpt lat="44.2594" lon="7.05265">
        <ele>1529</ele>
        <time>2013-09-20T12:03:38Z</time>
      </trkpt>
      <trkpt lat="44.25932" lon="7.05261">
        <ele>1529</ele>
        <time>2013-09-20T12:03:44Z</time>
      </trkpt>
      <trkpt lat="44.2591" lon="7.0526">
        <ele>1529</ele>
        <time>2013-09-20T12:03:54Z</time>
      </trkpt>
      <trkpt lat="44.25896" lon="7.05258">
        <ele>1529</ele>
        <time>2013-09-20T12:04:04Z</time>
      </trkpt>
      <trkpt lat="44.25877" lon="7.05263">
        <ele>1529</ele>
        <time>2013-09-20T12:04:19Z</time>
      </trkpt>
      <trkpt lat="44.25861" lon="7.05261">
        <ele>1529</ele>
        <time>2013-09-20T12:04:29Z</time>
      </trkpt>
      <trkpt lat="44.25861" lon="7.05259">
        <ele>1529</ele>
        <time>2013-09-20T12:04:33Z</time>
      </trkpt>
      <trkpt lat="44.25853" lon="7.05254">
        <ele>1529</ele>
        <time>2013-09-20T12:04:42Z</time>
      </trkpt>
      <trkpt lat="44.2583" lon="7.05242">
        <ele>1529</ele>
        <time>2013-09-20T12:04:53Z</time>
      </trkpt>
      <trkpt lat="44.25834" lon="7.05238">
        <ele>1529</ele>
        <time>2013-09-20T12:04:56Z</time>
      </trkpt>
      <trkpt lat="44.25835" lon="7.05222">
        <ele>1529</ele>
        <time>2013-09-20T12:05:03Z</time>
      </trkpt>
      <trkpt lat="44.25837" lon="7.05216">
        <ele>1529</ele>
        <time>2013-09-20T12:05:06Z</time>
      </trkpt>
      <trkpt lat="44.25845" lon="7.05208">
        <ele>1529</ele>
        <time>2013-09-20T12:05:11Z</time>
      </trkpt>
      <trkpt lat="44.25847" lon="7.05194">
        <ele>1529</ele>
        <time>2013-09-20T12:05:18Z</time>
      </trkpt>
      <trkpt lat="44.25839" lon="7.05181">
        <ele>1529</ele>
        <time>2013-09-20T12:05:26Z</time>
      </trkpt>
      <trkpt lat="44.25847" lon="7.05159">
        <ele>1529</ele>
        <time>2013-09-20T12:05:35Z</time>
      </trkpt>
      <trkpt lat="44.25853" lon="7.05152">
        <ele>1530</ele>
        <time>2013-09-20T12:05:42Z</time>
      </trkpt>
      <trkpt lat="44.2585" lon="7.05146">
        <ele>1530</ele>
        <time>2013-09-20T12:05:47Z</time>
      </trkpt>
      <trkpt lat="44.25846" lon="7.05151">
        <ele>1530</ele>
        <time>2013-09-20T12:05:52Z</time>
      </trkpt>
      <trkpt lat="44.2585" lon="7.05151">
        <ele>1530</ele>
        <time>2013-09-20T12:05:57Z</time>
      </trkpt>
      <trkpt lat="44.2585" lon="7.05149">
        <ele>1530</ele>
        <time>2013-09-20T12:06:00Z</time>
      </trkpt>
      <trkpt lat="44.2585" lon="7.05152">
        <ele>1530</ele>
        <time>2013-09-20T12:06:03Z</time>
      </trkpt>
      <trkpt lat="44.25852" lon="7.05146">
        <ele>1530</ele>
        <time>2013-09-20T12:06:07Z</time>
      </trkpt>
      <trkpt lat="44.25853" lon="7.05129">
        <ele>1530</ele>
        <time>2013-09-20T12:06:13Z</time>
      </trkpt>
      <trkpt lat="44.25847" lon="7.05102">
        <ele>1531</ele>
        <time>2013-09-20T12:06:21Z</time>
      </trkpt>
      <trkpt lat="44.25842" lon="7.05084">
        <ele>1531</ele>
        <time>2013-09-20T12:06:26Z</time>
      </trkpt>
      <trkpt lat="44.25848" lon="7.0506">
        <ele>1533</ele>
        <time>2013-09-20T12:06:33Z</time>
      </trkpt>
      <trkpt lat="44.25842" lon="7.0504">
        <ele>1535</ele>
        <time>2013-09-20T12:06:39Z</time>
      </trkpt>
      <trkpt lat="44.25843" lon="7.05024">
        <ele>1536</ele>
        <time>2013-09-20T12:06:43Z</time>
      </trkpt>
      <trkpt lat="44.25843" lon="7.05013">
        <ele>1538</ele>
        <time>2013-09-20T12:06:46Z</time>
      </trkpt>
      <trkpt lat="44.25851" lon="7.04993">
        <ele>1540</ele>
        <time>2013-09-20T12:06:52Z</time>
      </trkpt>
      <trkpt lat="44.2585" lon="7.04983">
        <ele>1542</ele>
        <time>2013-09-20T12:06:55Z</time>
      </trkpt>
      <trkpt lat="44.25845" lon="7.04963">
        <ele>1545</ele>
        <time>2013-09-20T12:07:01Z</time>
      </trkpt>
      <trkpt lat="44.25842" lon="7.04925">
        <ele>1551</ele>
        <time>2013-09-20T12:07:11Z</time>
      </trkpt>
      <trkpt lat="44.25829" lon="7.04897">
        <ele>1557</ele>
        <time>2013-09-20T12:07:18Z</time>
      </trkpt>
      <trkpt lat="44.25833" lon="7.04879">
        <ele>1563</ele>
        <time>2013-09-20T12:07:25Z</time>
      </trkpt>
      <trkpt lat="44.25838" lon="7.0486">
        <ele>1568</ele>
        <time>2013-09-20T12:07:31Z</time>
      </trkpt>
      <trkpt lat="44.25839" lon="7.04849">
        <ele>1571</ele>
        <time>2013-09-20T12:07:35Z</time>
      </trkpt>
      <trkpt lat="44.25844" lon="7.0483">
        <ele>1578</ele>
        <time>2013-09-20T12:07:43Z</time>
      </trkpt>
      <trkpt lat="44.25847" lon="7.04816">
        <ele>1582</ele>
        <time>2013-09-20T12:07:49Z</time>
      </trkpt>
      <trkpt lat="44.25847" lon="7.04796">
        <ele>1586</ele>
        <time>2013-09-20T12:07:56Z</time>
      </trkpt>
      <trkpt lat="44.25847" lon="7.04776">
        <ele>1591</ele>
        <time>2013-09-20T12:08:03Z</time>
      </trkpt>
      <trkpt lat="44.25848" lon="7.04754">
        <ele>1595</ele>
        <time>2013-09-20T12:08:10Z</time>
      </trkpt>
      <trkpt lat="44.25849" lon="7.04724">
        <ele>1601</ele>
        <time>2013-09-20T12:08:20Z</time>
      </trkpt>
      <trkpt lat="44.25851" lon="7.04696">
        <ele>1605</ele>
        <time>2013-09-20T12:08:29Z</time>
      </trkpt>
      <trkpt lat="44.25863" lon="7.04659">
        <ele>1612</ele>
        <time>2013-09-20T12:08:44Z</time>
      </trkpt>
      <trkpt lat="44.25872" lon="7.04635">
        <ele>1616</ele>
        <time>2013-09-20T12:08:57Z</time>
      </trkpt>
      <trkpt lat="44.25876" lon="7.04626">
        <ele>1618</ele>
        <time>2013-09-20T12:09:02Z</time>
      </trkpt>
      <trkpt lat="44.25878" lon="7.04623">
        <ele>1618</ele>
        <time>2013-09-20T12:09:04Z</time>
      </trkpt>
      <trkpt lat="44.25881" lon="7.04613">
        <ele>1619</ele>
        <time>2013-09-20T12:09:10Z</time>
      </trkpt>
      <trkpt lat="44.25885" lon="7.04596">
        <ele>1621</ele>
        <time>2013-09-20T12:09:20Z</time>
      </trkpt>
      <trkpt lat="44.25888" lon="7.04586">
        <ele>1623</ele>
        <time>2013-09-20T12:09:27Z</time>
      </trkpt>
      <trkpt lat="44.25889" lon="7.04577">
        <ele>1624</ele>
        <time>2013-09-20T12:09:33Z</time>
      </trkpt>
      <trkpt lat="44.2589" lon="7.04568">
        <ele>1625</ele>
        <time>2013-09-20T12:09:39Z</time>
      </trkpt>
      <trkpt lat="44.25893" lon="7.04549">
        <ele>1627</ele>
        <time>2013-09-20T12:09:52Z</time>
      </trkpt>
      <trkpt lat="44.25894" lon="7.04543">
        <ele>1628</ele>
        <time>2013-09-20T12:09:57Z</time>
      </trkpt>
      <trkpt lat="44.25896" lon="7.04533">
        <ele>1629</ele>
        <time>2013-09-20T12:10:03Z</time>
      </trkpt>
      <trkpt lat="44.25898" lon="7.04526">
        <ele>1629</ele>
        <time>2013-09-20T12:10:08Z</time>
      </trkpt>
      <trkpt lat="44.25898" lon="7.04513">
        <ele>1631</ele>
        <time>2013-09-20T12:10:15Z</time>
      </trkpt>
      <trkpt lat="44.25893" lon="7.04511">
        <ele>1631</ele>
        <time>2013-09-20T12:10:21Z</time>
      </trkpt>
      <trkpt lat="44.25874" lon="7.04513">
        <ele>1643</ele>
        <time>2013-09-20T12:11:27Z</time>
      </trkpt>
      <trkpt lat="44.25879" lon="7.04514">
        <ele>1643</ele>
        <time>2013-09-20T12:11:34Z</time>
      </trkpt>
      <trkpt lat="44.25867" lon="7.04512">
        <ele>1646</ele>
        <time>2013-09-20T12:12:11Z</time>
      </trkpt>
      <trkpt lat="44.25871" lon="7.04511">
        <ele>1646</ele>
        <time>2013-09-20T12:12:33Z</time>
      </trkpt>
      <trkpt lat="44.25868" lon="7.04508">
        <ele>1647</ele>
        <time>2013-09-20T12:12:55Z</time>
      </trkpt>
      <trkpt lat="44.25849" lon="7.04522">
        <ele>1647</ele>
        <time>2013-09-20T12:14:27Z</time>
      </trkpt>
      <trkpt lat="44.25844" lon="7.04533">
        <ele>1647</ele>
        <time>2013-09-20T12:14:36Z</time>
      </trkpt>
      <trkpt lat="44.25839" lon="7.04551">
        <ele>1647</ele>
        <time>2013-09-20T12:14:49Z</time>
      </trkpt>
      <trkpt lat="44.25832" lon="7.04563">
        <ele>1647</ele>
        <time>2013-09-20T12:14:59Z</time>
      </trkpt>
      <trkpt lat="44.2582" lon="7.04574">
        <ele>1647</ele>
        <time>2013-09-20T12:15:12Z</time>
      </trkpt>
      <trkpt lat="44.25813" lon="7.04588">
        <ele>1647</ele>
        <time>2013-09-20T12:15:23Z</time>
      </trkpt>
      <trkpt lat="44.2581" lon="7.04595">
        <ele>1647</ele>
        <time>2013-09-20T12:15:29Z</time>
      </trkpt>
      <trkpt lat="44.25807" lon="7.04601">
        <ele>1647</ele>
        <time>2013-09-20T12:15:34Z</time>
      </trkpt>
      <trkpt lat="44.25804" lon="7.04615">
        <ele>1648</ele>
        <time>2013-09-20T12:15:43Z</time>
      </trkpt>
      <trkpt lat="44.258" lon="7.04626">
        <ele>1649</ele>
        <time>2013-09-20T12:15:51Z</time>
      </trkpt>
      <trkpt lat="44.25799" lon="7.04636">
        <ele>1649</ele>
        <time>2013-09-20T12:15:57Z</time>
      </trkpt>
      <trkpt lat="44.25798" lon="7.0465">
        <ele>1651</ele>
        <time>2013-09-20T12:16:07Z</time>
      </trkpt>
      <trkpt lat="44.25796" lon="7.04668">
        <ele>1652</ele>
        <time>2013-09-20T12:16:18Z</time>
      </trkpt>
      <trkpt lat="44.2579" lon="7.04675">
        <ele>1653</ele>
        <time>2013-09-20T12:16:24Z</time>
      </trkpt>
      <trkpt lat="44.25782" lon="7.04683">
        <ele>1654</ele>
        <time>2013-09-20T12:16:31Z</time>
      </trkpt>
      <trkpt lat="44.25778" lon="7.0469">
        <ele>1655</ele>
        <time>2013-09-20T12:16:36Z</time>
      </trkpt>
      <trkpt lat="44.25776" lon="7.04697">
        <ele>1655</ele>
        <time>2013-09-20T12:16:40Z</time>
      </trkpt>
      <trkpt lat="44.25772" lon="7.04703">
        <ele>1656</ele>
        <time>2013-09-20T12:16:45Z</time>
      </trkpt>
      <trkpt lat="44.25768" lon="7.04716">
        <ele>1657</ele>
        <time>2013-09-20T12:16:53Z</time>
      </trkpt>
      <trkpt lat="44.25766" lon="7.04721">
        <ele>1658</ele>
        <time>2013-09-20T12:16:57Z</time>
      </trkpt>
      <trkpt lat="44.25765" lon="7.04726">
        <ele>1658</ele>
        <time>2013-09-20T12:17:00Z</time>
      </trkpt>
      <trkpt lat="44.25764" lon="7.04728">
        <ele>1658</ele>
        <time>2013-09-20T12:17:03Z</time>
      </trkpt>
      <trkpt lat="44.25756" lon="7.04736">
        <ele>1660</ele>
        <time>2013-09-20T12:17:11Z</time>
      </trkpt>
      <trkpt lat="44.25751" lon="7.04743">
        <ele>1661</ele>
        <time>2013-09-20T12:17:17Z</time>
      </trkpt>
      <trkpt lat="44.25747" lon="7.04749">
        <ele>1662</ele>
        <time>2013-09-20T12:17:22Z</time>
      </trkpt>
      <trkpt lat="44.2574" lon="7.04761">
        <ele>1664</ele>
        <time>2013-09-20T12:17:32Z</time>
      </trkpt>
      <trkpt lat="44.25737" lon="7.04764">
        <ele>1664</ele>
        <time>2013-09-20T12:17:35Z</time>
      </trkpt>
      <trkpt lat="44.25735" lon="7.04767">
        <ele>1665</ele>
        <time>2013-09-20T12:17:38Z</time>
      </trkpt>
      <trkpt lat="44.25729" lon="7.04773">
        <ele>1667</ele>
        <time>2013-09-20T12:17:45Z</time>
      </trkpt>
      <trkpt lat="44.25727" lon="7.04775">
        <ele>1667</ele>
        <time>2013-09-20T12:17:48Z</time>
      </trkpt>
      <trkpt lat="44.25725" lon="7.04781">
        <ele>1668</ele>
        <time>2013-09-20T12:17:52Z</time>
      </trkpt>
      <trkpt lat="44.25723" lon="7.04785">
        <ele>1669</ele>
        <time>2013-09-20T12:17:56Z</time>
      </trkpt>
      <trkpt lat="44.2571" lon="7.04789">
        <ele>1671</ele>
        <time>2013-09-20T12:18:05Z</time>
      </trkpt>
      <trkpt lat="44.25704" lon="7.0479">
        <ele>1672</ele>
        <time>2013-09-20T12:18:10Z</time>
      </trkpt>
      <trkpt lat="44.25695" lon="7.04791">
        <ele>1675</ele>
        <time>2013-09-20T12:18:20Z</time>
      </trkpt>
      <trkpt lat="44.2569" lon="7.04795">
        <ele>1677</ele>
        <time>2013-09-20T12:18:26Z</time>
      </trkpt>
      <trkpt lat="44.25686" lon="7.04797">
        <ele>1679</ele>
        <time>2013-09-20T12:18:32Z</time>
      </trkpt>
      <trkpt lat="44.25682" lon="7.048">
        <ele>1680</ele>
        <time>2013-09-20T12:18:36Z</time>
      </trkpt>
      <trkpt lat="44.25672" lon="7.04811">
        <ele>1683</ele>
        <time>2013-09-20T12:18:46Z</time>
      </trkpt>
      <trkpt lat="44.25664" lon="7.0483">
        <ele>1686</ele>
        <time>2013-09-20T12:18:57Z</time>
      </trkpt>
      <trkpt lat="44.25652" lon="7.04839">
        <ele>1690</ele>
        <time>2013-09-20T12:19:09Z</time>
      </trkpt>
      <trkpt lat="44.2564" lon="7.04845">
        <ele>1694</ele>
        <time>2013-09-20T12:19:20Z</time>
      </trkpt>
      <trkpt lat="44.25631" lon="7.04853">
        <ele>1696</ele>
        <time>2013-09-20T12:19:29Z</time>
      </trkpt>
      <trkpt lat="44.25623" lon="7.04859">
        <ele>1698</ele>
        <time>2013-09-20T12:19:36Z</time>
      </trkpt>
      <trkpt lat="44.25618" lon="7.04863">
        <ele>1700</ele>
        <time>2013-09-20T12:19:41Z</time>
      </trkpt>
      <trkpt lat="44.25609" lon="7.04869">
        <ele>1702</ele>
        <time>2013-09-20T12:19:51Z</time>
      </trkpt>
      <trkpt lat="44.25605" lon="7.04872">
        <ele>1703</ele>
        <time>2013-09-20T12:19:54Z</time>
      </trkpt>
      <trkpt lat="44.25598" lon="7.04876">
        <ele>1705</ele>
        <time>2013-09-20T12:19:59Z</time>
      </trkpt>
      <trkpt lat="44.25589" lon="7.04884">
        <ele>1708</ele>
        <time>2013-09-20T12:20:07Z</time>
      </trkpt>
      <trkpt lat="44.25587" lon="7.04889">
        <ele>1709</ele>
        <time>2013-09-20T12:20:10Z</time>
      </trkpt>
      <trkpt lat="44.25581" lon="7.04896">
        <ele>1711</ele>
        <time>2013-09-20T12:20:16Z</time>
      </trkpt>
      <trkpt lat="44.25574" lon="7.04906">
        <ele>1714</ele>
        <time>2013-09-20T12:20:24Z</time>
      </trkpt>
      <trkpt lat="44.25572" lon="7.0491">
        <ele>1715</ele>
        <time>2013-09-20T12:20:28Z</time>
      </trkpt>
      <trkpt lat="44.25561" lon="7.04928">
        <ele>1718</ele>
        <time>2013-09-20T12:20:42Z</time>
      </trkpt>
      <trkpt lat="44.25557" lon="7.04944">
        <ele>1719</ele>
        <time>2013-09-20T12:20:52Z</time>
      </trkpt>
      <trkpt lat="44.25549" lon="7.04939">
        <ele>1720</ele>
        <time>2013-09-20T12:21:00Z</time>
      </trkpt>
      <trkpt lat="44.25552" lon="7.04928">
        <ele>1721</ele>
        <time>2013-09-20T12:21:09Z</time>
      </trkpt>
      <trkpt lat="44.25556" lon="7.04917">
        <ele>1722</ele>
        <time>2013-09-20T12:21:19Z</time>
      </trkpt>
      <trkpt lat="44.25557" lon="7.04905">
        <ele>1723</ele>
        <time>2013-09-20T12:21:29Z</time>
      </trkpt>
      <trkpt lat="44.25555" lon="7.04902">
        <ele>1723</ele>
        <time>2013-09-20T12:21:32Z</time>
      </trkpt>
      <trkpt lat="44.25555" lon="7.04895">
        <ele>1724</ele>
        <time>2013-09-20T12:21:36Z</time>
      </trkpt>
      <trkpt lat="44.25547" lon="7.04881">
        <ele>1725</ele>
        <time>2013-09-20T12:21:45Z</time>
      </trkpt>
      <trkpt lat="44.2555" lon="7.04875">
        <ele>1726</ele>
        <time>2013-09-20T12:21:49Z</time>
      </trkpt>
      <trkpt lat="44.25555" lon="7.04869">
        <ele>1727</ele>
        <time>2013-09-20T12:21:54Z</time>
      </trkpt>
      <trkpt lat="44.25557" lon="7.04865">
        <ele>1727</ele>
        <time>2013-09-20T12:21:57Z</time>
      </trkpt>
      <trkpt lat="44.25558" lon="7.04859">
        <ele>1728</ele>
        <time>2013-09-20T12:22:01Z</time>
      </trkpt>
      <trkpt lat="44.25561" lon="7.04853">
        <ele>1729</ele>
        <time>2013-09-20T12:22:06Z</time>
      </trkpt>
      <trkpt lat="44.25563" lon="7.04843">
        <ele>1730</ele>
        <time>2013-09-20T12:22:13Z</time>
      </trkpt>
      <trkpt lat="44.25568" lon="7.04835">
        <ele>1732</ele>
        <time>2013-09-20T12:22:20Z</time>
      </trkpt>
      <trkpt lat="44.25576" lon="7.04832">
        <ele>1733</ele>
        <time>2013-09-20T12:22:25Z</time>
      </trkpt>
      <trkpt lat="44.25579" lon="7.0483">
        <ele>1733</ele>
        <time>2013-09-20T12:22:29Z</time>
      </trkpt>
      <trkpt lat="44.25582" lon="7.04828">
        <ele>1734</ele>
        <time>2013-09-20T12:22:32Z</time>
      </trkpt>
      <trkpt lat="44.25592" lon="7.04817">
        <ele>1735</ele>
        <time>2013-09-20T12:22:43Z</time>
      </trkpt>
      <trkpt lat="44.25594" lon="7.04813">
        <ele>1736</ele>
        <time>2013-09-20T12:22:47Z</time>
      </trkpt>
      <trkpt lat="44.25601" lon="7.04803">
        <ele>1737</ele>
        <time>2013-09-20T12:22:56Z</time>
      </trkpt>
      <trkpt lat="44.25603" lon="7.04798">
        <ele>1737</ele>
        <time>2013-09-20T12:23:00Z</time>
      </trkpt>
      <trkpt lat="44.256" lon="7.04789">
        <ele>1738</ele>
        <time>2013-09-20T12:23:06Z</time>
      </trkpt>
      <trkpt lat="44.25597" lon="7.04787">
        <ele>1739</ele>
        <time>2013-09-20T12:23:09Z</time>
      </trkpt>
      <trkpt lat="44.25591" lon="7.04791">
        <ele>1740</ele>
        <time>2013-09-20T12:23:15Z</time>
      </trkpt>
      <trkpt lat="44.2559" lon="7.04795">
        <ele>1740</ele>
        <time>2013-09-20T12:23:18Z</time>
      </trkpt>
      <trkpt lat="44.25589" lon="7.04806">
        <ele>1742</ele>
        <time>2013-09-20T12:23:26Z</time>
      </trkpt>
      <trkpt lat="44.25585" lon="7.04807">
        <ele>1742</ele>
        <time>2013-09-20T12:23:30Z</time>
      </trkpt>
      <trkpt lat="44.25578" lon="7.04808">
        <ele>1743</ele>
        <time>2013-09-20T12:23:36Z</time>
      </trkpt>
      <trkpt lat="44.2557" lon="7.04813">
        <ele>1744</ele>
        <time>2013-09-20T12:23:44Z</time>
      </trkpt>
      <trkpt lat="44.25563" lon="7.04816">
        <ele>1745</ele>
        <time>2013-09-20T12:23:50Z</time>
      </trkpt>
      <trkpt lat="44.25558" lon="7.04819">
        <ele>1746</ele>
        <time>2013-09-20T12:23:55Z</time>
      </trkpt>
      <trkpt lat="44.25556" lon="7.0482">
        <ele>1746</ele>
        <time>2013-09-20T12:23:57Z</time>
      </trkpt>
      <trkpt lat="44.25548" lon="7.04834">
        <ele>1748</ele>
        <time>2013-09-20T12:24:07Z</time>
      </trkpt>
      <trkpt lat="44.25542" lon="7.04836">
        <ele>1748</ele>
        <time>2013-09-20T12:24:11Z</time>
      </trkpt>
      <trkpt lat="44.25534" lon="7.04841">
        <ele>1750</ele>
        <time>2013-09-20T12:24:18Z</time>
      </trkpt>
      <trkpt lat="44.25526" lon="7.04844">
        <ele>1751</ele>
        <time>2013-09-20T12:24:24Z</time>
      </trkpt>
      <trkpt lat="44.25516" lon="7.04846">
        <ele>1753</ele>
        <time>2013-09-20T12:24:32Z</time>
      </trkpt>
      <trkpt lat="44.25507" lon="7.0485">
        <ele>1755</ele>
        <time>2013-09-20T12:24:40Z</time>
      </trkpt>
      <trkpt lat="44.25499" lon="7.04857">
        <ele>1757</ele>
        <time>2013-09-20T12:24:48Z</time>
      </trkpt>
      <trkpt lat="44.255" lon="7.04862">
        <ele>1758</ele>
        <time>2013-09-20T12:24:52Z</time>
      </trkpt>
      <trkpt lat="44.25499" lon="7.04874">
        <ele>1760</ele>
        <time>2013-09-20T12:25:01Z</time>
      </trkpt>
      <trkpt lat="44.25499" lon="7.04875">
        <ele>1760</ele>
        <time>2013-09-20T12:25:04Z</time>
      </trkpt>
      <trkpt lat="44.25491" lon="7.04874">
        <ele>1763</ele>
        <time>2013-09-20T12:25:20Z</time>
      </trkpt>
      <trkpt lat="44.25494" lon="7.04897">
        <ele>1769</ele>
        <time>2013-09-20T12:26:00Z</time>
      </trkpt>
      <trkpt lat="44.25491" lon="7.04903">
        <ele>1769</ele>
        <time>2013-09-20T12:26:05Z</time>
      </trkpt>
      <trkpt lat="44.25485" lon="7.04912">
        <ele>1769</ele>
        <time>2013-09-20T12:26:15Z</time>
      </trkpt>
      <trkpt lat="44.25483" lon="7.04917">
        <ele>1770</ele>
        <time>2013-09-20T12:26:20Z</time>
      </trkpt>
      <trkpt lat="44.25482" lon="7.04922">
        <ele>1770</ele>
        <time>2013-09-20T12:26:24Z</time>
      </trkpt>
      <trkpt lat="44.25481" lon="7.0493">
        <ele>1770</ele>
        <time>2013-09-20T12:26:28Z</time>
      </trkpt>
      <trkpt lat="44.2548" lon="7.04949">
        <ele>1770</ele>
        <time>2013-09-20T12:26:40Z</time>
      </trkpt>
      <trkpt lat="44.25479" lon="7.04958">
        <ele>1770</ele>
        <time>2013-09-20T12:26:45Z</time>
      </trkpt>
      <trkpt lat="44.25467" lon="7.04954">
        <ele>1770</ele>
        <time>2013-09-20T12:26:53Z</time>
      </trkpt>
      <trkpt lat="44.25466" lon="7.04951">
        <ele>1771</ele>
        <time>2013-09-20T12:26:55Z</time>
      </trkpt>
      <trkpt lat="44.25463" lon="7.04939">
        <ele>1771</ele>
        <time>2013-09-20T12:27:02Z</time>
      </trkpt>
      <trkpt lat="44.25463" lon="7.04935">
        <ele>1771</ele>
        <time>2013-09-20T12:27:05Z</time>
      </trkpt>
      <trkpt lat="44.25462" lon="7.04921">
        <ele>1771</ele>
        <time>2013-09-20T12:27:14Z</time>
      </trkpt>
      <trkpt lat="44.25463" lon="7.04909">
        <ele>1772</ele>
        <time>2013-09-20T12:27:22Z</time>
      </trkpt>
      <trkpt lat="44.25463" lon="7.04898">
        <ele>1772</ele>
        <time>2013-09-20T12:27:28Z</time>
      </trkpt>
      <trkpt lat="44.25466" lon="7.04887">
        <ele>1772</ele>
        <time>2013-09-20T12:27:35Z</time>
      </trkpt>
      <trkpt lat="44.25467" lon="7.04877">
        <ele>1773</ele>
        <time>2013-09-20T12:27:41Z</time>
      </trkpt>
      <trkpt lat="44.25466" lon="7.04858">
        <ele>1774</ele>
        <time>2013-09-20T12:27:52Z</time>
      </trkpt>
      <trkpt lat="44.25465" lon="7.04849">
        <ele>1774</ele>
        <time>2013-09-20T12:27:57Z</time>
      </trkpt>
      <trkpt lat="44.25464" lon="7.04836">
        <ele>1775</ele>
        <time>2013-09-20T12:28:05Z</time>
      </trkpt>
      <trkpt lat="44.25468" lon="7.04828">
        <ele>1776</ele>
        <time>2013-09-20T12:28:11Z</time>
      </trkpt>
      <trkpt lat="44.25473" lon="7.04821">
        <ele>1777</ele>
        <time>2013-09-20T12:28:17Z</time>
      </trkpt>
      <trkpt lat="44.25479" lon="7.04815">
        <ele>1778</ele>
        <time>2013-09-20T12:28:23Z</time>
      </trkpt>
      <trkpt lat="44.25485" lon="7.04808">
        <ele>1779</ele>
        <time>2013-09-20T12:28:30Z</time>
      </trkpt>
      <trkpt lat="44.25486" lon="7.04804">
        <ele>1779</ele>
        <time>2013-09-20T12:28:33Z</time>
      </trkpt>
      <trkpt lat="44.25491" lon="7.04799">
        <ele>1780</ele>
        <time>2013-09-20T12:28:40Z</time>
      </trkpt>
      <trkpt lat="44.25495" lon="7.04793">
        <ele>1782</ele>
        <time>2013-09-20T12:28:46Z</time>
      </trkpt>
      <trkpt lat="44.255" lon="7.04787">
        <ele>1784</ele>
        <time>2013-09-20T12:29:05Z</time>
      </trkpt>
      <trkpt lat="44.25505" lon="7.04782">
        <ele>1785</ele>
        <time>2013-09-20T12:29:10Z</time>
      </trkpt>
      <trkpt lat="44.2551" lon="7.04775">
        <ele>1786</ele>
        <time>2013-09-20T12:29:17Z</time>
      </trkpt>
      <trkpt lat="44.25511" lon="7.04769">
        <ele>1787</ele>
        <time>2013-09-20T12:29:23Z</time>
      </trkpt>
      <trkpt lat="44.25514" lon="7.04768">
        <ele>1788</ele>
        <time>2013-09-20T12:29:27Z</time>
      </trkpt>
      <trkpt lat="44.25515" lon="7.0476">
        <ele>1789</ele>
        <time>2013-09-20T12:29:32Z</time>
      </trkpt>
      <trkpt lat="44.25509" lon="7.04755">
        <ele>1790</ele>
        <time>2013-09-20T12:29:38Z</time>
      </trkpt>
      <trkpt lat="44.25501" lon="7.04759">
        <ele>1792</ele>
        <time>2013-09-20T12:29:48Z</time>
      </trkpt>
      <trkpt lat="44.25497" lon="7.04762">
        <ele>1793</ele>
        <time>2013-09-20T12:29:52Z</time>
      </trkpt>
      <trkpt lat="44.25489" lon="7.04767">
        <ele>1795</ele>
        <time>2013-09-20T12:30:01Z</time>
      </trkpt>
      <trkpt lat="44.25485" lon="7.0477">
        <ele>1795</ele>
        <time>2013-09-20T12:30:06Z</time>
      </trkpt>
      <trkpt lat="44.25479" lon="7.04775">
        <ele>1797</ele>
        <time>2013-09-20T12:30:15Z</time>
      </trkpt>
      <trkpt lat="44.25475" lon="7.04774">
        <ele>1797</ele>
        <time>2013-09-20T12:30:19Z</time>
      </trkpt>
      <trkpt lat="44.25468" lon="7.04774">
        <ele>1798</ele>
        <time>2013-09-20T12:30:24Z</time>
      </trkpt>
      <trkpt lat="44.25465" lon="7.04772">
        <ele>1798</ele>
        <time>2013-09-20T12:30:26Z</time>
      </trkpt>
      <trkpt lat="44.2546" lon="7.04773">
        <ele>1799</ele>
        <time>2013-09-20T12:30:31Z</time>
      </trkpt>
      <trkpt lat="44.25454" lon="7.04774">
        <ele>1799</ele>
        <time>2013-09-20T12:30:37Z</time>
      </trkpt>
      <trkpt lat="44.2545" lon="7.04774">
        <ele>1800</ele>
        <time>2013-09-20T12:30:41Z</time>
      </trkpt>
      <trkpt lat="44.2544" lon="7.04776">
        <ele>1801</ele>
        <time>2013-09-20T12:30:51Z</time>
      </trkpt>
      <trkpt lat="44.25435" lon="7.04777">
        <ele>1801</ele>
        <time>2013-09-20T12:30:56Z</time>
      </trkpt>
      <trkpt lat="44.2543" lon="7.04775">
        <ele>1802</ele>
        <time>2013-09-20T12:31:01Z</time>
      </trkpt>
      <trkpt lat="44.25424" lon="7.04772">
        <ele>1802</ele>
        <time>2013-09-20T12:31:06Z</time>
      </trkpt>
      <trkpt lat="44.25419" lon="7.0477">
        <ele>1803</ele>
        <time>2013-09-20T12:31:12Z</time>
      </trkpt>
      <trkpt lat="44.2541" lon="7.04768">
        <ele>1804</ele>
        <time>2013-09-20T12:31:23Z</time>
      </trkpt>
      <trkpt lat="44.25405" lon="7.04766">
        <ele>1804</ele>
        <time>2013-09-20T12:31:28Z</time>
      </trkpt>
      <trkpt lat="44.25392" lon="7.04762">
        <ele>1806</ele>
        <time>2013-09-20T12:31:40Z</time>
      </trkpt>
      <trkpt lat="44.25373" lon="7.04759">
        <ele>1808</ele>
        <time>2013-09-20T12:31:57Z</time>
      </trkpt>
      <trkpt lat="44.25362" lon="7.04758">
        <ele>1809</ele>
        <time>2013-09-20T12:32:07Z</time>
      </trkpt>
      <trkpt lat="44.25356" lon="7.04757">
        <ele>1810</ele>
        <time>2013-09-20T12:32:13Z</time>
      </trkpt>
      <trkpt lat="44.25348" lon="7.04757">
        <ele>1810</ele>
        <time>2013-09-20T12:32:20Z</time>
      </trkpt>
      <trkpt lat="44.25341" lon="7.04761">
        <ele>1811</ele>
        <time>2013-09-20T12:32:27Z</time>
      </trkpt>
      <trkpt lat="44.25336" lon="7.04766">
        <ele>1812</ele>
        <time>2013-09-20T12:32:33Z</time>
      </trkpt>
      <trkpt lat="44.25329" lon="7.04773">
        <ele>1813</ele>
        <time>2013-09-20T12:32:40Z</time>
      </trkpt>
      <trkpt lat="44.25324" lon="7.04764">
        <ele>1814</ele>
        <time>2013-09-20T12:32:51Z</time>
      </trkpt>
      <trkpt lat="44.25331" lon="7.04762">
        <ele>1815</ele>
        <time>2013-09-20T12:32:56Z</time>
      </trkpt>
      <trkpt lat="44.25337" lon="7.04758">
        <ele>1815</ele>
        <time>2013-09-20T12:33:02Z</time>
      </trkpt>
      <trkpt lat="44.25341" lon="7.04753">
        <ele>1816</ele>
        <time>2013-09-20T12:33:07Z</time>
      </trkpt>
      <trkpt lat="44.25345" lon="7.04747">
        <ele>1817</ele>
        <time>2013-09-20T12:33:13Z</time>
      </trkpt>
      <trkpt lat="44.25356" lon="7.04736">
        <ele>1820</ele>
        <time>2013-09-20T12:33:26Z</time>
      </trkpt>
      <trkpt lat="44.25359" lon="7.04733">
        <ele>1821</ele>
        <time>2013-09-20T12:33:30Z</time>
      </trkpt>
      <trkpt lat="44.25361" lon="7.0473">
        <ele>1821</ele>
        <time>2013-09-20T12:33:33Z</time>
      </trkpt>
      <trkpt lat="44.25366" lon="7.04725">
        <ele>1823</ele>
        <time>2013-09-20T12:33:40Z</time>
      </trkpt>
      <trkpt lat="44.25372" lon="7.04721">
        <ele>1824</ele>
        <time>2013-09-20T12:33:46Z</time>
      </trkpt>
      <trkpt lat="44.25377" lon="7.04716">
        <ele>1825</ele>
        <time>2013-09-20T12:33:51Z</time>
      </trkpt>
      <trkpt lat="44.25384" lon="7.04706">
        <ele>1826</ele>
        <time>2013-09-20T12:33:59Z</time>
      </trkpt>
      <trkpt lat="44.25389" lon="7.04703">
        <ele>1828</ele>
        <time>2013-09-20T12:34:05Z</time>
      </trkpt>
      <trkpt lat="44.25396" lon="7.04703">
        <ele>1829</ele>
        <time>2013-09-20T12:34:12Z</time>
      </trkpt>
      <trkpt lat="44.25407" lon="7.04704">
        <ele>1830</ele>
        <time>2013-09-20T12:34:23Z</time>
      </trkpt>
      <trkpt lat="44.25415" lon="7.04702">
        <ele>1831</ele>
        <time>2013-09-20T12:34:32Z</time>
      </trkpt>
      <trkpt lat="44.25419" lon="7.04699">
        <ele>1832</ele>
        <time>2013-09-20T12:34:38Z</time>
      </trkpt>
      <trkpt lat="44.25425" lon="7.04688">
        <ele>1833</ele>
        <time>2013-09-20T12:34:48Z</time>
      </trkpt>
      <trkpt lat="44.25418" lon="7.04685">
        <ele>1834</ele>
        <time>2013-09-20T12:34:55Z</time>
      </trkpt>
      <trkpt lat="44.25414" lon="7.04689">
        <ele>1835</ele>
        <time>2013-09-20T12:35:02Z</time>
      </trkpt>
      <trkpt lat="44.25406" lon="7.04692">
        <ele>1836</ele>
        <time>2013-09-20T12:35:11Z</time>
      </trkpt>
      <trkpt lat="44.25396" lon="7.04686">
        <ele>1837</ele>
        <time>2013-09-20T12:35:20Z</time>
      </trkpt>
      <trkpt lat="44.25385" lon="7.04677">
        <ele>1838</ele>
        <time>2013-09-20T12:35:31Z</time>
      </trkpt>
      <trkpt lat="44.25381" lon="7.04672">
        <ele>1839</ele>
        <time>2013-09-20T12:35:37Z</time>
      </trkpt>
      <trkpt lat="44.25371" lon="7.04668">
        <ele>1841</ele>
        <time>2013-09-20T12:35:46Z</time>
      </trkpt>
      <trkpt lat="44.25352" lon="7.04673">
        <ele>1843</ele>
        <time>2013-09-20T12:36:03Z</time>
      </trkpt>
      <trkpt lat="44.25345" lon="7.04677">
        <ele>1844</ele>
        <time>2013-09-20T12:36:11Z</time>
      </trkpt>
      <trkpt lat="44.25339" lon="7.04684">
        <ele>1853</ele>
        <time>2013-09-20T12:36:53Z</time>
      </trkpt>
      <trkpt lat="44.25328" lon="7.04691">
        <ele>1855</ele>
        <time>2013-09-20T12:37:05Z</time>
      </trkpt>
      <trkpt lat="44.2532" lon="7.04691">
        <ele>1855</ele>
        <time>2013-09-20T12:37:12Z</time>
      </trkpt>
      <trkpt lat="44.25309" lon="7.04696">
        <ele>1856</ele>
        <time>2013-09-20T12:37:23Z</time>
      </trkpt>
      <trkpt lat="44.25304" lon="7.04701">
        <ele>1856</ele>
        <time>2013-09-20T12:37:29Z</time>
      </trkpt>
      <trkpt lat="44.25298" lon="7.04698">
        <ele>1857</ele>
        <time>2013-09-20T12:37:36Z</time>
      </trkpt>
      <trkpt lat="44.25294" lon="7.04691">
        <ele>1857</ele>
        <time>2013-09-20T12:37:43Z</time>
      </trkpt>
      <trkpt lat="44.2529" lon="7.04686">
        <ele>1858</ele>
        <time>2013-09-20T12:37:49Z</time>
      </trkpt>
      <trkpt lat="44.25278" lon="7.04669">
        <ele>1859</ele>
        <time>2013-09-20T12:38:05Z</time>
      </trkpt>
      <trkpt lat="44.25269" lon="7.04655">
        <ele>1860</ele>
        <time>2013-09-20T12:38:19Z</time>
      </trkpt>
      <trkpt lat="44.25257" lon="7.04642">
        <ele>1862</ele>
        <time>2013-09-20T12:38:33Z</time>
      </trkpt>
      <trkpt lat="44.25247" lon="7.04635">
        <ele>1863</ele>
        <time>2013-09-20T12:38:44Z</time>
      </trkpt>
      <trkpt lat="44.2524" lon="7.04629">
        <ele>1864</ele>
        <time>2013-09-20T12:38:58Z</time>
      </trkpt>
      <trkpt lat="44.2523" lon="7.04614">
        <ele>1866</ele>
        <time>2013-09-20T12:39:14Z</time>
      </trkpt>
      <trkpt lat="44.25215" lon="7.046">
        <ele>1869</ele>
        <time>2013-09-20T12:39:34Z</time>
      </trkpt>
      <trkpt lat="44.25201" lon="7.04595">
        <ele>1871</ele>
        <time>2013-09-20T12:39:50Z</time>
      </trkpt>
      <trkpt lat="44.25185" lon="7.04592">
        <ele>1873</ele>
        <time>2013-09-20T12:40:08Z</time>
      </trkpt>
      <trkpt lat="44.25167" lon="7.04582">
        <ele>1876</ele>
        <time>2013-09-20T12:40:27Z</time>
      </trkpt>
      <trkpt lat="44.25149" lon="7.04584">
        <ele>1879</ele>
        <time>2013-09-20T12:40:47Z</time>
      </trkpt>
      <trkpt lat="44.25132" lon="7.04595">
        <ele>1882</ele>
        <time>2013-09-20T12:41:06Z</time>
      </trkpt>
      <trkpt lat="44.25115" lon="7.04606">
        <ele>1886</ele>
        <time>2013-09-20T12:41:27Z</time>
      </trkpt>
      <trkpt lat="44.25111" lon="7.04626">
        <ele>1888</ele>
        <time>2013-09-20T12:41:43Z</time>
      </trkpt>
      <trkpt lat="44.25102" lon="7.04648">
        <ele>1891</ele>
        <time>2013-09-20T12:42:03Z</time>
      </trkpt>
      <trkpt lat="44.25087" lon="7.04657">
        <ele>1894</ele>
        <time>2013-09-20T12:42:20Z</time>
      </trkpt>
      <trkpt lat="44.25079" lon="7.04656">
        <ele>1897</ele>
        <time>2013-09-20T12:42:38Z</time>
      </trkpt>
      <trkpt lat="44.25079" lon="7.04655">
        <ele>1899</ele>
        <time>2013-09-20T12:43:02Z</time>
      </trkpt>
      <trkpt lat="44.25077" lon="7.04656">
        <ele>1909</ele>
        <time>2013-09-20T12:45:54Z</time>
      </trkpt>
      <trkpt lat="44.25076" lon="7.04655">
        <ele>1910</ele>
        <time>2013-09-20T12:46:35Z</time>
      </trkpt>
      <trkpt lat="44.25074" lon="7.04656">
        <ele>1910</ele>
        <time>2013-09-20T12:47:01Z</time>
      </trkpt>
      <trkpt lat="44.25076" lon="7.0466">
        <ele>1910</ele>
        <time>2013-09-20T12:47:49Z</time>
      </trkpt>
      <trkpt lat="44.25073" lon="7.04658">
        <ele>1912</ele>
        <time>2013-09-20T12:48:21Z</time>
      </trkpt>
      <trkpt lat="44.25072" lon="7.04652">
        <ele>1913</ele>
        <time>2013-09-20T12:48:41Z</time>
      </trkpt>
      <trkpt lat="44.25072" lon="7.04659">
        <ele>1906</ele>
        <time>2013-09-20T13:02:04Z</time>
      </trkpt>
      <trkpt lat="44.25064" lon="7.04662">
        <ele>1906</ele>
        <time>2013-09-20T13:02:17Z</time>
      </trkpt>
      <trkpt lat="44.25058" lon="7.0466">
        <ele>1907</ele>
        <time>2013-09-20T13:02:30Z</time>
      </trkpt>
      <trkpt lat="44.25045" lon="7.04663">
        <ele>1908</ele>
        <time>2013-09-20T13:02:47Z</time>
      </trkpt>
      <trkpt lat="44.25029" lon="7.0467">
        <ele>1909</ele>
        <time>2013-09-20T13:03:09Z</time>
      </trkpt>
      <trkpt lat="44.25018" lon="7.04678">
        <ele>1911</ele>
        <time>2013-09-20T13:03:26Z</time>
      </trkpt>
      <trkpt lat="44.25008" lon="7.04684">
        <ele>1912</ele>
        <time>2013-09-20T13:03:41Z</time>
      </trkpt>
      <trkpt lat="44.25" lon="7.04691">
        <ele>1914</ele>
        <time>2013-09-20T13:03:56Z</time>
      </trkpt>
      <trkpt lat="44.24988" lon="7.04698">
        <ele>1917</ele>
        <time>2013-09-20T13:04:15Z</time>
      </trkpt>
      <trkpt lat="44.24977" lon="7.047">
        <ele>1918</ele>
        <time>2013-09-20T13:04:30Z</time>
      </trkpt>
      <trkpt lat="44.24966" lon="7.04703">
        <ele>1920</ele>
        <time>2013-09-20T13:04:45Z</time>
      </trkpt>
      <trkpt lat="44.24951" lon="7.04707">
        <ele>1923</ele>
        <time>2013-09-20T13:05:07Z</time>
      </trkpt>
      <trkpt lat="44.24935" lon="7.04711">
        <ele>1925</ele>
        <time>2013-09-20T13:05:26Z</time>
      </trkpt>
      <trkpt lat="44.24925" lon="7.04715">
        <ele>1927</ele>
        <time>2013-09-20T13:05:43Z</time>
      </trkpt>
      <trkpt lat="44.24918" lon="7.04716">
        <ele>1927</ele>
        <time>2013-09-20T13:05:48Z</time>
      </trkpt>
      <trkpt lat="44.24905" lon="7.04721">
        <ele>1928</ele>
        <time>2013-09-20T13:05:56Z</time>
      </trkpt>
      <trkpt lat="44.2488" lon="7.04728">
        <ele>1930</ele>
        <time>2013-09-20T13:06:11Z</time>
      </trkpt>
      <trkpt lat="44.24856" lon="7.04729">
        <ele>1931</ele>
        <time>2013-09-20T13:06:24Z</time>
      </trkpt>
      <trkpt lat="44.24846" lon="7.0475">
        <ele>1931</ele>
        <time>2013-09-20T13:06:31Z</time>
      </trkpt>
      <trkpt lat="44.24842" lon="7.04775">
        <ele>1932</ele>
        <time>2013-09-20T13:06:41Z</time>
      </trkpt>
      <trkpt lat="44.24836" lon="7.04815">
        <ele>1932</ele>
        <time>2013-09-20T13:06:50Z</time>
      </trkpt>
      <trkpt lat="44.24827" lon="7.048">
        <ele>1931</ele>
        <time>2013-09-20T13:06:55Z</time>
      </trkpt>
      <trkpt lat="44.24823" lon="7.04772">
        <ele>1931</ele>
        <time>2013-09-20T13:07:01Z</time>
      </trkpt>
      <trkpt lat="44.24799" lon="7.04745">
        <ele>1931</ele>
        <time>2013-09-20T13:07:08Z</time>
      </trkpt>
      <trkpt lat="44.24772" lon="7.04734">
        <ele>1931</ele>
        <time>2013-09-20T13:07:12Z</time>
      </trkpt>
      <trkpt lat="44.24736" lon="7.04711">
        <ele>1930</ele>
        <time>2013-09-20T13:07:21Z</time>
      </trkpt>
      <trkpt lat="44.24726" lon="7.04707">
        <ele>1930</ele>
        <time>2013-09-20T13:07:26Z</time>
      </trkpt>
      <trkpt lat="44.24699" lon="7.04705">
        <ele>1930</ele>
        <time>2013-09-20T13:07:41Z</time>
      </trkpt>
      <trkpt lat="44.24657" lon="7.04703">
        <ele>1929</ele>
        <time>2013-09-20T13:08:00Z</time>
      </trkpt>
      <trkpt lat="44.24622" lon="7.04699">
        <ele>1929</ele>
        <time>2013-09-20T13:08:17Z</time>
      </trkpt>
      <trkpt lat="44.24596" lon="7.04699">
        <ele>1929</ele>
        <time>2013-09-20T13:08:32Z</time>
      </trkpt>
      <trkpt lat="44.24579" lon="7.04703">
        <ele>1929</ele>
        <time>2013-09-20T13:08:43Z</time>
      </trkpt>
      <trkpt lat="44.24569" lon="7.04695">
        <ele>1929</ele>
        <time>2013-09-20T13:08:52Z</time>
      </trkpt>
      <trkpt lat="44.24554" lon="7.04692">
        <ele>1930</ele>
        <time>2013-09-20T13:09:04Z</time>
      </trkpt>
      <trkpt lat="44.24546" lon="7.04684">
        <ele>1930</ele>
        <time>2013-09-20T13:09:11Z</time>
      </trkpt>
      <trkpt lat="44.24533" lon="7.04678">
        <ele>1931</ele>
        <time>2013-09-20T13:09:25Z</time>
      </trkpt>
      <trkpt lat="44.24528" lon="7.04669">
        <ele>1932</ele>
        <time>2013-09-20T13:09:32Z</time>
      </trkpt>
      <trkpt lat="44.24517" lon="7.04653">
        <ele>1933</ele>
        <time>2013-09-20T13:09:47Z</time>
      </trkpt>
      <trkpt lat="44.24511" lon="7.04632">
        <ele>1935</ele>
        <time>2013-09-20T13:10:02Z</time>
      </trkpt>
      <trkpt lat="44.24508" lon="7.04629">
        <ele>1935</ele>
        <time>2013-09-20T13:10:08Z</time>
      </trkpt>
      <trkpt lat="44.24492" lon="7.04617">
        <ele>1937</ele>
        <time>2013-09-20T13:10:23Z</time>
      </trkpt>
      <trkpt lat="44.24489" lon="7.04607">
        <ele>1938</ele>
        <time>2013-09-20T13:10:34Z</time>
      </trkpt>
      <trkpt lat="44.24481" lon="7.04588">
        <ele>1940</ele>
        <time>2013-09-20T13:10:53Z</time>
      </trkpt>
      <trkpt lat="44.24474" lon="7.04573">
        <ele>1942</ele>
        <time>2013-09-20T13:11:11Z</time>
      </trkpt>
      <trkpt lat="44.24485" lon="7.04567">
        <ele>1944</ele>
        <time>2013-09-20T13:11:27Z</time>
      </trkpt>
      <trkpt lat="44.2448" lon="7.04558">
        <ele>1945</ele>
        <time>2013-09-20T13:11:42Z</time>
      </trkpt>
      <trkpt lat="44.24466" lon="7.04554">
        <ele>1946</ele>
        <time>2013-09-20T13:11:59Z</time>
      </trkpt>
      <trkpt lat="44.24453" lon="7.04541">
        <ele>1948</ele>
        <time>2013-09-20T13:12:18Z</time>
      </trkpt>
      <trkpt lat="44.24438" lon="7.04539">
        <ele>1950</ele>
        <time>2013-09-20T13:12:36Z</time>
      </trkpt>
      <trkpt lat="44.2442" lon="7.04529">
        <ele>1952</ele>
        <time>2013-09-20T13:12:58Z</time>
      </trkpt>
      <trkpt lat="44.24404" lon="7.04516">
        <ele>1954</ele>
        <time>2013-09-20T13:13:19Z</time>
      </trkpt>
      <trkpt lat="44.24391" lon="7.04509">
        <ele>1956</ele>
        <time>2013-09-20T13:13:37Z</time>
      </trkpt>
      <trkpt lat="44.24384" lon="7.04508">
        <ele>1957</ele>
        <time>2013-09-20T13:13:42Z</time>
      </trkpt>
      <trkpt lat="44.24371" lon="7.04505">
        <ele>1958</ele>
        <time>2013-09-20T13:13:52Z</time>
      </trkpt>
      <trkpt lat="44.24349" lon="7.04495">
        <ele>1960</ele>
        <time>2013-09-20T13:14:08Z</time>
      </trkpt>
      <trkpt lat="44.24334" lon="7.04479">
        <ele>1962</ele>
        <time>2013-09-20T13:14:23Z</time>
      </trkpt>
      <trkpt lat="44.24316" lon="7.04467">
        <ele>1964</ele>
        <time>2013-09-20T13:14:41Z</time>
      </trkpt>
      <trkpt lat="44.24305" lon="7.04455">
        <ele>1966</ele>
        <time>2013-09-20T13:14:55Z</time>
      </trkpt>
      <trkpt lat="44.24292" lon="7.04447">
        <ele>1969</ele>
        <time>2013-09-20T13:15:11Z</time>
      </trkpt>
      <trkpt lat="44.24286" lon="7.04441">
        <ele>1970</ele>
        <time>2013-09-20T13:15:19Z</time>
      </trkpt>
      <trkpt lat="44.24275" lon="7.04432">
        <ele>1972</ele>
        <time>2013-09-20T13:15:32Z</time>
      </trkpt>
      <trkpt lat="44.24263" lon="7.0442">
        <ele>1974</ele>
        <time>2013-09-20T13:15:48Z</time>
      </trkpt>
      <trkpt lat="44.24251" lon="7.04409">
        <ele>1976</ele>
        <time>2013-09-20T13:16:03Z</time>
      </trkpt>
      <trkpt lat="44.24241" lon="7.04402">
        <ele>1979</ele>
        <time>2013-09-20T13:16:22Z</time>
      </trkpt>
      <trkpt lat="44.24231" lon="7.04402">
        <ele>1981</ele>
        <time>2013-09-20T13:16:38Z</time>
      </trkpt>
      <trkpt lat="44.24213" lon="7.04402">
        <ele>1984</ele>
        <time>2013-09-20T13:16:57Z</time>
      </trkpt>
      <trkpt lat="44.242" lon="7.04396">
        <ele>1988</ele>
        <time>2013-09-20T13:17:14Z</time>
      </trkpt>
      <trkpt lat="44.24194" lon="7.04394">
        <ele>1989</ele>
        <time>2013-09-20T13:17:22Z</time>
      </trkpt>
      <trkpt lat="44.2418" lon="7.04385">
        <ele>1992</ele>
        <time>2013-09-20T13:17:40Z</time>
      </trkpt>
      <trkpt lat="44.24164" lon="7.04376">
        <ele>1995</ele>
        <time>2013-09-20T13:17:58Z</time>
      </trkpt>
      <trkpt lat="44.24148" lon="7.04372">
        <ele>1998</ele>
        <time>2013-09-20T13:18:17Z</time>
      </trkpt>
      <trkpt lat="44.24131" lon="7.04369">
        <ele>2001</ele>
        <time>2013-09-20T13:18:36Z</time>
      </trkpt>
      <trkpt lat="44.24113" lon="7.04359">
        <ele>2003</ele>
        <time>2013-09-20T13:18:52Z</time>
      </trkpt>
      <trkpt lat="44.24092" lon="7.04347">
        <ele>2005</ele>
        <time>2013-09-20T13:19:08Z</time>
      </trkpt>
      <trkpt lat="44.24076" lon="7.04334">
        <ele>2006</ele>
        <time>2013-09-20T13:19:23Z</time>
      </trkpt>
      <trkpt lat="44.24055" lon="7.04328">
        <ele>2008</ele>
        <time>2013-09-20T13:19:41Z</time>
      </trkpt>
      <trkpt lat="44.24041" lon="7.04322">
        <ele>2010</ele>
        <time>2013-09-20T13:19:54Z</time>
      </trkpt>
      <trkpt lat="44.2402" lon="7.04308">
        <ele>2011</ele>
        <time>2013-09-20T13:20:10Z</time>
      </trkpt>
      <trkpt lat="44.2401" lon="7.04298">
        <ele>2012</ele>
        <time>2013-09-20T13:20:20Z</time>
      </trkpt>
      <trkpt lat="44.24002" lon="7.04285">
        <ele>2014</ele>
        <time>2013-09-20T13:20:32Z</time>
      </trkpt>
      <trkpt lat="44.23989" lon="7.04271">
        <ele>2015</ele>
        <time>2013-09-20T13:20:48Z</time>
      </trkpt>
      <trkpt lat="44.24" lon="7.04256">
        <ele>2017</ele>
        <time>2013-09-20T13:21:03Z</time>
      </trkpt>
      <trkpt lat="44.24" lon="7.0425">
        <ele>2018</ele>
        <time>2013-09-20T13:21:09Z</time>
      </trkpt>
      <trkpt lat="44.23997" lon="7.04247">
        <ele>2019</ele>
        <time>2013-09-20T13:21:15Z</time>
      </trkpt>
      <trkpt lat="44.23987" lon="7.04234">
        <ele>2021</ele>
        <time>2013-09-20T13:21:32Z</time>
      </trkpt>
      <trkpt lat="44.2398" lon="7.04226">
        <ele>2023</ele>
        <time>2013-09-20T13:21:47Z</time>
      </trkpt>
      <trkpt lat="44.23972" lon="7.04215">
        <ele>2025</ele>
        <time>2013-09-20T13:22:03Z</time>
      </trkpt>
      <trkpt lat="44.23961" lon="7.04197">
        <ele>2028</ele>
        <time>2013-09-20T13:22:25Z</time>
      </trkpt>
      <trkpt lat="44.23949" lon="7.04186">
        <ele>2031</ele>
        <time>2013-09-20T13:22:43Z</time>
      </trkpt>
      <trkpt lat="44.23937" lon="7.04168">
        <ele>2034</ele>
        <time>2013-09-20T13:23:03Z</time>
      </trkpt>
      <trkpt lat="44.23927" lon="7.04147">
        <ele>2036</ele>
        <time>2013-09-20T13:23:22Z</time>
      </trkpt>
      <trkpt lat="44.23915" lon="7.04131">
        <ele>2038</ele>
        <time>2013-09-20T13:23:41Z</time>
      </trkpt>
      <trkpt lat="44.23904" lon="7.04125">
        <ele>2040</ele>
        <time>2013-09-20T13:23:57Z</time>
      </trkpt>
      <trkpt lat="44.23893" lon="7.04117">
        <ele>2042</ele>
        <time>2013-09-20T13:24:14Z</time>
      </trkpt>
      <trkpt lat="44.23879" lon="7.04107">
        <ele>2045</ele>
        <time>2013-09-20T13:24:35Z</time>
      </trkpt>
      <trkpt lat="44.23868" lon="7.04098">
        <ele>2047</ele>
        <time>2013-09-20T13:24:53Z</time>
      </trkpt>
      <trkpt lat="44.23856" lon="7.041">
        <ele>2049</ele>
        <time>2013-09-20T13:25:11Z</time>
      </trkpt>
      <trkpt lat="44.23853" lon="7.04088">
        <ele>2051</ele>
        <time>2013-09-20T13:25:26Z</time>
      </trkpt>
      <trkpt lat="44.2386" lon="7.04078">
        <ele>2052</ele>
        <time>2013-09-20T13:25:38Z</time>
      </trkpt>
      <trkpt lat="44.23853" lon="7.04076">
        <ele>2053</ele>
        <time>2013-09-20T13:25:46Z</time>
      </trkpt>
      <trkpt lat="44.23847" lon="7.0408">
        <ele>2054</ele>
        <time>2013-09-20T13:25:53Z</time>
      </trkpt>
      <trkpt lat="44.23841" lon="7.04081">
        <ele>2055</ele>
        <time>2013-09-20T13:26:01Z</time>
      </trkpt>
      <trkpt lat="44.23839" lon="7.0407">
        <ele>2056</ele>
        <time>2013-09-20T13:26:11Z</time>
      </trkpt>
      <trkpt lat="44.23841" lon="7.04069">
        <ele>2056</ele>
        <time>2013-09-20T13:26:13Z</time>
      </trkpt>
      <trkpt lat="44.23845" lon="7.0406">
        <ele>2058</ele>
        <time>2013-09-20T13:26:24Z</time>
      </trkpt>
      <trkpt lat="44.23839" lon="7.04059">
        <ele>2059</ele>
        <time>2013-09-20T13:26:31Z</time>
      </trkpt>
      <trkpt lat="44.23826" lon="7.04065">
        <ele>2061</ele>
        <time>2013-09-20T13:26:47Z</time>
      </trkpt>
      <trkpt lat="44.23822" lon="7.0406">
        <ele>2062</ele>
        <time>2013-09-20T13:26:53Z</time>
      </trkpt>
      <trkpt lat="44.23827" lon="7.04053">
        <ele>2063</ele>
        <time>2013-09-20T13:27:00Z</time>
      </trkpt>
      <trkpt lat="44.23827" lon="7.04051">
        <ele>2063</ele>
        <time>2013-09-20T13:27:02Z</time>
      </trkpt>
      <trkpt lat="44.23821" lon="7.04049">
        <ele>2064</ele>
        <time>2013-09-20T13:27:14Z</time>
      </trkpt>
      <trkpt lat="44.23817" lon="7.0404">
        <ele>2066</ele>
        <time>2013-09-20T13:27:26Z</time>
      </trkpt>
      <trkpt lat="44.23822" lon="7.04035">
        <ele>2067</ele>
        <time>2013-09-20T13:27:33Z</time>
      </trkpt>
      <trkpt lat="44.23819" lon="7.04034">
        <ele>2067</ele>
        <time>2013-09-20T13:27:38Z</time>
      </trkpt>
      <trkpt lat="44.23808" lon="7.04037">
        <ele>2070</ele>
        <time>2013-09-20T13:27:56Z</time>
      </trkpt>
      <trkpt lat="44.23801" lon="7.04025">
        <ele>2073</ele>
        <time>2013-09-20T13:28:20Z</time>
      </trkpt>
      <trkpt lat="44.23794" lon="7.04016">
        <ele>2075</ele>
        <time>2013-09-20T13:28:34Z</time>
      </trkpt>
      <trkpt lat="44.23777" lon="7.04019">
        <ele>2077</ele>
        <time>2013-09-20T13:28:52Z</time>
      </trkpt>
      <trkpt lat="44.23763" lon="7.04007">
        <ele>2080</ele>
        <time>2013-09-20T13:29:10Z</time>
      </trkpt>
      <trkpt lat="44.23751" lon="7.03996">
        <ele>2082</ele>
        <time>2013-09-20T13:29:27Z</time>
      </trkpt>
      <trkpt lat="44.23751" lon="7.03983">
        <ele>2084</ele>
        <time>2013-09-20T13:29:38Z</time>
      </trkpt>
      <trkpt lat="44.23758" lon="7.03984">
        <ele>2085</ele>
        <time>2013-09-20T13:29:45Z</time>
      </trkpt>
      <trkpt lat="44.23761" lon="7.03976">
        <ele>2086</ele>
        <time>2013-09-20T13:29:57Z</time>
      </trkpt>
      <trkpt lat="44.23749" lon="7.0397">
        <ele>2088</ele>
        <time>2013-09-20T13:30:13Z</time>
      </trkpt>
      <trkpt lat="44.23737" lon="7.03959">
        <ele>2091</ele>
        <time>2013-09-20T13:30:32Z</time>
      </trkpt>
      <trkpt lat="44.23727" lon="7.03947">
        <ele>2093</ele>
        <time>2013-09-20T13:30:49Z</time>
      </trkpt>
      <trkpt lat="44.23716" lon="7.03932">
        <ele>2095</ele>
        <time>2013-09-20T13:31:09Z</time>
      </trkpt>
      <trkpt lat="44.23703" lon="7.03914">
        <ele>2098</ele>
        <time>2013-09-20T13:31:31Z</time>
      </trkpt>
      <trkpt lat="44.23687" lon="7.03909">
        <ele>2101</ele>
        <time>2013-09-20T13:31:52Z</time>
      </trkpt>
      <trkpt lat="44.23674" lon="7.03925">
        <ele>2103</ele>
        <time>2013-09-20T13:32:11Z</time>
      </trkpt>
      <trkpt lat="44.23664" lon="7.03943">
        <ele>2105</ele>
        <time>2013-09-20T13:32:29Z</time>
      </trkpt>
      <trkpt lat="44.23647" lon="7.03948">
        <ele>2108</ele>
        <time>2013-09-20T13:32:51Z</time>
      </trkpt>
      <trkpt lat="44.23634" lon="7.03962">
        <ele>2110</ele>
        <time>2013-09-20T13:33:11Z</time>
      </trkpt>
      <trkpt lat="44.23618" lon="7.03969">
        <ele>2112</ele>
        <time>2013-09-20T13:33:30Z</time>
      </trkpt>
      <trkpt lat="44.23599" lon="7.03977">
        <ele>2115</ele>
        <time>2013-09-20T13:33:53Z</time>
      </trkpt>
      <trkpt lat="44.23594" lon="7.03972">
        <ele>2116</ele>
        <time>2013-09-20T13:34:01Z</time>
      </trkpt>
      <trkpt lat="44.23594" lon="7.03961">
        <ele>2118</ele>
        <time>2013-09-20T13:34:12Z</time>
      </trkpt>
      <trkpt lat="44.23605" lon="7.03949">
        <ele>2120</ele>
        <time>2013-09-20T13:34:30Z</time>
      </trkpt>
      <trkpt lat="44.23603" lon="7.03932">
        <ele>2122</ele>
        <time>2013-09-20T13:34:47Z</time>
      </trkpt>
      <trkpt lat="44.23599" lon="7.03912">
        <ele>2125</ele>
        <time>2013-09-20T13:35:06Z</time>
      </trkpt>
      <trkpt lat="44.23599" lon="7.03882">
        <ele>2129</ele>
        <time>2013-09-20T13:35:28Z</time>
      </trkpt>
      <trkpt lat="44.23597" lon="7.03857">
        <ele>2132</ele>
        <time>2013-09-20T13:35:47Z</time>
      </trkpt>
      <trkpt lat="44.23593" lon="7.03848">
        <ele>2133</ele>
        <time>2013-09-20T13:35:56Z</time>
      </trkpt>
      <trkpt lat="44.23586" lon="7.03826">
        <ele>2137</ele>
        <time>2013-09-20T13:36:17Z</time>
      </trkpt>
      <trkpt lat="44.23573" lon="7.03822">
        <ele>2140</ele>
        <time>2013-09-20T13:36:38Z</time>
      </trkpt>
      <trkpt lat="44.23568" lon="7.03846">
        <ele>2143</ele>
        <time>2013-09-20T13:37:00Z</time>
      </trkpt>
      <trkpt lat="44.23564" lon="7.03869">
        <ele>2145</ele>
        <time>2013-09-20T13:37:19Z</time>
      </trkpt>
      <trkpt lat="44.2356" lon="7.03882">
        <ele>2146</ele>
        <time>2013-09-20T13:37:30Z</time>
      </trkpt>
      <trkpt lat="44.23554" lon="7.0389">
        <ele>2148</ele>
        <time>2013-09-20T13:37:40Z</time>
      </trkpt>
      <trkpt lat="44.23546" lon="7.03874">
        <ele>2150</ele>
        <time>2013-09-20T13:37:59Z</time>
      </trkpt>
      <trkpt lat="44.23536" lon="7.03856">
        <ele>2153</ele>
        <time>2013-09-20T13:38:19Z</time>
      </trkpt>
      <trkpt lat="44.23524" lon="7.0385">
        <ele>2155</ele>
        <time>2013-09-20T13:38:37Z</time>
      </trkpt>
      <trkpt lat="44.23524" lon="7.0383">
        <ele>2158</ele>
        <time>2013-09-20T13:38:55Z</time>
      </trkpt>
      <trkpt lat="44.23516" lon="7.03807">
        <ele>2160</ele>
        <time>2013-09-20T13:39:15Z</time>
      </trkpt>
      <trkpt lat="44.23508" lon="7.03794">
        <ele>2162</ele>
        <time>2013-09-20T13:39:33Z</time>
      </trkpt>
      <trkpt lat="44.23492" lon="7.03789">
        <ele>2165</ele>
        <time>2013-09-20T13:39:53Z</time>
      </trkpt>
      <trkpt lat="44.23478" lon="7.03792">
        <ele>2167</ele>
        <time>2013-09-20T13:40:11Z</time>
      </trkpt>
      <trkpt lat="44.23474" lon="7.03805">
        <ele>2169</ele>
        <time>2013-09-20T13:40:25Z</time>
      </trkpt>
      <trkpt lat="44.23466" lon="7.03793">
        <ele>2171</ele>
        <time>2013-09-20T13:40:41Z</time>
      </trkpt>
      <trkpt lat="44.23468" lon="7.03779">
        <ele>2172</ele>
        <time>2013-09-20T13:40:54Z</time>
      </trkpt>
      <trkpt lat="44.23458" lon="7.03767">
        <ele>2174</ele>
        <time>2013-09-20T13:41:12Z</time>
      </trkpt>
      <trkpt lat="44.23449" lon="7.03763">
        <ele>2176</ele>
        <time>2013-09-20T13:41:27Z</time>
      </trkpt>
      <trkpt lat="44.23444" lon="7.03756">
        <ele>2178</ele>
        <time>2013-09-20T13:41:36Z</time>
      </trkpt>
      <trkpt lat="44.2345" lon="7.03741">
        <ele>2179</ele>
        <time>2013-09-20T13:41:51Z</time>
      </trkpt>
      <trkpt lat="44.23451" lon="7.03717">
        <ele>2179</ele>
        <time>2013-09-20T13:42:13Z</time>
      </trkpt>
      <trkpt lat="44.23437" lon="7.03722">
        <ele>2180</ele>
        <time>2013-09-20T13:42:32Z</time>
      </trkpt>
      <trkpt lat="44.23425" lon="7.03727">
        <ele>2181</ele>
        <time>2013-09-20T13:42:49Z</time>
      </trkpt>
      <trkpt lat="44.23416" lon="7.03718">
        <ele>2184</ele>
        <time>2013-09-20T13:43:07Z</time>
      </trkpt>
      <trkpt lat="44.23416" lon="7.03704">
        <ele>2187</ele>
        <time>2013-09-20T13:43:22Z</time>
      </trkpt>
      <trkpt lat="44.2341" lon="7.0371">
        <ele>2189</ele>
        <time>2013-09-20T13:43:31Z</time>
      </trkpt>
      <trkpt lat="44.23404" lon="7.03719">
        <ele>2191</ele>
        <time>2013-09-20T13:43:42Z</time>
      </trkpt>
      <trkpt lat="44.23394" lon="7.03717">
        <ele>2193</ele>
        <time>2013-09-20T13:43:54Z</time>
      </trkpt>
      <trkpt lat="44.23397" lon="7.03699">
        <ele>2196</ele>
        <time>2013-09-20T13:44:09Z</time>
      </trkpt>
      <trkpt lat="44.23398" lon="7.03683">
        <ele>2198</ele>
        <time>2013-09-20T13:44:22Z</time>
      </trkpt>
      <trkpt lat="44.23391" lon="7.03685">
        <ele>2199</ele>
        <time>2013-09-20T13:44:30Z</time>
      </trkpt>
      <trkpt lat="44.23382" lon="7.03691">
        <ele>2201</ele>
        <time>2013-09-20T13:44:42Z</time>
      </trkpt>
      <trkpt lat="44.23371" lon="7.03694">
        <ele>2203</ele>
        <time>2013-09-20T13:44:56Z</time>
      </trkpt>
      <trkpt lat="44.23371" lon="7.03684">
        <ele>2204</ele>
        <time>2013-09-20T13:45:04Z</time>
      </trkpt>
      <trkpt lat="44.23374" lon="7.0367">
        <ele>2206</ele>
        <time>2013-09-20T13:45:17Z</time>
      </trkpt>
      <trkpt lat="44.23367" lon="7.03665">
        <ele>2207</ele>
        <time>2013-09-20T13:45:26Z</time>
      </trkpt>
      <trkpt lat="44.23359" lon="7.03674">
        <ele>2208</ele>
        <time>2013-09-20T13:45:37Z</time>
      </trkpt>
      <trkpt lat="44.23346" lon="7.03691">
        <ele>2211</ele>
        <time>2013-09-20T13:45:58Z</time>
      </trkpt>
      <trkpt lat="44.23341" lon="7.03688">
        <ele>2212</ele>
        <time>2013-09-20T13:46:04Z</time>
      </trkpt>
      <trkpt lat="44.23343" lon="7.03679">
        <ele>2213</ele>
        <time>2013-09-20T13:46:11Z</time>
      </trkpt>
      <trkpt lat="44.23349" lon="7.03659">
        <ele>2215</ele>
        <time>2013-09-20T13:46:28Z</time>
      </trkpt>
      <trkpt lat="44.23345" lon="7.03647">
        <ele>2217</ele>
        <time>2013-09-20T13:46:45Z</time>
      </trkpt>
      <trkpt lat="44.23336" lon="7.03665">
        <ele>2219</ele>
        <time>2013-09-20T13:47:02Z</time>
      </trkpt>
      <trkpt lat="44.23324" lon="7.03691">
        <ele>2222</ele>
        <time>2013-09-20T13:47:25Z</time>
      </trkpt>
      <trkpt lat="44.23322" lon="7.03695">
        <ele>2222</ele>
        <time>2013-09-20T13:47:28Z</time>
      </trkpt>
      <trkpt lat="44.23319" lon="7.03695">
        <ele>2223</ele>
        <time>2013-09-20T13:47:31Z</time>
      </trkpt>
      <trkpt lat="44.23317" lon="7.0369">
        <ele>2223</ele>
        <time>2013-09-20T13:47:35Z</time>
      </trkpt>
      <trkpt lat="44.2332" lon="7.03669">
        <ele>2225</ele>
        <time>2013-09-20T13:47:51Z</time>
      </trkpt>
      <trkpt lat="44.2332" lon="7.03655">
        <ele>2226</ele>
        <time>2013-09-20T13:48:01Z</time>
      </trkpt>
      <trkpt lat="44.23323" lon="7.03639">
        <ele>2228</ele>
        <time>2013-09-20T13:48:13Z</time>
      </trkpt>
      <trkpt lat="44.23326" lon="7.03612">
        <ele>2231</ele>
        <time>2013-09-20T13:48:32Z</time>
      </trkpt>
      <trkpt lat="44.23325" lon="7.0361">
        <ele>2231</ele>
        <time>2013-09-20T13:48:34Z</time>
      </trkpt>
      <trkpt lat="44.23322" lon="7.03609">
        <ele>2232</ele>
        <time>2013-09-20T13:48:38Z</time>
      </trkpt>
      <trkpt lat="44.23312" lon="7.03629">
        <ele>2234</ele>
        <time>2013-09-20T13:48:56Z</time>
      </trkpt>
      <trkpt lat="44.23304" lon="7.03646">
        <ele>2237</ele>
        <time>2013-09-20T13:49:17Z</time>
      </trkpt>
      <trkpt lat="44.23302" lon="7.03638">
        <ele>2237</ele>
        <time>2013-09-20T13:49:24Z</time>
      </trkpt>
      <trkpt lat="44.23307" lon="7.03607">
        <ele>2240</ele>
        <time>2013-09-20T13:49:45Z</time>
      </trkpt>
      <trkpt lat="44.23308" lon="7.03588">
        <ele>2241</ele>
        <time>2013-09-20T13:49:58Z</time>
      </trkpt>
      <trkpt lat="44.23302" lon="7.03591">
        <ele>2242</ele>
        <time>2013-09-20T13:50:06Z</time>
      </trkpt>
      <trkpt lat="44.23302" lon="7.03598">
        <ele>2242</ele>
        <time>2013-09-20T13:50:11Z</time>
      </trkpt>
      <trkpt lat="44.23293" lon="7.03618">
        <ele>2244</ele>
        <time>2013-09-20T13:50:28Z</time>
      </trkpt>
      <trkpt lat="44.23283" lon="7.03647">
        <ele>2247</ele>
        <time>2013-09-20T13:50:51Z</time>
      </trkpt>
      <trkpt lat="44.23276" lon="7.03665">
        <ele>2249</ele>
        <time>2013-09-20T13:51:06Z</time>
      </trkpt>
      <trkpt lat="44.23272" lon="7.03662">
        <ele>2249</ele>
        <time>2013-09-20T13:51:11Z</time>
      </trkpt>
      <trkpt lat="44.23273" lon="7.03646">
        <ele>2251</ele>
        <time>2013-09-20T13:51:24Z</time>
      </trkpt>
      <trkpt lat="44.23274" lon="7.0362">
        <ele>2253</ele>
        <time>2013-09-20T13:51:43Z</time>
      </trkpt>
      <trkpt lat="44.23276" lon="7.0359">
        <ele>2256</ele>
        <time>2013-09-20T13:52:03Z</time>
      </trkpt>
      <trkpt lat="44.23278" lon="7.03561">
        <ele>2259</ele>
        <time>2013-09-20T13:52:24Z</time>
      </trkpt>
      <trkpt lat="44.23277" lon="7.03559">
        <ele>2259</ele>
        <time>2013-09-20T13:52:26Z</time>
      </trkpt>
      <trkpt lat="44.23274" lon="7.03558">
        <ele>2260</ele>
        <time>2013-09-20T13:52:31Z</time>
      </trkpt>
      <trkpt lat="44.23272" lon="7.03561">
        <ele>2260</ele>
        <time>2013-09-20T13:52:34Z</time>
      </trkpt>
      <trkpt lat="44.23267" lon="7.03578">
        <ele>2262</ele>
        <time>2013-09-20T13:52:48Z</time>
      </trkpt>
      <trkpt lat="44.23254" lon="7.03605">
        <ele>2265</ele>
        <time>2013-09-20T13:53:13Z</time>
      </trkpt>
      <trkpt lat="44.23242" lon="7.03626">
        <ele>2267</ele>
        <time>2013-09-20T13:53:34Z</time>
      </trkpt>
      <trkpt lat="44.23238" lon="7.0365">
        <ele>2270</ele>
        <time>2013-09-20T13:53:54Z</time>
      </trkpt>
      <trkpt lat="44.23235" lon="7.03677">
        <ele>2273</ele>
        <time>2013-09-20T13:54:17Z</time>
      </trkpt>
      <trkpt lat="44.23218" lon="7.037">
        <ele>2275</ele>
        <time>2013-09-20T13:54:41Z</time>
      </trkpt>
      <trkpt lat="44.2321" lon="7.03724">
        <ele>2278</ele>
        <time>2013-09-20T13:55:02Z</time>
      </trkpt>
      <trkpt lat="44.23203" lon="7.03744">
        <ele>2280</ele>
        <time>2013-09-20T13:55:19Z</time>
      </trkpt>
      <trkpt lat="44.23199" lon="7.03741">
        <ele>2281</ele>
        <time>2013-09-20T13:55:26Z</time>
      </trkpt>
      <trkpt lat="44.232" lon="7.03735">
        <ele>2282</ele>
        <time>2013-09-20T13:55:31Z</time>
      </trkpt>
      <trkpt lat="44.23201" lon="7.0373">
        <ele>2282</ele>
        <time>2013-09-20T13:55:36Z</time>
      </trkpt>
      <trkpt lat="44.23202" lon="7.03725">
        <ele>2283</ele>
        <time>2013-09-20T13:55:40Z</time>
      </trkpt>
      <trkpt lat="44.23201" lon="7.03717">
        <ele>2283</ele>
        <time>2013-09-20T13:55:46Z</time>
      </trkpt>
      <trkpt lat="44.23198" lon="7.03687">
        <ele>2286</ele>
        <time>2013-09-20T13:56:09Z</time>
      </trkpt>
      <trkpt lat="44.23202" lon="7.03661">
        <ele>2289</ele>
        <time>2013-09-20T13:56:30Z</time>
      </trkpt>
      <trkpt lat="44.23206" lon="7.03645">
        <ele>2290</ele>
        <time>2013-09-20T13:56:44Z</time>
      </trkpt>
      <trkpt lat="44.23207" lon="7.03635">
        <ele>2292</ele>
        <time>2013-09-20T13:56:56Z</time>
      </trkpt>
      <trkpt lat="44.23207" lon="7.03615">
        <ele>2293</ele>
        <time>2013-09-20T13:57:10Z</time>
      </trkpt>
      <trkpt lat="44.23207" lon="7.03599">
        <ele>2294</ele>
        <time>2013-09-20T13:57:19Z</time>
      </trkpt>
      <trkpt lat="44.23207" lon="7.03591">
        <ele>2295</ele>
        <time>2013-09-20T13:57:23Z</time>
      </trkpt>
      <trkpt lat="44.23201" lon="7.0358">
        <ele>2295</ele>
        <time>2013-09-20T13:57:30Z</time>
      </trkpt>
      <trkpt lat="44.23195" lon="7.03574">
        <ele>2296</ele>
        <time>2013-09-20T13:57:36Z</time>
      </trkpt>
      <trkpt lat="44.23179" lon="7.03555">
        <ele>2298</ele>
        <time>2013-09-20T13:57:53Z</time>
      </trkpt>
      <trkpt lat="44.23172" lon="7.03545">
        <ele>2299</ele>
        <time>2013-09-20T13:58:01Z</time>
      </trkpt>
      <trkpt lat="44.23165" lon="7.03539">
        <ele>2300</ele>
        <time>2013-09-20T13:58:08Z</time>
      </trkpt>
      <trkpt lat="44.23159" lon="7.03534">
        <ele>2301</ele>
        <time>2013-09-20T13:58:14Z</time>
      </trkpt>
      <trkpt lat="44.23152" lon="7.0353">
        <ele>2302</ele>
        <time>2013-09-20T13:58:22Z</time>
      </trkpt>
      <trkpt lat="44.23137" lon="7.03539">
        <ele>2305</ele>
        <time>2013-09-20T13:58:41Z</time>
      </trkpt>
      <trkpt lat="44.23121" lon="7.0355">
        <ele>2306</ele>
        <time>2013-09-20T13:58:55Z</time>
      </trkpt>
      <trkpt lat="44.23094" lon="7.03568">
        <ele>2308</ele>
        <time>2013-09-20T13:59:11Z</time>
      </trkpt>
      <trkpt lat="44.23078" lon="7.03577">
        <ele>2309</ele>
        <time>2013-09-20T13:59:23Z</time>
      </trkpt>
      <trkpt lat="44.23066" lon="7.03576">
        <ele>2310</ele>
        <time>2013-09-20T13:59:30Z</time>
      </trkpt>
      <trkpt lat="44.23038" lon="7.03574">
        <ele>2311</ele>
        <time>2013-09-20T13:59:45Z</time>
      </trkpt>
      <trkpt lat="44.23015" lon="7.03568">
        <ele>2313</ele>
        <time>2013-09-20T13:59:59Z</time>
      </trkpt>
      <trkpt lat="44.22998" lon="7.03573">
        <ele>2314</ele>
        <time>2013-09-20T14:00:11Z</time>
      </trkpt>
      <trkpt lat="44.22995" lon="7.03581">
        <ele>2314</ele>
        <time>2013-09-20T14:00:16Z</time>
      </trkpt>
      <trkpt lat="44.22995" lon="7.03595">
        <ele>2315</ele>
        <time>2013-09-20T14:00:24Z</time>
      </trkpt>
      <trkpt lat="44.22993" lon="7.03629">
        <ele>2317</ele>
        <time>2013-09-20T14:00:41Z</time>
      </trkpt>
      <trkpt lat="44.22979" lon="7.03649">
        <ele>2319</ele>
        <time>2013-09-20T14:00:54Z</time>
      </trkpt>
      <trkpt lat="44.22962" lon="7.03679">
        <ele>2320</ele>
        <time>2013-09-20T14:01:11Z</time>
      </trkpt>
      <trkpt lat="44.22942" lon="7.03681">
        <ele>2322</ele>
        <time>2013-09-20T14:01:25Z</time>
      </trkpt>
      <trkpt lat="44.22924" lon="7.03672">
        <ele>2323</ele>
        <time>2013-09-20T14:01:39Z</time>
      </trkpt>
      <trkpt lat="44.2292" lon="7.03664">
        <ele>2324</ele>
        <time>2013-09-20T14:01:44Z</time>
      </trkpt>
      <trkpt lat="44.22923" lon="7.03656">
        <ele>2325</ele>
        <time>2013-09-20T14:01:49Z</time>
      </trkpt>
      <trkpt lat="44.2293" lon="7.03654">
        <ele>2325</ele>
        <time>2013-09-20T14:01:54Z</time>
      </trkpt>
      <trkpt lat="44.22951" lon="7.0365">
        <ele>2327</ele>
        <time>2013-09-20T14:02:10Z</time>
      </trkpt>
      <trkpt lat="44.22958" lon="7.03627">
        <ele>2329</ele>
        <time>2013-09-20T14:02:25Z</time>
      </trkpt>
      <trkpt lat="44.22952" lon="7.036">
        <ele>2331</ele>
        <time>2013-09-20T14:02:41Z</time>
      </trkpt>
      <trkpt lat="44.22944" lon="7.03593">
        <ele>2332</ele>
        <time>2013-09-20T14:02:48Z</time>
      </trkpt>
      <trkpt lat="44.22924" lon="7.03583">
        <ele>2334</ele>
        <time>2013-09-20T14:03:04Z</time>
      </trkpt>
      <trkpt lat="44.22898" lon="7.03587">
        <ele>2336</ele>
        <time>2013-09-20T14:03:20Z</time>
      </trkpt>
      <trkpt lat="44.22873" lon="7.03596">
        <ele>2338</ele>
        <time>2013-09-20T14:03:38Z</time>
      </trkpt>
      <trkpt lat="44.22857" lon="7.03576">
        <ele>2339</ele>
        <time>2013-09-20T14:03:55Z</time>
      </trkpt>
      <trkpt lat="44.2286" lon="7.03552">
        <ele>2341</ele>
        <time>2013-09-20T14:04:09Z</time>
      </trkpt>
      <trkpt lat="44.22872" lon="7.0353">
        <ele>2343</ele>
        <time>2013-09-20T14:04:25Z</time>
      </trkpt>
      <trkpt lat="44.22886" lon="7.03517">
        <ele>2344</ele>
        <time>2013-09-20T14:04:39Z</time>
      </trkpt>
      <trkpt lat="44.22896" lon="7.03509">
        <ele>2346</ele>
        <time>2013-09-20T14:04:52Z</time>
      </trkpt>
      <trkpt lat="44.22906" lon="7.03501">
        <ele>2347</ele>
        <time>2013-09-20T14:05:01Z</time>
      </trkpt>
      <trkpt lat="44.229" lon="7.03497">
        <ele>2348</ele>
        <time>2013-09-20T14:05:07Z</time>
      </trkpt>
      <trkpt lat="44.22884" lon="7.0349">
        <ele>2350</ele>
        <time>2013-09-20T14:05:21Z</time>
      </trkpt>
      <trkpt lat="44.22884" lon="7.03482">
        <ele>2350</ele>
        <time>2013-09-20T14:05:26Z</time>
      </trkpt>
      <trkpt lat="44.22889" lon="7.03473">
        <ele>2351</ele>
        <time>2013-09-20T14:05:32Z</time>
      </trkpt>
      <trkpt lat="44.22901" lon="7.03448">
        <ele>2353</ele>
        <time>2013-09-20T14:05:49Z</time>
      </trkpt>
      <trkpt lat="44.22916" lon="7.03432">
        <ele>2355</ele>
        <time>2013-09-20T14:06:02Z</time>
      </trkpt>
      <trkpt lat="44.22926" lon="7.03419">
        <ele>2356</ele>
        <time>2013-09-20T14:06:12Z</time>
      </trkpt>
      <trkpt lat="44.22921" lon="7.03414">
        <ele>2357</ele>
        <time>2013-09-20T14:06:20Z</time>
      </trkpt>
      <trkpt lat="44.22909" lon="7.03424">
        <ele>2359</ele>
        <time>2013-09-20T14:06:32Z</time>
      </trkpt>
      <trkpt lat="44.22898" lon="7.03429">
        <ele>2360</ele>
        <time>2013-09-20T14:06:40Z</time>
      </trkpt>
      <trkpt lat="44.22882" lon="7.03443">
        <ele>2362</ele>
        <time>2013-09-20T14:06:56Z</time>
      </trkpt>
      <trkpt lat="44.22867" lon="7.03453">
        <ele>2363</ele>
        <time>2013-09-20T14:07:10Z</time>
      </trkpt>
      <trkpt lat="44.22849" lon="7.03462">
        <ele>2365</ele>
        <time>2013-09-20T14:07:24Z</time>
      </trkpt>
      <trkpt lat="44.22833" lon="7.03474">
        <ele>2367</ele>
        <time>2013-09-20T14:07:39Z</time>
      </trkpt>
      <trkpt lat="44.22823" lon="7.03483">
        <ele>2368</ele>
        <time>2013-09-20T14:07:53Z</time>
      </trkpt>
      <trkpt lat="44.22807" lon="7.03479">
        <ele>2370</ele>
        <time>2013-09-20T14:08:10Z</time>
      </trkpt>
      <trkpt lat="44.22789" lon="7.0346">
        <ele>2373</ele>
        <time>2013-09-20T14:08:30Z</time>
      </trkpt>
      <trkpt lat="44.22771" lon="7.03452">
        <ele>2375</ele>
        <time>2013-09-20T14:08:49Z</time>
      </trkpt>
      <trkpt lat="44.22753" lon="7.03449">
        <ele>2377</ele>
        <time>2013-09-20T14:09:06Z</time>
      </trkpt>
      <trkpt lat="44.22733" lon="7.03444">
        <ele>2380</ele>
        <time>2013-09-20T14:09:26Z</time>
      </trkpt>
      <trkpt lat="44.22713" lon="7.03438">
        <ele>2383</ele>
        <time>2013-09-20T14:09:45Z</time>
      </trkpt>
      <trkpt lat="44.22692" lon="7.03418">
        <ele>2385</ele>
        <time>2013-09-20T14:10:07Z</time>
      </trkpt>
      <trkpt lat="44.22678" lon="7.03406">
        <ele>2387</ele>
        <time>2013-09-20T14:10:23Z</time>
      </trkpt>
      <trkpt lat="44.22664" lon="7.03397">
        <ele>2389</ele>
        <time>2013-09-20T14:10:39Z</time>
      </trkpt>
      <trkpt lat="44.22646" lon="7.03392">
        <ele>2392</ele>
        <time>2013-09-20T14:10:56Z</time>
      </trkpt>
      <trkpt lat="44.22642" lon="7.03384">
        <ele>2393</ele>
        <time>2013-09-20T14:11:04Z</time>
      </trkpt>
      <trkpt lat="44.22645" lon="7.03376">
        <ele>2394</ele>
        <time>2013-09-20T14:11:10Z</time>
      </trkpt>
      <trkpt lat="44.22662" lon="7.03364">
        <ele>2396</ele>
        <time>2013-09-20T14:11:27Z</time>
      </trkpt>
      <trkpt lat="44.22683" lon="7.03358">
        <ele>2398</ele>
        <time>2013-09-20T14:11:45Z</time>
      </trkpt>
      <trkpt lat="44.22703" lon="7.03357">
        <ele>2400</ele>
        <time>2013-09-20T14:12:03Z</time>
      </trkpt>
      <trkpt lat="44.22708" lon="7.0335">
        <ele>2401</ele>
        <time>2013-09-20T14:12:10Z</time>
      </trkpt>
      <trkpt lat="44.2272" lon="7.03341">
        <ele>2402</ele>
        <time>2013-09-20T14:12:24Z</time>
      </trkpt>
      <trkpt lat="44.22717" lon="7.03333">
        <ele>2404</ele>
        <time>2013-09-20T14:12:34Z</time>
      </trkpt>
      <trkpt lat="44.22708" lon="7.03327">
        <ele>2405</ele>
        <time>2013-09-20T14:12:44Z</time>
      </trkpt>
      <trkpt lat="44.22699" lon="7.03318">
        <ele>2407</ele>
        <time>2013-09-20T14:12:59Z</time>
      </trkpt>
      <trkpt lat="44.22696" lon="7.0331">
        <ele>2408</ele>
        <time>2013-09-20T14:13:13Z</time>
      </trkpt>
      <trkpt lat="44.22679" lon="7.03317">
        <ele>2411</ele>
        <time>2013-09-20T14:13:31Z</time>
      </trkpt>
      <trkpt lat="44.22662" lon="7.03321">
        <ele>2412</ele>
        <time>2013-09-20T14:13:44Z</time>
      </trkpt>
      <trkpt lat="44.22636" lon="7.03322">
        <ele>2414</ele>
        <time>2013-09-20T14:14:02Z</time>
      </trkpt>
      <trkpt lat="44.22619" lon="7.03342">
        <ele>2415</ele>
        <time>2013-09-20T14:14:17Z</time>
      </trkpt>
      <trkpt lat="44.22616" lon="7.03344">
        <ele>2416</ele>
        <time>2013-09-20T14:14:22Z</time>
      </trkpt>
      <trkpt lat="44.22601" lon="7.03341">
        <ele>2418</ele>
        <time>2013-09-20T14:14:37Z</time>
      </trkpt>
      <trkpt lat="44.22595" lon="7.0334">
        <ele>2419</ele>
        <time>2013-09-20T14:14:44Z</time>
      </trkpt>
      <trkpt lat="44.2259" lon="7.03337">
        <ele>2420</ele>
        <time>2013-09-20T14:14:51Z</time>
      </trkpt>
      <trkpt lat="44.22579" lon="7.03331">
        <ele>2422</ele>
        <time>2013-09-20T14:15:09Z</time>
      </trkpt>
      <trkpt lat="44.22571" lon="7.03327">
        <ele>2425</ele>
        <time>2013-09-20T14:15:23Z</time>
      </trkpt>
      <trkpt lat="44.22561" lon="7.03331">
        <ele>2427</ele>
        <time>2013-09-20T14:15:39Z</time>
      </trkpt>
      <trkpt lat="44.22549" lon="7.03338">
        <ele>2430</ele>
        <time>2013-09-20T14:15:55Z</time>
      </trkpt>
      <trkpt lat="44.22535" lon="7.03341">
        <ele>2432</ele>
        <time>2013-09-20T14:16:12Z</time>
      </trkpt>
      <trkpt lat="44.2253" lon="7.03361">
        <ele>2435</ele>
        <time>2013-09-20T14:16:28Z</time>
      </trkpt>
      <trkpt lat="44.22525" lon="7.03363">
        <ele>2435</ele>
        <time>2013-09-20T14:16:34Z</time>
      </trkpt>
      <trkpt lat="44.22525" lon="7.03343">
        <ele>2437</ele>
        <time>2013-09-20T14:16:48Z</time>
      </trkpt>
      <trkpt lat="44.22527" lon="7.03321">
        <ele>2440</ele>
        <time>2013-09-20T14:17:07Z</time>
      </trkpt>
      <trkpt lat="44.22526" lon="7.03313">
        <ele>2440</ele>
        <time>2013-09-20T14:17:13Z</time>
      </trkpt>
      <trkpt lat="44.22528" lon="7.03289">
        <ele>2441</ele>
        <time>2013-09-20T14:17:22Z</time>
      </trkpt>
      <trkpt lat="44.22535" lon="7.03277">
        <ele>2441</ele>
        <time>2013-09-20T14:17:26Z</time>
      </trkpt>
      <trkpt lat="44.22553" lon="7.03225">
        <ele>2442</ele>
        <time>2013-09-20T14:17:35Z</time>
      </trkpt>
      <trkpt lat="44.2254" lon="7.0316">
        <ele>2442</ele>
        <time>2013-09-20T14:17:44Z</time>
      </trkpt>
      <trkpt lat="44.22537" lon="7.03153">
        <ele>2442</ele>
        <time>2013-09-20T14:17:48Z</time>
      </trkpt>
      <trkpt lat="44.22533" lon="7.03145">
        <ele>2442</ele>
        <time>2013-09-20T14:17:54Z</time>
      </trkpt>
      <trkpt lat="44.22522" lon="7.03132">
        <ele>2443</ele>
        <time>2013-09-20T14:18:07Z</time>
      </trkpt>
      <trkpt lat="44.22518" lon="7.03133">
        <ele>2444</ele>
        <time>2013-09-20T14:18:13Z</time>
      </trkpt>
      <trkpt lat="44.22506" lon="7.03141">
        <ele>2446</ele>
        <time>2013-09-20T14:18:29Z</time>
      </trkpt>
      <trkpt lat="44.22501" lon="7.03127">
        <ele>2448</ele>
        <time>2013-09-20T14:18:45Z</time>
      </trkpt>
      <trkpt lat="44.22495" lon="7.03127">
        <ele>2450</ele>
        <time>2013-09-20T14:19:00Z</time>
      </trkpt>
      <trkpt lat="44.22488" lon="7.0312">
        <ele>2452</ele>
        <time>2013-09-20T14:19:14Z</time>
      </trkpt>
      <trkpt lat="44.22486" lon="7.03109">
        <ele>2455</ele>
        <time>2013-09-20T14:19:30Z</time>
      </trkpt>
      <trkpt lat="44.22487" lon="7.03101">
        <ele>2457</ele>
        <time>2013-09-20T14:19:44Z</time>
      </trkpt>
      <trkpt lat="44.22483" lon="7.03102">
        <ele>2459</ele>
        <time>2013-09-20T14:20:13Z</time>
      </trkpt>
      <trkpt lat="44.22482" lon="7.03092">
        <ele>2461</ele>
        <time>2013-09-20T14:20:27Z</time>
      </trkpt>
      <trkpt lat="44.22482" lon="7.03082">
        <ele>2463</ele>
        <time>2013-09-20T14:20:39Z</time>
      </trkpt>
      <trkpt lat="44.22483" lon="7.03067">
        <ele>2465</ele>
        <time>2013-09-20T14:20:54Z</time>
      </trkpt>
      <trkpt lat="44.22482" lon="7.03053">
        <ele>2467</ele>
        <time>2013-09-20T14:21:12Z</time>
      </trkpt>
      <trkpt lat="44.22482" lon="7.03043">
        <ele>2468</ele>
        <time>2013-09-20T14:21:26Z</time>
      </trkpt>
      <trkpt lat="44.22483" lon="7.03035">
        <ele>2469</ele>
        <time>2013-09-20T14:21:38Z</time>
      </trkpt>
      <trkpt lat="44.22483" lon="7.03028">
        <ele>2471</ele>
        <time>2013-09-20T14:21:49Z</time>
      </trkpt>
      <trkpt lat="44.22476" lon="7.03031">
        <ele>2472</ele>
        <time>2013-09-20T14:22:01Z</time>
      </trkpt>
      <trkpt lat="44.22472" lon="7.03022">
        <ele>2473</ele>
        <time>2013-09-20T14:22:15Z</time>
      </trkpt>
      <trkpt lat="44.22472" lon="7.03009">
        <ele>2475</ele>
        <time>2013-09-20T14:22:31Z</time>
      </trkpt>
      <trkpt lat="44.22472" lon="7.02999">
        <ele>2477</ele>
        <time>2013-09-20T14:22:45Z</time>
      </trkpt>
      <trkpt lat="44.2247" lon="7.02994">
        <ele>2479</ele>
        <time>2013-09-20T14:22:58Z</time>
      </trkpt>
      <trkpt lat="44.22466" lon="7.03">
        <ele>2481</ele>
        <time>2013-09-20T14:23:17Z</time>
      </trkpt>
      <trkpt lat="44.22461" lon="7.03005">
        <ele>2483</ele>
        <time>2013-09-20T14:23:31Z</time>
      </trkpt>
      <trkpt lat="44.22457" lon="7.03011">
        <ele>2485</ele>
        <time>2013-09-20T14:23:45Z</time>
      </trkpt>
      <trkpt lat="44.22452" lon="7.03013">
        <ele>2486</ele>
        <time>2013-09-20T14:23:57Z</time>
      </trkpt>
      <trkpt lat="44.22448" lon="7.03015">
        <ele>2488</ele>
        <time>2013-09-20T14:24:10Z</time>
      </trkpt>
      <trkpt lat="44.22443" lon="7.0302">
        <ele>2489</ele>
        <time>2013-09-20T14:24:23Z</time>
      </trkpt>
      <trkpt lat="44.2244" lon="7.03024">
        <ele>2490</ele>
        <time>2013-09-20T14:24:35Z</time>
      </trkpt>
      <trkpt lat="44.22436" lon="7.03029">
        <ele>2492</ele>
        <time>2013-09-20T14:24:46Z</time>
      </trkpt>
      <trkpt lat="44.22434" lon="7.03034">
        <ele>2493</ele>
        <time>2013-09-20T14:24:57Z</time>
      </trkpt>
      <trkpt lat="44.2243" lon="7.03039">
        <ele>2495</ele>
        <time>2013-09-20T14:25:11Z</time>
      </trkpt>
      <trkpt lat="44.22425" lon="7.03046">
        <ele>2497</ele>
        <time>2013-09-20T14:25:26Z</time>
      </trkpt>
      <trkpt lat="44.22422" lon="7.03053">
        <ele>2499</ele>
        <time>2013-09-20T14:25:40Z</time>
      </trkpt>
      <trkpt lat="44.22419" lon="7.03061">
        <ele>2502</ele>
        <time>2013-09-20T14:25:55Z</time>
      </trkpt>
      <trkpt lat="44.22412" lon="7.03071">
        <ele>2505</ele>
        <time>2013-09-20T14:26:13Z</time>
      </trkpt>
      <trkpt lat="44.22405" lon="7.03081">
        <ele>2508</ele>
        <time>2013-09-20T14:26:32Z</time>
      </trkpt>
      <trkpt lat="44.224" lon="7.0309">
        <ele>2511</ele>
        <time>2013-09-20T14:26:48Z</time>
      </trkpt>
      <trkpt lat="44.22396" lon="7.031">
        <ele>2514</ele>
        <time>2013-09-20T14:27:05Z</time>
      </trkpt>
      <trkpt lat="44.22392" lon="7.0311">
        <ele>2517</ele>
        <time>2013-09-20T14:27:19Z</time>
      </trkpt>
      <trkpt lat="44.22387" lon="7.0312">
        <ele>2519</ele>
        <time>2013-09-20T14:27:34Z</time>
      </trkpt>
      <trkpt lat="44.22384" lon="7.03134">
        <ele>2522</ele>
        <time>2013-09-20T14:27:51Z</time>
      </trkpt>
      <trkpt lat="44.22382" lon="7.03141">
        <ele>2524</ele>
        <time>2013-09-20T14:28:02Z</time>
      </trkpt>
      <trkpt lat="44.22379" lon="7.03156">
        <ele>2526</ele>
        <time>2013-09-20T14:28:22Z</time>
      </trkpt>
      <trkpt lat="44.22378" lon="7.03169">
        <ele>2528</ele>
        <time>2013-09-20T14:28:40Z</time>
      </trkpt>
      <trkpt lat="44.22376" lon="7.03179">
        <ele>2530</ele>
        <time>2013-09-20T14:28:54Z</time>
      </trkpt>
      <trkpt lat="44.22371" lon="7.03182">
        <ele>2532</ele>
        <time>2013-09-20T14:29:12Z</time>
      </trkpt>
      <trkpt lat="44.2237" lon="7.03174">
        <ele>2533</ele>
        <time>2013-09-20T14:29:26Z</time>
      </trkpt>
      <trkpt lat="44.22368" lon="7.03163">
        <ele>2535</ele>
        <time>2013-09-20T14:29:39Z</time>
      </trkpt>
      <trkpt lat="44.22366" lon="7.0314">
        <ele>2535</ele>
        <time>2013-09-20T14:29:48Z</time>
      </trkpt>
      <trkpt lat="44.2236" lon="7.03133">
        <ele>2536</ele>
        <time>2013-09-20T14:29:55Z</time>
      </trkpt>
      <trkpt lat="44.22359" lon="7.0313">
        <ele>2536</ele>
        <time>2013-09-20T14:30:00Z</time>
      </trkpt>
      <trkpt lat="44.22356" lon="7.03124">
        <ele>2537</ele>
        <time>2013-09-20T14:30:13Z</time>
      </trkpt>
      <trkpt lat="44.22351" lon="7.03117">
        <ele>2539</ele>
        <time>2013-09-20T14:30:27Z</time>
      </trkpt>
      <trkpt lat="44.22349" lon="7.031">
        <ele>2540</ele>
        <time>2013-09-20T14:30:43Z</time>
      </trkpt>
      <trkpt lat="44.2235" lon="7.03089">
        <ele>2541</ele>
        <time>2013-09-20T14:30:56Z</time>
      </trkpt>
      <trkpt lat="44.22353" lon="7.03087">
        <ele>2548</ele>
        <time>2013-09-20T14:57:44Z</time>
      </trkpt>
      <trkpt lat="44.2235" lon="7.03085">
        <ele>2548</ele>
        <time>2013-09-20T14:57:47Z</time>
      </trkpt>
      <trkpt lat="44.2235" lon="7.03064">
        <ele>2548</ele>
        <time>2013-09-20T14:57:56Z</time>
      </trkpt>
      <trkpt lat="44.22346" lon="7.03022">
        <ele>2548</ele>
        <time>2013-09-20T14:58:07Z</time>
      </trkpt>
      <trkpt lat="44.22356" lon="7.02995">
        <ele>2548</ele>
        <time>2013-09-20T14:58:21Z</time>
      </trkpt>
      <trkpt lat="44.22366" lon="7.02987">
        <ele>2548</ele>
        <time>2013-09-20T14:58:29Z</time>
      </trkpt>
      <trkpt lat="44.22365" lon="7.02981">
        <ele>2548</ele>
        <time>2013-09-20T14:58:34Z</time>
      </trkpt>
      <trkpt lat="44.22364" lon="7.02961">
        <ele>2549</ele>
        <time>2013-09-20T14:58:46Z</time>
      </trkpt>
      <trkpt lat="44.22357" lon="7.02939">
        <ele>2550</ele>
        <time>2013-09-20T14:59:00Z</time>
      </trkpt>
      <trkpt lat="44.22363" lon="7.02913">
        <ele>2551</ele>
        <time>2013-09-20T14:59:14Z</time>
      </trkpt>
      <trkpt lat="44.22367" lon="7.02885">
        <ele>2551</ele>
        <time>2013-09-20T14:59:25Z</time>
      </trkpt>
      <trkpt lat="44.22367" lon="7.02847">
        <ele>2552</ele>
        <time>2013-09-20T14:59:40Z</time>
      </trkpt>
      <trkpt lat="44.22359" lon="7.02829">
        <ele>2552</ele>
        <time>2013-09-20T14:59:53Z</time>
      </trkpt>
      <trkpt lat="44.22358" lon="7.02817">
        <ele>2553</ele>
        <time>2013-09-20T15:00:09Z</time>
      </trkpt>
      <trkpt lat="44.2235" lon="7.02805">
        <ele>2552</ele>
        <time>2013-09-20T15:00:12Z</time>
      </trkpt>
      <trkpt lat="44.22348" lon="7.02791">
        <ele>2552</ele>
        <time>2013-09-20T15:00:16Z</time>
      </trkpt>
      <trkpt lat="44.22349" lon="7.02784">
        <ele>2552</ele>
        <time>2013-09-20T15:00:21Z</time>
      </trkpt>
      <trkpt lat="44.22349" lon="7.02756">
        <ele>2551</ele>
        <time>2013-09-20T15:00:36Z</time>
      </trkpt>
      <trkpt lat="44.22348" lon="7.02743">
        <ele>2549</ele>
        <time>2013-09-20T15:01:57Z</time>
      </trkpt>
      <trkpt lat="44.22338" lon="7.02684">
        <ele>2549</ele>
        <time>2013-09-20T15:02:07Z</time>
      </trkpt>
      <trkpt lat="44.22338" lon="7.02666">
        <ele>2549</ele>
        <time>2013-09-20T15:02:11Z</time>
      </trkpt>
      <trkpt lat="44.2233" lon="7.02644">
        <ele>2548</ele>
        <time>2013-09-20T15:02:15Z</time>
      </trkpt>
      <trkpt lat="44.22318" lon="7.02605">
        <ele>2548</ele>
        <time>2013-09-20T15:02:23Z</time>
      </trkpt>
      <trkpt lat="44.22316" lon="7.02597">
        <ele>2547</ele>
        <time>2013-09-20T15:02:27Z</time>
      </trkpt>
      <trkpt lat="44.22316" lon="7.02596">
        <ele>2546</ele>
        <time>2013-09-20T15:02:48Z</time>
      </trkpt>
      <trkpt lat="44.22302" lon="7.02373">
        <ele>2535</ele>
        <time>2013-09-20T15:09:02Z</time>
      </trkpt>
      <trkpt lat="44.22306" lon="7.02359">
        <ele>2536</ele>
        <time>2013-09-20T15:09:14Z</time>
      </trkpt>
      <trkpt lat="44.22308" lon="7.02352">
        <ele>2537</ele>
        <time>2013-09-20T15:09:22Z</time>
      </trkpt>
      <trkpt lat="44.22314" lon="7.02339">
        <ele>2539</ele>
        <time>2013-09-20T15:09:38Z</time>
      </trkpt>
      <trkpt lat="44.22319" lon="7.02319">
        <ele>2541</ele>
        <time>2013-09-20T15:09:57Z</time>
      </trkpt>
      <trkpt lat="44.22325" lon="7.02301">
        <ele>2542</ele>
        <time>2013-09-20T15:10:10Z</time>
      </trkpt>
      <trkpt lat="44.22332" lon="7.02275">
        <ele>2543</ele>
        <time>2013-09-20T15:10:25Z</time>
      </trkpt>
      <trkpt lat="44.22332" lon="7.02262">
        <ele>2544</ele>
        <time>2013-09-20T15:10:37Z</time>
      </trkpt>
      <trkpt lat="44.22333" lon="7.0225">
        <ele>2544</ele>
        <time>2013-09-20T15:10:49Z</time>
      </trkpt>
      <trkpt lat="44.22337" lon="7.02236">
        <ele>2545</ele>
        <time>2013-09-20T15:11:07Z</time>
      </trkpt>
      <trkpt lat="44.22347" lon="7.02207">
        <ele>2545</ele>
        <time>2013-09-20T15:11:17Z</time>
      </trkpt>
      <trkpt lat="44.22359" lon="7.02171">
        <ele>2545</ele>
        <time>2013-09-20T15:11:29Z</time>
      </trkpt>
      <trkpt lat="44.22357" lon="7.0214">
        <ele>2545</ele>
        <time>2013-09-20T15:11:38Z</time>
      </trkpt>
      <trkpt lat="44.22357" lon="7.02139">
        <ele>2544</ele>
        <time>2013-09-20T15:12:15Z</time>
      </trkpt>
      <trkpt lat="44.22354" lon="7.02127">
        <ele>2543</ele>
        <time>2013-09-20T15:13:13Z</time>
      </trkpt>
      <trkpt lat="44.22358" lon="7.02111">
        <ele>2543</ele>
        <time>2013-09-20T15:13:17Z</time>
      </trkpt>
      <trkpt lat="44.22363" lon="7.02064">
        <ele>2542</ele>
        <time>2013-09-20T15:13:25Z</time>
      </trkpt>
      <trkpt lat="44.22372" lon="7.02044">
        <ele>2542</ele>
        <time>2013-09-20T15:13:29Z</time>
      </trkpt>
      <trkpt lat="44.22385" lon="7.02036">
        <ele>2542</ele>
        <time>2013-09-20T15:13:33Z</time>
      </trkpt>
      <trkpt lat="44.22404" lon="7.01999">
        <ele>2541</ele>
        <time>2013-09-20T15:13:41Z</time>
      </trkpt>
      <trkpt lat="44.224" lon="7.01987">
        <ele>2541</ele>
        <time>2013-09-20T15:13:45Z</time>
      </trkpt>
      <trkpt lat="44.22396" lon="7.02001">
        <ele>2541</ele>
        <time>2013-09-20T15:13:49Z</time>
      </trkpt>
      <trkpt lat="44.22393" lon="7.02">
        <ele>2540</ele>
        <time>2013-09-20T15:13:51Z</time>
      </trkpt>
      <trkpt lat="44.22388" lon="7.01963">
        <ele>2539</ele>
        <time>2013-09-20T15:13:58Z</time>
      </trkpt>
      <trkpt lat="44.22376" lon="7.01938">
        <ele>2538</ele>
        <time>2013-09-20T15:14:07Z</time>
      </trkpt>
      <trkpt lat="44.22371" lon="7.01945">
        <ele>2537</ele>
        <time>2013-09-20T15:14:13Z</time>
      </trkpt>
      <trkpt lat="44.22377" lon="7.01914">
        <ele>2535</ele>
        <time>2013-09-20T15:14:21Z</time>
      </trkpt>
      <trkpt lat="44.22381" lon="7.01909">
        <ele>2534</ele>
        <time>2013-09-20T15:14:26Z</time>
      </trkpt>
      <trkpt lat="44.22383" lon="7.01903">
        <ele>2533</ele>
        <time>2013-09-20T15:14:33Z</time>
      </trkpt>
      <trkpt lat="44.22389" lon="7.01895">
        <ele>2531</ele>
        <time>2013-09-20T15:14:41Z</time>
      </trkpt>
      <trkpt lat="44.22392" lon="7.01892">
        <ele>2530</ele>
        <time>2013-09-20T15:14:46Z</time>
      </trkpt>
      <trkpt lat="44.22396" lon="7.01884">
        <ele>2529</ele>
        <time>2013-09-20T15:14:54Z</time>
      </trkpt>
      <trkpt lat="44.22403" lon="7.01872">
        <ele>2527</ele>
        <time>2013-09-20T15:15:02Z</time>
      </trkpt>
      <trkpt lat="44.22404" lon="7.01857">
        <ele>2526</ele>
        <time>2013-09-20T15:15:09Z</time>
      </trkpt>
      <trkpt lat="44.22403" lon="7.01851">
        <ele>2524</ele>
        <time>2013-09-20T15:15:15Z</time>
      </trkpt>
      <trkpt lat="44.224" lon="7.01834">
        <ele>2520</ele>
        <time>2013-09-20T15:15:35Z</time>
      </trkpt>
      <trkpt lat="44.22396" lon="7.01834">
        <ele>2518</ele>
        <time>2013-09-20T15:15:45Z</time>
      </trkpt>
      <trkpt lat="44.22393" lon="7.01844">
        <ele>2515</ele>
        <time>2013-09-20T15:15:58Z</time>
      </trkpt>
      <trkpt lat="44.22391" lon="7.01842">
        <ele>2512</ele>
        <time>2013-09-20T15:16:09Z</time>
      </trkpt>
      <trkpt lat="44.22385" lon="7.01828">
        <ele>2508</ele>
        <time>2013-09-20T15:16:24Z</time>
      </trkpt>
      <trkpt lat="44.22379" lon="7.01809">
        <ele>2504</ele>
        <time>2013-09-20T15:16:39Z</time>
      </trkpt>
      <trkpt lat="44.22374" lon="7.01798">
        <ele>2501</ele>
        <time>2013-09-20T15:16:50Z</time>
      </trkpt>
      <trkpt lat="44.22373" lon="7.01766">
        <ele>2499</ele>
        <time>2013-09-20T15:16:58Z</time>
      </trkpt>
      <trkpt lat="44.22373" lon="7.01761">
        <ele>2493</ele>
        <time>2013-09-20T15:17:17Z</time>
      </trkpt>
      <trkpt lat="44.22372" lon="7.01758">
        <ele>2487</ele>
        <time>2013-09-20T15:17:44Z</time>
      </trkpt>
      <trkpt lat="44.22367" lon="7.01753">
        <ele>2485</ele>
        <time>2013-09-20T15:17:54Z</time>
      </trkpt>
      <trkpt lat="44.2236" lon="7.01743">
        <ele>2482</ele>
        <time>2013-09-20T15:18:07Z</time>
      </trkpt>
      <trkpt lat="44.2235" lon="7.01716">
        <ele>2480</ele>
        <time>2013-09-20T15:18:16Z</time>
      </trkpt>
      <trkpt lat="44.22342" lon="7.01699">
        <ele>2477</ele>
        <time>2013-09-20T15:18:25Z</time>
      </trkpt>
      <trkpt lat="44.22331" lon="7.0168">
        <ele>2475</ele>
        <time>2013-09-20T15:18:33Z</time>
      </trkpt>
      <trkpt lat="44.22321" lon="7.01664">
        <ele>2473</ele>
        <time>2013-09-20T15:18:38Z</time>
      </trkpt>
      <trkpt lat="44.22303" lon="7.01632">
        <ele>2470</ele>
        <time>2013-09-20T15:18:49Z</time>
      </trkpt>
      <trkpt lat="44.22298" lon="7.01626">
        <ele>2469</ele>
        <time>2013-09-20T15:18:55Z</time>
      </trkpt>
      <trkpt lat="44.22296" lon="7.01624">
        <ele>2469</ele>
        <time>2013-09-20T15:18:57Z</time>
      </trkpt>
      <trkpt lat="44.22291" lon="7.01611">
        <ele>2467</ele>
        <time>2013-09-20T15:19:02Z</time>
      </trkpt>
      <trkpt lat="44.22265" lon="7.0159">
        <ele>2465</ele>
        <time>2013-09-20T15:19:12Z</time>
      </trkpt>
      <trkpt lat="44.22258" lon="7.01574">
        <ele>2463</ele>
        <time>2013-09-20T15:19:18Z</time>
      </trkpt>
      <trkpt lat="44.22253" lon="7.01567">
        <ele>2462</ele>
        <time>2013-09-20T15:19:22Z</time>
      </trkpt>
      <trkpt lat="44.22241" lon="7.01542">
        <ele>2460</ele>
        <time>2013-09-20T15:19:31Z</time>
      </trkpt>
      <trkpt lat="44.22234" lon="7.01536">
        <ele>2458</ele>
        <time>2013-09-20T15:19:39Z</time>
      </trkpt>
      <trkpt lat="44.22226" lon="7.0153">
        <ele>2456</ele>
        <time>2013-09-20T15:19:48Z</time>
      </trkpt>
      <trkpt lat="44.22218" lon="7.01525">
        <ele>2454</ele>
        <time>2013-09-20T15:19:53Z</time>
      </trkpt>
      <trkpt lat="44.22204" lon="7.01511">
        <ele>2452</ele>
        <time>2013-09-20T15:20:03Z</time>
      </trkpt>
      <trkpt lat="44.22185" lon="7.0149">
        <ele>2449</ele>
        <time>2013-09-20T15:20:13Z</time>
      </trkpt>
      <trkpt lat="44.22161" lon="7.01469">
        <ele>2446</ele>
        <time>2013-09-20T15:20:24Z</time>
      </trkpt>
      <trkpt lat="44.22145" lon="7.01442">
        <ele>2444</ele>
        <time>2013-09-20T15:20:35Z</time>
      </trkpt>
      <trkpt lat="44.22129" lon="7.01413">
        <ele>2441</ele>
        <time>2013-09-20T15:20:46Z</time>
      </trkpt>
      <trkpt lat="44.22126" lon="7.01376">
        <ele>2439</ele>
        <time>2013-09-20T15:20:56Z</time>
      </trkpt>
      <trkpt lat="44.22126" lon="7.01371">
        <ele>2434</ele>
        <time>2013-09-20T15:21:23Z</time>
      </trkpt>
      <trkpt lat="44.22126" lon="7.01371">
        <ele>2431</ele>
        <time>2013-09-20T15:21:43Z</time>
      </trkpt>
      <trkpt lat="44.22128" lon="7.01356">
        <ele>2429</ele>
        <time>2013-09-20T15:21:57Z</time>
      </trkpt>
      <trkpt lat="44.22131" lon="7.01335">
        <ele>2427</ele>
        <time>2013-09-20T15:22:04Z</time>
      </trkpt>
      <trkpt lat="44.22123" lon="7.01334">
        <ele>2427</ele>
        <time>2013-09-20T15:22:08Z</time>
      </trkpt>
      <trkpt lat="44.2212" lon="7.01325">
        <ele>2426</ele>
        <time>2013-09-20T15:22:11Z</time>
      </trkpt>
      <trkpt lat="44.22124" lon="7.01295">
        <ele>2424</ele>
        <time>2013-09-20T15:22:22Z</time>
      </trkpt>
      <trkpt lat="44.22124" lon="7.01287">
        <ele>2419</ele>
        <time>2013-09-20T15:22:47Z</time>
      </trkpt>
      <trkpt lat="44.22134" lon="7.01253">
        <ele>2417</ele>
        <time>2013-09-20T15:22:55Z</time>
      </trkpt>
      <trkpt lat="44.22143" lon="7.01224">
        <ele>2415</ele>
        <time>2013-09-20T15:23:02Z</time>
      </trkpt>
      <trkpt lat="44.22157" lon="7.01196">
        <ele>2414</ele>
        <time>2013-09-20T15:23:08Z</time>
      </trkpt>
      <trkpt lat="44.22175" lon="7.01155">
        <ele>2411</ele>
        <time>2013-09-20T15:23:18Z</time>
      </trkpt>
      <trkpt lat="44.22194" lon="7.01117">
        <ele>2410</ele>
        <time>2013-09-20T15:23:25Z</time>
      </trkpt>
      <trkpt lat="44.22201" lon="7.01093">
        <ele>2408</ele>
        <time>2013-09-20T15:23:29Z</time>
      </trkpt>
      <trkpt lat="44.22207" lon="7.0107">
        <ele>2407</ele>
        <time>2013-09-20T15:23:33Z</time>
      </trkpt>
      <trkpt lat="44.22212" lon="7.0104">
        <ele>2406</ele>
        <time>2013-09-20T15:23:38Z</time>
      </trkpt>
      <trkpt lat="44.22213" lon="7.01001">
        <ele>2404</ele>
        <time>2013-09-20T15:23:46Z</time>
      </trkpt>
      <trkpt lat="44.22211" lon="7.00984">
        <ele>2402</ele>
        <time>2013-09-20T15:23:52Z</time>
      </trkpt>
      <trkpt lat="44.22212" lon="7.00963">
        <ele>2400</ele>
        <time>2013-09-20T15:23:58Z</time>
      </trkpt>
      <trkpt lat="44.22212" lon="7.00929">
        <ele>2398</ele>
        <time>2013-09-20T15:24:06Z</time>
      </trkpt>
      <trkpt lat="44.22212" lon="7.00916">
        <ele>2397</ele>
        <time>2013-09-20T15:24:10Z</time>
      </trkpt>
      <trkpt lat="44.22212" lon="7.00907">
        <ele>2395</ele>
        <time>2013-09-20T15:24:16Z</time>
      </trkpt>
      <trkpt lat="44.22212" lon="7.00897">
        <ele>2391</ele>
        <time>2013-09-20T15:24:30Z</time>
      </trkpt>
      <trkpt lat="44.22201" lon="7.009">
        <ele>2389</ele>
        <time>2013-09-20T15:24:36Z</time>
      </trkpt>
      <trkpt lat="44.2218" lon="7.00938">
        <ele>2386</ele>
        <time>2013-09-20T15:24:45Z</time>
      </trkpt>
      <trkpt lat="44.2216" lon="7.00968">
        <ele>2384</ele>
        <time>2013-09-20T15:24:51Z</time>
      </trkpt>
      <trkpt lat="44.22153" lon="7.00983">
        <ele>2382</ele>
        <time>2013-09-20T15:24:54Z</time>
      </trkpt>
      <trkpt lat="44.22149" lon="7.00955">
        <ele>2380</ele>
        <time>2013-09-20T15:25:01Z</time>
      </trkpt>
      <trkpt lat="44.22152" lon="7.00885">
        <ele>2377</ele>
        <time>2013-09-20T15:25:10Z</time>
      </trkpt>
      <trkpt lat="44.22148" lon="7.00866">
        <ele>2376</ele>
        <time>2013-09-20T15:25:13Z</time>
      </trkpt>
      <trkpt lat="44.22146" lon="7.00836">
        <ele>2374</ele>
        <time>2013-09-20T15:25:17Z</time>
      </trkpt>
      <trkpt lat="44.22152" lon="7.00799">
        <ele>2372</ele>
        <time>2013-09-20T15:25:22Z</time>
      </trkpt>
      <trkpt lat="44.22148" lon="7.00773">
        <ele>2371</ele>
        <time>2013-09-20T15:25:26Z</time>
      </trkpt>
      <trkpt lat="44.22149" lon="7.00746">
        <ele>2369</ele>
        <time>2013-09-20T15:25:30Z</time>
      </trkpt>
      <trkpt lat="44.22152" lon="7.00719">
        <ele>2367</ele>
        <time>2013-09-20T15:25:34Z</time>
      </trkpt>
      <trkpt lat="44.22158" lon="7.00686">
        <ele>2365</ele>
        <time>2013-09-20T15:25:39Z</time>
      </trkpt>
      <trkpt lat="44.2216" lon="7.00652">
        <ele>2363</ele>
        <time>2013-09-20T15:25:44Z</time>
      </trkpt>
      <trkpt lat="44.22165" lon="7.00607">
        <ele>2360</ele>
        <time>2013-09-20T15:25:50Z</time>
      </trkpt>
      <trkpt lat="44.22175" lon="7.00539">
        <ele>2357</ele>
        <time>2013-09-20T15:25:58Z</time>
      </trkpt>
      <trkpt lat="44.22188" lon="7.00444">
        <ele>2352</ele>
        <time>2013-09-20T15:26:07Z</time>
      </trkpt>
      <trkpt lat="44.2219" lon="7.00419">
        <ele>2351</ele>
        <time>2013-09-20T15:26:10Z</time>
      </trkpt>
      <trkpt lat="44.222" lon="7.00383">
        <ele>2349</ele>
        <time>2013-09-20T15:26:14Z</time>
      </trkpt>
      <trkpt lat="44.22208" lon="7.00334">
        <ele>2346</ele>
        <time>2013-09-20T15:26:19Z</time>
      </trkpt>
      <trkpt lat="44.22216" lon="7.00308">
        <ele>2345</ele>
        <time>2013-09-20T15:26:22Z</time>
      </trkpt>
      <trkpt lat="44.22226" lon="7.00272">
        <ele>2343</ele>
        <time>2013-09-20T15:26:26Z</time>
      </trkpt>
      <trkpt lat="44.22231" lon="7.00243">
        <ele>2341</ele>
        <time>2013-09-20T15:26:30Z</time>
      </trkpt>
      <trkpt lat="44.22234" lon="7.00215">
        <ele>2339</ele>
        <time>2013-09-20T15:26:34Z</time>
      </trkpt>
      <trkpt lat="44.22251" lon="7.00178">
        <ele>2336</ele>
        <time>2013-09-20T15:26:39Z</time>
      </trkpt>
      <trkpt lat="44.22255" lon="7.0016">
        <ele>2334</ele>
        <time>2013-09-20T15:26:42Z</time>
      </trkpt>
      <trkpt lat="44.2227" lon="7.00142">
        <ele>2332</ele>
        <time>2013-09-20T15:26:46Z</time>
      </trkpt>
      <trkpt lat="44.22275" lon="7.0013">
        <ele>2331</ele>
        <time>2013-09-20T15:26:49Z</time>
      </trkpt>
      <trkpt lat="44.22278" lon="7.00124">
        <ele>2328</ele>
        <time>2013-09-20T15:26:53Z</time>
      </trkpt>
      <trkpt lat="44.2228" lon="7.0011">
        <ele>2326</ele>
        <time>2013-09-20T15:26:58Z</time>
      </trkpt>
      <trkpt lat="44.22306" lon="7.00068">
        <ele>2321</ele>
        <time>2013-09-20T15:27:07Z</time>
      </trkpt>
      <trkpt lat="44.22324" lon="7.00047">
        <ele>2319</ele>
        <time>2013-09-20T15:27:11Z</time>
      </trkpt>
      <trkpt lat="44.22339" lon="7.00048">
        <ele>2316</ele>
        <time>2013-09-20T15:27:17Z</time>
      </trkpt>
      <trkpt lat="44.22345" lon="7.00064">
        <ele>2313</ele>
        <time>2013-09-20T15:27:22Z</time>
      </trkpt>
      <trkpt lat="44.22355" lon="7.001">
        <ele>2308</ele>
        <time>2013-09-20T15:27:32Z</time>
      </trkpt>
      <trkpt lat="44.22366" lon="7.00153">
        <ele>2301</ele>
        <time>2013-09-20T15:27:44Z</time>
      </trkpt>
      <trkpt lat="44.22384" lon="7.00188">
        <ele>2295</ele>
        <time>2013-09-20T15:27:55Z</time>
      </trkpt>
      <trkpt lat="44.22403" lon="7.00214">
        <ele>2290</ele>
        <time>2013-09-20T15:28:05Z</time>
      </trkpt>
      <trkpt lat="44.2243" lon="7.00214">
        <ele>2286</ele>
        <time>2013-09-20T15:28:14Z</time>
      </trkpt>
      <trkpt lat="44.2244" lon="7.00211">
        <ele>2283</ele>
        <time>2013-09-20T15:28:18Z</time>
      </trkpt>
      <trkpt lat="44.22448" lon="7.00212">
        <ele>2281</ele>
        <time>2013-09-20T15:28:22Z</time>
      </trkpt>
      <trkpt lat="44.22475" lon="7.00199">
        <ele>2275</ele>
        <time>2013-09-20T15:28:33Z</time>
      </trkpt>
      <trkpt lat="44.2251" lon="7.00169">
        <ele>2271</ele>
        <time>2013-09-20T15:28:41Z</time>
      </trkpt>
      <trkpt lat="44.22522" lon="7.00139">
        <ele>2268</ele>
        <time>2013-09-20T15:28:46Z</time>
      </trkpt>
      <trkpt lat="44.22527" lon="7.0011">
        <ele>2266</ele>
        <time>2013-09-20T15:28:51Z</time>
      </trkpt>
      <trkpt lat="44.22536" lon="7.00087">
        <ele>2264</ele>
        <time>2013-09-20T15:28:55Z</time>
      </trkpt>
      <trkpt lat="44.22538" lon="7.00075">
        <ele>2263</ele>
        <time>2013-09-20T15:28:57Z</time>
      </trkpt>
      <trkpt lat="44.22548" lon="7.00046">
        <ele>2260</ele>
        <time>2013-09-20T15:29:03Z</time>
      </trkpt>
      <trkpt lat="44.22554" lon="7.00028">
        <ele>2257</ele>
        <time>2013-09-20T15:29:08Z</time>
      </trkpt>
      <trkpt lat="44.22556" lon="7.00023">
        <ele>2241</ele>
        <time>2013-09-20T15:29:49Z</time>
      </trkpt>
      <trkpt lat="44.22557" lon="7.00026">
        <ele>2235</ele>
        <time>2013-09-20T15:30:08Z</time>
      </trkpt>
      <trkpt lat="44.22556" lon="7.00028">
        <ele>2210</ele>
        <time>2013-09-20T15:32:57Z</time>
      </trkpt>
      <trkpt lat="44.22554" lon="7.00024">
        <ele>2207</ele>
        <time>2013-09-20T15:33:39Z</time>
      </trkpt>
      <trkpt lat="44.2256" lon="7.00009">
        <ele>2206</ele>
        <time>2013-09-20T15:33:55Z</time>
      </trkpt>
      <trkpt lat="44.22565" lon="6.99986">
        <ele>2206</ele>
        <time>2013-09-20T15:34:03Z</time>
      </trkpt>
      <trkpt lat="44.22566" lon="6.99964">
        <ele>2205</ele>
        <time>2013-09-20T15:34:12Z</time>
      </trkpt>
      <trkpt lat="44.22568" lon="6.99932">
        <ele>2205</ele>
        <time>2013-09-20T15:34:25Z</time>
      </trkpt>
      <trkpt lat="44.22578" lon="6.99907">
        <ele>2205</ele>
        <time>2013-09-20T15:34:37Z</time>
      </trkpt>
      <trkpt lat="44.22597" lon="6.99878">
        <ele>2204</ele>
        <time>2013-09-20T15:34:49Z</time>
      </trkpt>
      <trkpt lat="44.22621" lon="6.99839">
        <ele>2204</ele>
        <time>2013-09-20T15:35:01Z</time>
      </trkpt>
      <trkpt lat="44.22646" lon="6.99824">
        <ele>2204</ele>
        <time>2013-09-20T15:35:10Z</time>
      </trkpt>
      <trkpt lat="44.22662" lon="6.99812">
        <ele>2203</ele>
        <time>2013-09-20T15:35:17Z</time>
      </trkpt>
      <trkpt lat="44.22667" lon="6.99806">
        <ele>2203</ele>
        <time>2013-09-20T15:35:20Z</time>
      </trkpt>
      <trkpt lat="44.22672" lon="6.99809">
        <ele>2203</ele>
        <time>2013-09-20T15:35:23Z</time>
      </trkpt>
      <trkpt lat="44.22675" lon="6.99812">
        <ele>2202</ele>
        <time>2013-09-20T15:35:26Z</time>
      </trkpt>
      <trkpt lat="44.22677" lon="6.9981">
        <ele>2202</ele>
        <time>2013-09-20T15:35:31Z</time>
      </trkpt>
      <trkpt lat="44.22682" lon="6.99804">
        <ele>2201</ele>
        <time>2013-09-20T15:35:36Z</time>
      </trkpt>
      <trkpt lat="44.22679" lon="6.99793">
        <ele>2200</ele>
        <time>2013-09-20T15:35:42Z</time>
      </trkpt>
      <trkpt lat="44.22681" lon="6.99792">
        <ele>2199</ele>
        <time>2013-09-20T15:35:49Z</time>
      </trkpt>
      <trkpt lat="44.22692" lon="6.99799">
        <ele>2198</ele>
        <time>2013-09-20T15:35:57Z</time>
      </trkpt>
      <trkpt lat="44.22696" lon="6.99797">
        <ele>2198</ele>
        <time>2013-09-20T15:36:01Z</time>
      </trkpt>
      <trkpt lat="44.22696" lon="6.99787">
        <ele>2197</ele>
        <time>2013-09-20T15:36:06Z</time>
      </trkpt>
      <trkpt lat="44.22705" lon="6.99795">
        <ele>2196</ele>
        <time>2013-09-20T15:36:11Z</time>
      </trkpt>
      <trkpt lat="44.22729" lon="6.99786">
        <ele>2195</ele>
        <time>2013-09-20T15:36:19Z</time>
      </trkpt>
      <trkpt lat="44.22738" lon="6.9979">
        <ele>2194</ele>
        <time>2013-09-20T15:36:23Z</time>
      </trkpt>
      <trkpt lat="44.22742" lon="6.99781">
        <ele>2194</ele>
        <time>2013-09-20T15:36:27Z</time>
      </trkpt>
      <trkpt lat="44.22758" lon="6.99762">
        <ele>2191</ele>
        <time>2013-09-20T15:36:37Z</time>
      </trkpt>
      <trkpt lat="44.22768" lon="6.99747">
        <ele>2190</ele>
        <time>2013-09-20T15:36:43Z</time>
      </trkpt>
      <trkpt lat="44.22778" lon="6.99732">
        <ele>2188</ele>
        <time>2013-09-20T15:36:50Z</time>
      </trkpt>
      <trkpt lat="44.22774" lon="6.99731">
        <ele>2187</ele>
        <time>2013-09-20T15:36:52Z</time>
      </trkpt>
      <trkpt lat="44.22768" lon="6.99726">
        <ele>2186</ele>
        <time>2013-09-20T15:36:57Z</time>
      </trkpt>
      <trkpt lat="44.22775" lon="6.99713">
        <ele>2184</ele>
        <time>2013-09-20T15:37:02Z</time>
      </trkpt>
      <trkpt lat="44.22781" lon="6.99704">
        <ele>2183</ele>
        <time>2013-09-20T15:37:06Z</time>
      </trkpt>
      <trkpt lat="44.22783" lon="6.99703">
        <ele>2178</ele>
        <time>2013-09-20T15:37:23Z</time>
      </trkpt>
      <trkpt lat="44.22787" lon="6.99691">
        <ele>2176</ele>
        <time>2013-09-20T15:37:29Z</time>
      </trkpt>
      <trkpt lat="44.22796" lon="6.99675">
        <ele>2172</ele>
        <time>2013-09-20T15:37:39Z</time>
      </trkpt>
      <trkpt lat="44.22803" lon="6.99663">
        <ele>2170</ele>
        <time>2013-09-20T15:37:46Z</time>
      </trkpt>
      <trkpt lat="44.22802" lon="6.99662">
        <ele>2168</ele>
        <time>2013-09-20T15:37:51Z</time>
      </trkpt>
      <trkpt lat="44.22798" lon="6.99663">
        <ele>2165</ele>
        <time>2013-09-20T15:38:01Z</time>
      </trkpt>
      <trkpt lat="44.22781" lon="6.99657">
        <ele>2162</ele>
        <time>2013-09-20T15:38:09Z</time>
      </trkpt>
      <trkpt lat="44.22763" lon="6.99638">
        <ele>2159</ele>
        <time>2013-09-20T15:38:18Z</time>
      </trkpt>
      <trkpt lat="44.22759" lon="6.9963">
        <ele>2158</ele>
        <time>2013-09-20T15:38:21Z</time>
      </trkpt>
      <trkpt lat="44.22759" lon="6.99621">
        <ele>2157</ele>
        <time>2013-09-20T15:38:25Z</time>
      </trkpt>
      <trkpt lat="44.22768" lon="6.99616">
        <ele>2155</ele>
        <time>2013-09-20T15:38:29Z</time>
      </trkpt>
      <trkpt lat="44.22775" lon="6.99612">
        <ele>2154</ele>
        <time>2013-09-20T15:38:33Z</time>
      </trkpt>
      <trkpt lat="44.2279" lon="6.99599">
        <ele>2152</ele>
        <time>2013-09-20T15:38:38Z</time>
      </trkpt>
      <trkpt lat="44.2281" lon="6.9958">
        <ele>2149</ele>
        <time>2013-09-20T15:38:45Z</time>
      </trkpt>
      <trkpt lat="44.22822" lon="6.99554">
        <ele>2147</ele>
        <time>2013-09-20T15:38:51Z</time>
      </trkpt>
      <trkpt lat="44.22848" lon="6.99533">
        <ele>2143</ele>
        <time>2013-09-20T15:38:59Z</time>
      </trkpt>
      <trkpt lat="44.22857" lon="6.99506">
        <ele>2140</ele>
        <time>2013-09-20T15:39:06Z</time>
      </trkpt>
      <trkpt lat="44.22861" lon="6.99476">
        <ele>2135</ele>
        <time>2013-09-20T15:39:16Z</time>
      </trkpt>
      <trkpt lat="44.22858" lon="6.99477">
        <ele>2126</ele>
        <time>2013-09-20T15:39:36Z</time>
      </trkpt>
      <trkpt lat="44.22851" lon="6.99481">
        <ele>2124</ele>
        <time>2013-09-20T15:39:39Z</time>
      </trkpt>
      <trkpt lat="44.22836" lon="6.99478">
        <ele>2121</ele>
        <time>2013-09-20T15:39:46Z</time>
      </trkpt>
      <trkpt lat="44.22836" lon="6.99466">
        <ele>2120</ele>
        <time>2013-09-20T15:39:50Z</time>
      </trkpt>
      <trkpt lat="44.22832" lon="6.99457">
        <ele>2118</ele>
        <time>2013-09-20T15:39:53Z</time>
      </trkpt>
      <trkpt lat="44.22833" lon="6.99446">
        <ele>2117</ele>
        <time>2013-09-20T15:39:57Z</time>
      </trkpt>
      <trkpt lat="44.22828" lon="6.99437">
        <ele>2115</ele>
        <time>2013-09-20T15:40:01Z</time>
      </trkpt>
      <trkpt lat="44.22816" lon="6.99431">
        <ele>2112</ele>
        <time>2013-09-20T15:40:07Z</time>
      </trkpt>
      <trkpt lat="44.22818" lon="6.99429">
        <ele>2111</ele>
        <time>2013-09-20T15:40:09Z</time>
      </trkpt>
      <trkpt lat="44.22824" lon="6.99424">
        <ele>2107</ele>
        <time>2013-09-20T15:40:17Z</time>
      </trkpt>
      <trkpt lat="44.22833" lon="6.99415">
        <ele>2105</ele>
        <time>2013-09-20T15:40:22Z</time>
      </trkpt>
      <trkpt lat="44.22837" lon="6.99387">
        <ele>2102</ele>
        <time>2013-09-20T15:40:29Z</time>
      </trkpt>
      <trkpt lat="44.2284" lon="6.99363">
        <ele>2098</ele>
        <time>2013-09-20T15:40:36Z</time>
      </trkpt>
      <trkpt lat="44.22847" lon="6.99354">
        <ele>2096</ele>
        <time>2013-09-20T15:40:40Z</time>
      </trkpt>
      <trkpt lat="44.22844" lon="6.99351">
        <ele>2095</ele>
        <time>2013-09-20T15:40:42Z</time>
      </trkpt>
      <trkpt lat="44.22814" lon="6.99346">
        <ele>2090</ele>
        <time>2013-09-20T15:40:52Z</time>
      </trkpt>
      <trkpt lat="44.22805" lon="6.9933">
        <ele>2085</ele>
        <time>2013-09-20T15:41:01Z</time>
      </trkpt>
      <trkpt lat="44.22813" lon="6.99317">
        <ele>2082</ele>
        <time>2013-09-20T15:41:06Z</time>
      </trkpt>
      <trkpt lat="44.22827" lon="6.99293">
        <ele>2077</ele>
        <time>2013-09-20T15:41:15Z</time>
      </trkpt>
      <trkpt lat="44.22838" lon="6.99275">
        <ele>2075</ele>
        <time>2013-09-20T15:41:19Z</time>
      </trkpt>
      <trkpt lat="44.22846" lon="6.99264">
        <ele>2073</ele>
        <time>2013-09-20T15:41:22Z</time>
      </trkpt>
      <trkpt lat="44.2285" lon="6.99236">
        <ele>2070</ele>
        <time>2013-09-20T15:41:28Z</time>
      </trkpt>
      <trkpt lat="44.22852" lon="6.99225">
        <ele>2060</ele>
        <time>2013-09-20T15:41:48Z</time>
      </trkpt>
      <trkpt lat="44.22851" lon="6.99219">
        <ele>2036</ele>
        <time>2013-09-20T15:43:02Z</time>
      </trkpt>
      <trkpt lat="44.22851" lon="6.99218">
        <ele>2029</ele>
        <time>2013-09-20T15:43:37Z</time>
      </trkpt>
      <trkpt lat="44.22852" lon="6.99224">
        <ele>2026</ele>
        <time>2013-09-20T15:43:55Z</time>
      </trkpt>
      <trkpt lat="44.2285" lon="6.99227">
        <ele>2015</ele>
        <time>2013-09-20T15:45:27Z</time>
      </trkpt>
      <trkpt lat="44.22855" lon="6.99223">
        <ele>2010</ele>
        <time>2013-09-20T16:01:40Z</time>
      </trkpt>
      <trkpt lat="44.2286" lon="6.99203">
        <ele>2010</ele>
        <time>2013-09-20T16:01:49Z</time>
      </trkpt>
      <trkpt lat="44.2287" lon="6.99185">
        <ele>2009</ele>
        <time>2013-09-20T16:01:55Z</time>
      </trkpt>
      <trkpt lat="44.22887" lon="6.99155">
        <ele>2008</ele>
        <time>2013-09-20T16:02:05Z</time>
      </trkpt>
      <trkpt lat="44.22903" lon="6.99135">
        <ele>2007</ele>
        <time>2013-09-20T16:02:13Z</time>
      </trkpt>
      <trkpt lat="44.22911" lon="6.99125">
        <ele>2007</ele>
        <time>2013-09-20T16:02:17Z</time>
      </trkpt>
      <trkpt lat="44.2292" lon="6.99101">
        <ele>2005</ele>
        <time>2013-09-20T16:02:24Z</time>
      </trkpt>
      <trkpt lat="44.22931" lon="6.99072">
        <ele>2004</ele>
        <time>2013-09-20T16:02:33Z</time>
      </trkpt>
      <trkpt lat="44.22927" lon="6.99062">
        <ele>2002</ele>
        <time>2013-09-20T16:02:41Z</time>
      </trkpt>
      <trkpt lat="44.2292" lon="6.99066">
        <ele>2001</ele>
        <time>2013-09-20T16:02:45Z</time>
      </trkpt>
      <trkpt lat="44.2292" lon="6.99061">
        <ele>2000</ele>
        <time>2013-09-20T16:02:49Z</time>
      </trkpt>
      <trkpt lat="44.22921" lon="6.99053">
        <ele>1998</ele>
        <time>2013-09-20T16:02:58Z</time>
      </trkpt>
      <trkpt lat="44.22927" lon="6.99014">
        <ele>1995</ele>
        <time>2013-09-20T16:03:10Z</time>
      </trkpt>
      <trkpt lat="44.22933" lon="6.98979">
        <ele>1992</ele>
        <time>2013-09-20T16:03:20Z</time>
      </trkpt>
      <trkpt lat="44.22936" lon="6.98942">
        <ele>1989</ele>
        <time>2013-09-20T16:03:30Z</time>
      </trkpt>
      <trkpt lat="44.22934" lon="6.98912">
        <ele>1986</ele>
        <time>2013-09-20T16:03:38Z</time>
      </trkpt>
      <trkpt lat="44.22927" lon="6.98867">
        <ele>1983</ele>
        <time>2013-09-20T16:03:46Z</time>
      </trkpt>
      <trkpt lat="44.22918" lon="6.98833">
        <ele>1981</ele>
        <time>2013-09-20T16:03:54Z</time>
      </trkpt>
      <trkpt lat="44.22919" lon="6.98823">
        <ele>1980</ele>
        <time>2013-09-20T16:03:57Z</time>
      </trkpt>
      <trkpt lat="44.22923" lon="6.98802">
        <ele>1977</ele>
        <time>2013-09-20T16:04:04Z</time>
      </trkpt>
      <trkpt lat="44.22921" lon="6.98791">
        <ele>1975</ele>
        <time>2013-09-20T16:04:09Z</time>
      </trkpt>
      <trkpt lat="44.22922" lon="6.98791">
        <ele>1967</ele>
        <time>2013-09-20T16:04:36Z</time>
      </trkpt>
      <trkpt lat="44.22929" lon="6.98784">
        <ele>1954</ele>
        <time>2013-09-20T16:05:32Z</time>
      </trkpt>
      <trkpt lat="44.22937" lon="6.98773">
        <ele>1953</ele>
        <time>2013-09-20T16:05:37Z</time>
      </trkpt>
      <trkpt lat="44.2295" lon="6.98764">
        <ele>1951</ele>
        <time>2013-09-20T16:05:44Z</time>
      </trkpt>
      <trkpt lat="44.2296" lon="6.98749">
        <ele>1949</ele>
        <time>2013-09-20T16:05:49Z</time>
      </trkpt>
      <trkpt lat="44.22969" lon="6.98738">
        <ele>1948</ele>
        <time>2013-09-20T16:05:54Z</time>
      </trkpt>
      <trkpt lat="44.22976" lon="6.98734">
        <ele>1947</ele>
        <time>2013-09-20T16:05:57Z</time>
      </trkpt>
      <trkpt lat="44.2299" lon="6.98724">
        <ele>1944</ele>
        <time>2013-09-20T16:06:05Z</time>
      </trkpt>
      <trkpt lat="44.22991" lon="6.98718">
        <ele>1943</ele>
        <time>2013-09-20T16:06:09Z</time>
      </trkpt>
      <trkpt lat="44.22997" lon="6.98713">
        <ele>1939</ele>
        <time>2013-09-20T16:06:20Z</time>
      </trkpt>
      <trkpt lat="44.22999" lon="6.98706">
        <ele>1938</ele>
        <time>2013-09-20T16:06:24Z</time>
      </trkpt>
      <trkpt lat="44.23008" lon="6.98699">
        <ele>1936</ele>
        <time>2013-09-20T16:06:29Z</time>
      </trkpt>
      <trkpt lat="44.2301" lon="6.98697">
        <ele>1935</ele>
        <time>2013-09-20T16:06:32Z</time>
      </trkpt>
      <trkpt lat="44.23021" lon="6.98693">
        <ele>1933</ele>
        <time>2013-09-20T16:06:38Z</time>
      </trkpt>
      <trkpt lat="44.23027" lon="6.9869">
        <ele>1930</ele>
        <time>2013-09-20T16:06:46Z</time>
      </trkpt>
      <trkpt lat="44.23033" lon="6.98691">
        <ele>1927</ele>
        <time>2013-09-20T16:06:59Z</time>
      </trkpt>
      <trkpt lat="44.23038" lon="6.98674">
        <ele>1924</ele>
        <time>2013-09-20T16:07:09Z</time>
      </trkpt>
      <trkpt lat="44.23042" lon="6.98635">
        <ele>1921</ele>
        <time>2013-09-20T16:07:20Z</time>
      </trkpt>
      <trkpt lat="44.23039" lon="6.98591">
        <ele>1919</ele>
        <time>2013-09-20T16:07:33Z</time>
      </trkpt>
      <trkpt lat="44.23035" lon="6.98547">
        <ele>1916</ele>
        <time>2013-09-20T16:07:45Z</time>
      </trkpt>
      <trkpt lat="44.23035" lon="6.9854">
        <ele>1916</ele>
        <time>2013-09-20T16:07:48Z</time>
      </trkpt>
      <trkpt lat="44.23037" lon="6.98537">
        <ele>1907</ele>
        <time>2013-09-20T16:08:58Z</time>
      </trkpt>
      <trkpt lat="44.23051" lon="6.98509">
        <ele>1905</ele>
        <time>2013-09-20T16:09:08Z</time>
      </trkpt>
      <trkpt lat="44.23058" lon="6.98496">
        <ele>1904</ele>
        <time>2013-09-20T16:09:13Z</time>
      </trkpt>
      <trkpt lat="44.23077" lon="6.98455">
        <ele>1903</ele>
        <time>2013-09-20T16:09:22Z</time>
      </trkpt>
      <trkpt lat="44.23083" lon="6.98448">
        <ele>1902</ele>
        <time>2013-09-20T16:09:25Z</time>
      </trkpt>
      <trkpt lat="44.2308" lon="6.98435">
        <ele>1901</ele>
        <time>2013-09-20T16:09:30Z</time>
      </trkpt>
      <trkpt lat="44.23071" lon="6.98393">
        <ele>1899</ele>
        <time>2013-09-20T16:09:39Z</time>
      </trkpt>
      <trkpt lat="44.23068" lon="6.98362">
        <ele>1898</ele>
        <time>2013-09-20T16:09:44Z</time>
      </trkpt>
      <trkpt lat="44.23069" lon="6.98338">
        <ele>1896</ele>
        <time>2013-09-20T16:09:50Z</time>
      </trkpt>
      <trkpt lat="44.23073" lon="6.98324">
        <ele>1895</ele>
        <time>2013-09-20T16:09:55Z</time>
      </trkpt>
      <trkpt lat="44.23072" lon="6.98316">
        <ele>1894</ele>
        <time>2013-09-20T16:09:59Z</time>
      </trkpt>
      <trkpt lat="44.23071" lon="6.98312">
        <ele>1892</ele>
        <time>2013-09-20T16:10:05Z</time>
      </trkpt>
      <trkpt lat="44.23063" lon="6.98283">
        <ele>1889</ele>
        <time>2013-09-20T16:10:16Z</time>
      </trkpt>
      <trkpt lat="44.23054" lon="6.98246">
        <ele>1886</ele>
        <time>2013-09-20T16:10:26Z</time>
      </trkpt>
      <trkpt lat="44.23041" lon="6.98203">
        <ele>1883</ele>
        <time>2013-09-20T16:10:35Z</time>
      </trkpt>
      <trkpt lat="44.23025" lon="6.98168">
        <ele>1880</ele>
        <time>2013-09-20T16:10:42Z</time>
      </trkpt>
      <trkpt lat="44.2302" lon="6.98153">
        <ele>1879</ele>
        <time>2013-09-20T16:10:45Z</time>
      </trkpt>
      <trkpt lat="44.23008" lon="6.9813">
        <ele>1876</ele>
        <time>2013-09-20T16:10:51Z</time>
      </trkpt>
      <trkpt lat="44.23003" lon="6.98108">
        <ele>1874</ele>
        <time>2013-09-20T16:10:57Z</time>
      </trkpt>
      <trkpt lat="44.23001" lon="6.98073">
        <ele>1869</ele>
        <time>2013-09-20T16:11:06Z</time>
      </trkpt>
      <trkpt lat="44.22998" lon="6.98057">
        <ele>1867</ele>
        <time>2013-09-20T16:11:11Z</time>
      </trkpt>
      <trkpt lat="44.22997" lon="6.98052">
        <ele>1866</ele>
        <time>2013-09-20T16:11:14Z</time>
      </trkpt>
      <trkpt lat="44.22996" lon="6.98039">
        <ele>1855</ele>
        <time>2013-09-20T16:11:37Z</time>
      </trkpt>
      <trkpt lat="44.22992" lon="6.98025">
        <ele>1853</ele>
        <time>2013-09-20T16:11:42Z</time>
      </trkpt>
      <trkpt lat="44.2299" lon="6.98003">
        <ele>1849</ele>
        <time>2013-09-20T16:11:49Z</time>
      </trkpt>
      <trkpt lat="44.2298" lon="6.98007">
        <ele>1846</ele>
        <time>2013-09-20T16:11:56Z</time>
      </trkpt>
      <trkpt lat="44.22971" lon="6.97997">
        <ele>1843</ele>
        <time>2013-09-20T16:12:03Z</time>
      </trkpt>
      <trkpt lat="44.22968" lon="6.97974">
        <ele>1839</ele>
        <time>2013-09-20T16:12:10Z</time>
      </trkpt>
      <trkpt lat="44.22968" lon="6.97945">
        <ele>1834</ele>
        <time>2013-09-20T16:12:19Z</time>
      </trkpt>
      <trkpt lat="44.22957" lon="6.97949">
        <ele>1831</ele>
        <time>2013-09-20T16:12:25Z</time>
      </trkpt>
      <trkpt lat="44.22959" lon="6.97939">
        <ele>1829</ele>
        <time>2013-09-20T16:12:29Z</time>
      </trkpt>
      <trkpt lat="44.22958" lon="6.97931">
        <ele>1827</ele>
        <time>2013-09-20T16:12:34Z</time>
      </trkpt>
      <trkpt lat="44.22951" lon="6.97928">
        <ele>1825</ele>
        <time>2013-09-20T16:12:38Z</time>
      </trkpt>
      <trkpt lat="44.22943" lon="6.97931">
        <ele>1822</ele>
        <time>2013-09-20T16:12:42Z</time>
      </trkpt>
      <trkpt lat="44.22932" lon="6.97937">
        <ele>1820</ele>
        <time>2013-09-20T16:12:47Z</time>
      </trkpt>
      <trkpt lat="44.22931" lon="6.97937">
        <ele>1817</ele>
        <time>2013-09-20T16:12:53Z</time>
      </trkpt>
      <trkpt lat="44.22927" lon="6.97935">
        <ele>1811</ele>
        <time>2013-09-20T16:13:05Z</time>
      </trkpt>
      <trkpt lat="44.22937" lon="6.97904">
        <ele>1807</ele>
        <time>2013-09-20T16:13:14Z</time>
      </trkpt>
      <trkpt lat="44.22937" lon="6.979">
        <ele>1802</ele>
        <time>2013-09-20T16:13:23Z</time>
      </trkpt>
      <trkpt lat="44.22929" lon="6.979">
        <ele>1800</ele>
        <time>2013-09-20T16:13:28Z</time>
      </trkpt>
      <trkpt lat="44.22905" lon="6.97888">
        <ele>1795</ele>
        <time>2013-09-20T16:13:38Z</time>
      </trkpt>
      <trkpt lat="44.22893" lon="6.97878">
        <ele>1793</ele>
        <time>2013-09-20T16:13:43Z</time>
      </trkpt>
      <trkpt lat="44.22884" lon="6.9786">
        <ele>1790</ele>
        <time>2013-09-20T16:13:49Z</time>
      </trkpt>
      <trkpt lat="44.22876" lon="6.97854">
        <ele>1787</ele>
        <time>2013-09-20T16:13:54Z</time>
      </trkpt>
      <trkpt lat="44.22867" lon="6.97851">
        <ele>1784</ele>
        <time>2013-09-20T16:14:00Z</time>
      </trkpt>
      <trkpt lat="44.2286" lon="6.97849">
        <ele>1781</ele>
        <time>2013-09-20T16:14:06Z</time>
      </trkpt>
      <trkpt lat="44.22869" lon="6.9783">
        <ele>1777</ele>
        <time>2013-09-20T16:14:14Z</time>
      </trkpt>
      <trkpt lat="44.22862" lon="6.97814">
        <ele>1772</ele>
        <time>2013-09-20T16:14:22Z</time>
      </trkpt>
      <trkpt lat="44.22854" lon="6.97803">
        <ele>1770</ele>
        <time>2013-09-20T16:14:27Z</time>
      </trkpt>
      <trkpt lat="44.2285" lon="6.97792">
        <ele>1768</ele>
        <time>2013-09-20T16:14:31Z</time>
      </trkpt>
      <trkpt lat="44.22852" lon="6.97778">
        <ele>1763</ele>
        <time>2013-09-20T16:14:39Z</time>
      </trkpt>
      <trkpt lat="44.22856" lon="6.97768">
        <ele>1759</ele>
        <time>2013-09-20T16:14:49Z</time>
      </trkpt>
      <trkpt lat="44.22841" lon="6.97753">
        <ele>1753</ele>
        <time>2013-09-20T16:15:00Z</time>
      </trkpt>
      <trkpt lat="44.22836" lon="6.97743">
        <ele>1736</ele>
        <time>2013-09-20T16:15:37Z</time>
      </trkpt>
      <trkpt lat="44.22827" lon="6.97734">
        <ele>1734</ele>
        <time>2013-09-20T16:15:42Z</time>
      </trkpt>
      <trkpt lat="44.22818" lon="6.97724">
        <ele>1732</ele>
        <time>2013-09-20T16:15:47Z</time>
      </trkpt>
      <trkpt lat="44.22812" lon="6.97718">
        <ele>1730</ele>
        <time>2013-09-20T16:15:51Z</time>
      </trkpt>
      <trkpt lat="44.22803" lon="6.97711">
        <ele>1728</ele>
        <time>2013-09-20T16:15:56Z</time>
      </trkpt>
      <trkpt lat="44.22782" lon="6.97709">
        <ele>1724</ele>
        <time>2013-09-20T16:16:05Z</time>
      </trkpt>
      <trkpt lat="44.22755" lon="6.9771">
        <ele>1719</ele>
        <time>2013-09-20T16:16:15Z</time>
      </trkpt>
      <trkpt lat="44.22745" lon="6.97711">
        <ele>1717</ele>
        <time>2013-09-20T16:16:19Z</time>
      </trkpt>
      <trkpt lat="44.22728" lon="6.97721">
        <ele>1715</ele>
        <time>2013-09-20T16:16:25Z</time>
      </trkpt>
      <trkpt lat="44.22709" lon="6.97731">
        <ele>1711</ele>
        <time>2013-09-20T16:16:32Z</time>
      </trkpt>
      <trkpt lat="44.22699" lon="6.97739">
        <ele>1708</ele>
        <time>2013-09-20T16:16:38Z</time>
      </trkpt>
      <trkpt lat="44.22694" lon="6.97737">
        <ele>1704</ele>
        <time>2013-09-20T16:16:46Z</time>
      </trkpt>
      <trkpt lat="44.22693" lon="6.97736">
        <ele>1698</ele>
        <time>2013-09-20T16:17:00Z</time>
      </trkpt>
      <trkpt lat="44.22694" lon="6.97727">
        <ele>1674</ele>
        <time>2013-09-20T16:18:12Z</time>
      </trkpt>
      <trkpt lat="44.22698" lon="6.97714">
        <ele>1673</ele>
        <time>2013-09-20T16:18:16Z</time>
      </trkpt>
      <trkpt lat="44.22698" lon="6.9769">
        <ele>1671</ele>
        <time>2013-09-20T16:18:24Z</time>
      </trkpt>
      <trkpt lat="44.22697" lon="6.97674">
        <ele>1669</ele>
        <time>2013-09-20T16:18:30Z</time>
      </trkpt>
      <trkpt lat="44.22695" lon="6.97675">
        <ele>1667</ele>
        <time>2013-09-20T16:18:38Z</time>
      </trkpt>
      <trkpt lat="44.22683" lon="6.97692">
        <ele>1664</ele>
        <time>2013-09-20T16:18:46Z</time>
      </trkpt>
      <trkpt lat="44.22664" lon="6.97714">
        <ele>1662</ele>
        <time>2013-09-20T16:18:54Z</time>
      </trkpt>
      <trkpt lat="44.22646" lon="6.97738">
        <ele>1660</ele>
        <time>2013-09-20T16:19:02Z</time>
      </trkpt>
      <trkpt lat="44.22639" lon="6.97742">
        <ele>1658</ele>
        <time>2013-09-20T16:19:06Z</time>
      </trkpt>
      <trkpt lat="44.22636" lon="6.97742">
        <ele>1658</ele>
        <time>2013-09-20T16:19:08Z</time>
      </trkpt>
      <trkpt lat="44.22617" lon="6.97753">
        <ele>1654</ele>
        <time>2013-09-20T16:19:18Z</time>
      </trkpt>
      <trkpt lat="44.2261" lon="6.97765">
        <ele>1652</ele>
        <time>2013-09-20T16:19:24Z</time>
      </trkpt>
      <trkpt lat="44.22599" lon="6.97756">
        <ele>1649</ele>
        <time>2013-09-20T16:19:31Z</time>
      </trkpt>
      <trkpt lat="44.22589" lon="6.97752">
        <ele>1646</ele>
        <time>2013-09-20T16:19:38Z</time>
      </trkpt>
      <trkpt lat="44.22586" lon="6.97758">
        <ele>1644</ele>
        <time>2013-09-20T16:19:43Z</time>
      </trkpt>
      <trkpt lat="44.22584" lon="6.97756">
        <ele>1637</ele>
        <time>2013-09-20T16:20:03Z</time>
      </trkpt>
      <trkpt lat="44.22582" lon="6.97743">
        <ele>1635</ele>
        <time>2013-09-20T16:20:09Z</time>
      </trkpt>
      <trkpt lat="44.22577" lon="6.97742">
        <ele>1634</ele>
        <time>2013-09-20T16:20:13Z</time>
      </trkpt>
      <trkpt lat="44.2257" lon="6.97749">
        <ele>1632</ele>
        <time>2013-09-20T16:20:17Z</time>
      </trkpt>
      <trkpt lat="44.2256" lon="6.97735">
        <ele>1629</ele>
        <time>2013-09-20T16:20:24Z</time>
      </trkpt>
      <trkpt lat="44.22551" lon="6.97729">
        <ele>1627</ele>
        <time>2013-09-20T16:20:29Z</time>
      </trkpt>
      <trkpt lat="44.22536" lon="6.97707">
        <ele>1624</ele>
        <time>2013-09-20T16:20:37Z</time>
      </trkpt>
      <trkpt lat="44.2253" lon="6.97692">
        <ele>1622</ele>
        <time>2013-09-20T16:20:42Z</time>
      </trkpt>
      <trkpt lat="44.22527" lon="6.97685">
        <ele>1620</ele>
        <time>2013-09-20T16:20:47Z</time>
      </trkpt>
      <trkpt lat="44.22522" lon="6.97683">
        <ele>1617</ele>
        <time>2013-09-20T16:20:52Z</time>
      </trkpt>
      <trkpt lat="44.22511" lon="6.97703">
        <ele>1615</ele>
        <time>2013-09-20T16:20:58Z</time>
      </trkpt>
      <trkpt lat="44.22496" lon="6.97699">
        <ele>1612</ele>
        <time>2013-09-20T16:21:03Z</time>
      </trkpt>
      <trkpt lat="44.22494" lon="6.97691">
        <ele>1611</ele>
        <time>2013-09-20T16:21:06Z</time>
      </trkpt>
      <trkpt lat="44.22499" lon="6.97679">
        <ele>1609</ele>
        <time>2013-09-20T16:21:10Z</time>
      </trkpt>
      <trkpt lat="44.22501" lon="6.97666">
        <ele>1607</ele>
        <time>2013-09-20T16:21:14Z</time>
      </trkpt>
      <trkpt lat="44.22501" lon="6.97631">
        <ele>1602</ele>
        <time>2013-09-20T16:21:24Z</time>
      </trkpt>
      <trkpt lat="44.22501" lon="6.97626">
        <ele>1600</ele>
        <time>2013-09-20T16:21:28Z</time>
      </trkpt>
      <trkpt lat="44.22498" lon="6.97622">
        <ele>1597</ele>
        <time>2013-09-20T16:21:33Z</time>
      </trkpt>
      <trkpt lat="44.22491" lon="6.97599">
        <ele>1593</ele>
        <time>2013-09-20T16:21:41Z</time>
      </trkpt>
      <trkpt lat="44.22486" lon="6.9758">
        <ele>1590</ele>
        <time>2013-09-20T16:21:46Z</time>
      </trkpt>
      <trkpt lat="44.22472" lon="6.97546">
        <ele>1585</ele>
        <time>2013-09-20T16:21:56Z</time>
      </trkpt>
      <trkpt lat="44.22466" lon="6.97531">
        <ele>1580</ele>
        <time>2013-09-20T16:22:04Z</time>
      </trkpt>
      <trkpt lat="44.22459" lon="6.97514">
        <ele>1577</ele>
        <time>2013-09-20T16:22:10Z</time>
      </trkpt>
      <trkpt lat="44.22454" lon="6.97511">
        <ele>1574</ele>
        <time>2013-09-20T16:22:16Z</time>
      </trkpt>
      <trkpt lat="44.22439" lon="6.97502">
        <ele>1570</ele>
        <time>2013-09-20T16:22:23Z</time>
      </trkpt>
      <trkpt lat="44.22427" lon="6.97516">
        <ele>1566</ele>
        <time>2013-09-20T16:22:30Z</time>
      </trkpt>
      <trkpt lat="44.2242" lon="6.97514">
        <ele>1562</ele>
        <time>2013-09-20T16:22:36Z</time>
      </trkpt>
      <trkpt lat="44.22414" lon="6.97497">
        <ele>1559</ele>
        <time>2013-09-20T16:22:41Z</time>
      </trkpt>
      <trkpt lat="44.22408" lon="6.97487">
        <ele>1554</ele>
        <time>2013-09-20T16:22:50Z</time>
      </trkpt>
      <trkpt lat="44.22404" lon="6.97477">
        <ele>1491</ele>
        <time>2013-09-20T16:29:14Z</time>
      </trkpt>
      <trkpt lat="44.22395" lon="6.97448">
        <ele>1490</ele>
        <time>2013-09-20T16:29:24Z</time>
      </trkpt>
      <trkpt lat="44.2239" lon="6.97455">
        <ele>1490</ele>
        <time>2013-09-20T16:29:29Z</time>
      </trkpt>
      <trkpt lat="44.22385" lon="6.97453">
        <ele>1489</ele>
        <time>2013-09-20T16:29:33Z</time>
      </trkpt>
      <trkpt lat="44.2238" lon="6.97447">
        <ele>1488</ele>
        <time>2013-09-20T16:29:43Z</time>
      </trkpt>
      <trkpt lat="44.22379" lon="6.9745">
        <ele>1487</ele>
        <time>2013-09-20T16:29:55Z</time>
      </trkpt>
      <trkpt lat="44.22368" lon="6.97447">
        <ele>1486</ele>
        <time>2013-09-20T16:30:02Z</time>
      </trkpt>
      <trkpt lat="44.22368" lon="6.97442">
        <ele>1485</ele>
        <time>2013-09-20T16:30:06Z</time>
      </trkpt>
      <trkpt lat="44.22361" lon="6.9745">
        <ele>1485</ele>
        <time>2013-09-20T16:30:11Z</time>
      </trkpt>
      <trkpt lat="44.22354" lon="6.97465">
        <ele>1484</ele>
        <time>2013-09-20T16:30:16Z</time>
      </trkpt>
      <trkpt lat="44.22352" lon="6.97475">
        <ele>1483</ele>
        <time>2013-09-20T16:30:19Z</time>
      </trkpt>
      <trkpt lat="44.22332" lon="6.97467">
        <ele>1482</ele>
        <time>2013-09-20T16:30:25Z</time>
      </trkpt>
      <trkpt lat="44.22327" lon="6.9745">
        <ele>1480</ele>
        <time>2013-09-20T16:30:31Z</time>
      </trkpt>
      <trkpt lat="44.22326" lon="6.97441">
        <ele>1475</ele>
        <time>2013-09-20T16:30:56Z</time>
      </trkpt>
      <trkpt lat="44.22342" lon="6.97392">
        <ele>1473</ele>
        <time>2013-09-20T16:31:05Z</time>
      </trkpt>
      <trkpt lat="44.22355" lon="6.97363">
        <ele>1472</ele>
        <time>2013-09-20T16:31:11Z</time>
      </trkpt>
      <trkpt lat="44.2236" lon="6.97357">
        <ele>1471</ele>
        <time>2013-09-20T16:31:14Z</time>
      </trkpt>
      <trkpt lat="44.22362" lon="6.97354">
        <ele>1470</ele>
        <time>2013-09-20T16:31:19Z</time>
      </trkpt>
      <trkpt lat="44.22365" lon="6.97347">
        <ele>1468</ele>
        <time>2013-09-20T16:31:31Z</time>
      </trkpt>
      <trkpt lat="44.22385" lon="6.97319">
        <ele>1466</ele>
        <time>2013-09-20T16:31:43Z</time>
      </trkpt>
      <trkpt lat="44.22409" lon="6.97272">
        <ele>1463</ele>
        <time>2013-09-20T16:31:55Z</time>
      </trkpt>
      <trkpt lat="44.22432" lon="6.97244">
        <ele>1462</ele>
        <time>2013-09-20T16:32:03Z</time>
      </trkpt>
      <trkpt lat="44.22449" lon="6.97222">
        <ele>1460</ele>
        <time>2013-09-20T16:32:10Z</time>
      </trkpt>
      <trkpt lat="44.2249" lon="6.97167">
        <ele>1458</ele>
        <time>2013-09-20T16:32:20Z</time>
      </trkpt>
      <trkpt lat="44.22512" lon="6.97134">
        <ele>1457</ele>
        <time>2013-09-20T16:32:26Z</time>
      </trkpt>
      <trkpt lat="44.22527" lon="6.97117">
        <ele>1456</ele>
        <time>2013-09-20T16:32:29Z</time>
      </trkpt>
      <trkpt lat="44.2256" lon="6.97092">
        <ele>1454</ele>
        <time>2013-09-20T16:32:34Z</time>
      </trkpt>
      <trkpt lat="44.22586" lon="6.97072">
        <ele>1453</ele>
        <time>2013-09-20T16:32:38Z</time>
      </trkpt>
      <trkpt lat="44.22672" lon="6.97026">
        <ele>1449</ele>
        <time>2013-09-20T16:32:49Z</time>
      </trkpt>
      <trkpt lat="44.22723" lon="6.96995">
        <ele>1447</ele>
        <time>2013-09-20T16:32:56Z</time>
      </trkpt>
      <trkpt lat="44.22745" lon="6.96976">
        <ele>1445</ele>
        <time>2013-09-20T16:33:00Z</time>
      </trkpt>
      <trkpt lat="44.22755" lon="6.96969">
        <ele>1444</ele>
        <time>2013-09-20T16:33:03Z</time>
      </trkpt>
      <trkpt lat="44.22756" lon="6.96962">
        <ele>1442</ele>
        <time>2013-09-20T16:33:08Z</time>
      </trkpt>
      <trkpt lat="44.22758" lon="6.96967">
        <ele>1421</ele>
        <time>2013-09-20T16:34:38Z</time>
      </trkpt>
      <trkpt lat="44.22747" lon="6.96968">
        <ele>1410</ele>
        <time>2013-09-20T16:37:30Z</time>
      </trkpt>
      <trkpt lat="44.22698" lon="6.96979">
        <ele>1410</ele>
        <time>2013-09-20T16:37:38Z</time>
      </trkpt>
      <trkpt lat="44.22673" lon="6.96987">
        <ele>1409</ele>
        <time>2013-09-20T16:37:42Z</time>
      </trkpt>
      <trkpt lat="44.22649" lon="6.96997">
        <ele>1409</ele>
        <time>2013-09-20T16:37:46Z</time>
      </trkpt>
      <trkpt lat="44.22618" lon="6.96991">
        <ele>1408</ele>
        <time>2013-09-20T16:37:50Z</time>
      </trkpt>
      <trkpt lat="44.22554" lon="6.96991">
        <ele>1407</ele>
        <time>2013-09-20T16:37:58Z</time>
      </trkpt>
      <trkpt lat="44.2251" lon="6.96989">
        <ele>1405</ele>
        <time>2013-09-20T16:38:05Z</time>
      </trkpt>
      <trkpt lat="44.22473" lon="6.97006">
        <ele>1404</ele>
        <time>2013-09-20T16:38:10Z</time>
      </trkpt>
      <trkpt lat="44.22431" lon="6.97022">
        <ele>1403</ele>
        <time>2013-09-20T16:38:15Z</time>
      </trkpt>
      <trkpt lat="44.22393" lon="6.97036">
        <ele>1402</ele>
        <time>2013-09-20T16:38:20Z</time>
      </trkpt>
      <trkpt lat="44.22316" lon="6.97099">
        <ele>1398</ele>
        <time>2013-09-20T16:38:31Z</time>
      </trkpt>
      <trkpt lat="44.22263" lon="6.97138">
        <ele>1396</ele>
        <time>2013-09-20T16:38:38Z</time>
      </trkpt>
      <trkpt lat="44.22206" lon="6.97172">
        <ele>1393</ele>
        <time>2013-09-20T16:38:45Z</time>
      </trkpt>
      <trkpt lat="44.22182" lon="6.97192">
        <ele>1391</ele>
        <time>2013-09-20T16:38:49Z</time>
      </trkpt>
      <trkpt lat="44.22181" lon="6.97197">
        <ele>1386</ele>
        <time>2013-09-20T16:39:03Z</time>
      </trkpt>
      <trkpt lat="44.22178" lon="6.97189">
        <ele>1380</ele>
        <time>2013-09-20T16:39:19Z</time>
      </trkpt>
      <trkpt lat="44.22164" lon="6.9716">
        <ele>1378</ele>
        <time>2013-09-20T16:39:25Z</time>
      </trkpt>
      <trkpt lat="44.22167" lon="6.97143">
        <ele>1376</ele>
        <time>2013-09-20T16:39:30Z</time>
      </trkpt>
      <trkpt lat="44.22169" lon="6.97117">
        <ele>1373</ele>
        <time>2013-09-20T16:39:38Z</time>
      </trkpt>
      <trkpt lat="44.22146" lon="6.97122">
        <ele>1370</ele>
        <time>2013-09-20T16:39:45Z</time>
      </trkpt>
      <trkpt lat="44.22107" lon="6.97134">
        <ele>1366</ele>
        <time>2013-09-20T16:39:54Z</time>
      </trkpt>
      <trkpt lat="44.22094" lon="6.97133">
        <ele>1364</ele>
        <time>2013-09-20T16:39:58Z</time>
      </trkpt>
      <trkpt lat="44.22101" lon="6.97094">
        <ele>1361</ele>
        <time>2013-09-20T16:40:04Z</time>
      </trkpt>
      <trkpt lat="44.22107" lon="6.97077">
        <ele>1360</ele>
        <time>2013-09-20T16:40:07Z</time>
      </trkpt>
      <trkpt lat="44.22118" lon="6.97056">
        <ele>1356</ele>
        <time>2013-09-20T16:40:13Z</time>
      </trkpt>
      <trkpt lat="44.22119" lon="6.97054">
        <ele>1352</ele>
        <time>2013-09-20T16:40:22Z</time>
      </trkpt>
      <trkpt lat="44.22124" lon="6.9705">
        <ele>1340</ele>
        <time>2013-09-20T16:40:46Z</time>
      </trkpt>
      <trkpt lat="44.22153" lon="6.97012">
        <ele>1337</ele>
        <time>2013-09-20T16:40:53Z</time>
      </trkpt>
      <trkpt lat="44.22181" lon="6.96979">
        <ele>1335</ele>
        <time>2013-09-20T16:40:57Z</time>
      </trkpt>
      <trkpt lat="44.22193" lon="6.96948">
        <ele>1334</ele>
        <time>2013-09-20T16:41:00Z</time>
      </trkpt>
      <trkpt lat="44.22209" lon="6.96901">
        <ele>1332</ele>
        <time>2013-09-20T16:41:04Z</time>
      </trkpt>
      <trkpt lat="44.2226" lon="6.96838">
        <ele>1328</ele>
        <time>2013-09-20T16:41:11Z</time>
      </trkpt>
      <trkpt lat="44.22291" lon="6.96796">
        <ele>1326</ele>
        <time>2013-09-20T16:41:15Z</time>
      </trkpt>
      <trkpt lat="44.22332" lon="6.96767">
        <ele>1323</ele>
        <time>2013-09-20T16:41:19Z</time>
      </trkpt>
      <trkpt lat="44.22409" lon="6.96711">
        <ele>1318</ele>
        <time>2013-09-20T16:41:27Z</time>
      </trkpt>
      <trkpt lat="44.22424" lon="6.96698">
        <ele>1316</ele>
        <time>2013-09-20T16:41:31Z</time>
      </trkpt>
      <trkpt lat="44.22435" lon="6.96688">
        <ele>1312</ele>
        <time>2013-09-20T16:41:37Z</time>
      </trkpt>
      <trkpt lat="44.22434" lon="6.96685">
        <ele>1310</ele>
        <time>2013-09-20T16:41:41Z</time>
      </trkpt>
      <trkpt lat="44.2243" lon="6.9669">
        <ele>1303</ele>
        <time>2013-09-20T16:41:53Z</time>
      </trkpt>
      <trkpt lat="44.2243" lon="6.96687">
        <ele>1297</ele>
        <time>2013-09-20T16:42:05Z</time>
      </trkpt>
      <trkpt lat="44.22449" lon="6.96664">
        <ele>1293</ele>
        <time>2013-09-20T16:42:13Z</time>
      </trkpt>
      <trkpt lat="44.22474" lon="6.96649">
        <ele>1290</ele>
        <time>2013-09-20T16:42:20Z</time>
      </trkpt>
      <trkpt lat="44.22487" lon="6.96637">
        <ele>1287</ele>
        <time>2013-09-20T16:42:25Z</time>
      </trkpt>
      <trkpt lat="44.22494" lon="6.96625">
        <ele>1285</ele>
        <time>2013-09-20T16:42:28Z</time>
      </trkpt>
      <trkpt lat="44.2252" lon="6.96601">
        <ele>1282</ele>
        <time>2013-09-20T16:42:35Z</time>
      </trkpt>
      <trkpt lat="44.22532" lon="6.96587">
        <ele>1279</ele>
        <time>2013-09-20T16:42:39Z</time>
      </trkpt>
      <trkpt lat="44.22548" lon="6.96576">
        <ele>1277</ele>
        <time>2013-09-20T16:42:43Z</time>
      </trkpt>
      <trkpt lat="44.22564" lon="6.96561">
        <ele>1274</ele>
        <time>2013-09-20T16:42:49Z</time>
      </trkpt>
      <trkpt lat="44.22574" lon="6.96553">
        <ele>1272</ele>
        <time>2013-09-20T16:42:52Z</time>
      </trkpt>
      <trkpt lat="44.22589" lon="6.96535">
        <ele>1270</ele>
        <time>2013-09-20T16:42:56Z</time>
      </trkpt>
      <trkpt lat="44.22596" lon="6.96527">
        <ele>1268</ele>
        <time>2013-09-20T16:42:59Z</time>
      </trkpt>
      <trkpt lat="44.22626" lon="6.96502">
        <ele>1263</ele>
        <time>2013-09-20T16:43:08Z</time>
      </trkpt>
      <trkpt lat="44.22644" lon="6.96481">
        <ele>1258</ele>
        <time>2013-09-20T16:43:16Z</time>
      </trkpt>
      <trkpt lat="44.2264" lon="6.96481">
        <ele>1254</ele>
        <time>2013-09-20T16:43:24Z</time>
      </trkpt>
      <trkpt lat="44.22644" lon="6.96482">
        <ele>1242</ele>
        <time>2013-09-20T16:43:49Z</time>
      </trkpt>
      <trkpt lat="44.22656" lon="6.96465">
        <ele>1234</ele>
        <time>2013-09-20T16:44:08Z</time>
      </trkpt>
      <trkpt lat="44.22672" lon="6.96454">
        <ele>1232</ele>
        <time>2013-09-20T16:44:13Z</time>
      </trkpt>
      <trkpt lat="44.22678" lon="6.96452">
        <ele>1230</ele>
        <time>2013-09-20T16:44:17Z</time>
      </trkpt>
      <trkpt lat="44.22681" lon="6.96453">
        <ele>1226</ele>
        <time>2013-09-20T16:44:30Z</time>
      </trkpt>
      <trkpt lat="44.22676" lon="6.96448">
        <ele>1223</ele>
        <time>2013-09-20T16:44:38Z</time>
      </trkpt>
      <trkpt lat="44.22662" lon="6.96436">
        <ele>1220</ele>
        <time>2013-09-20T16:44:45Z</time>
      </trkpt>
      <trkpt lat="44.22648" lon="6.96429">
        <ele>1218</ele>
        <time>2013-09-20T16:44:50Z</time>
      </trkpt>
      <trkpt lat="44.22639" lon="6.96437">
        <ele>1215</ele>
        <time>2013-09-20T16:44:58Z</time>
      </trkpt>
      <trkpt lat="44.22623" lon="6.96444">
        <ele>1213</ele>
        <time>2013-09-20T16:45:04Z</time>
      </trkpt>
      <trkpt lat="44.22604" lon="6.9645">
        <ele>1209</ele>
        <time>2013-09-20T16:45:13Z</time>
      </trkpt>
      <trkpt lat="44.22607" lon="6.96448">
        <ele>1203</ele>
        <time>2013-09-20T16:45:26Z</time>
      </trkpt>
      <trkpt lat="44.22604" lon="6.96449">
        <ele>1199</ele>
        <time>2013-09-20T16:45:36Z</time>
      </trkpt>
      <trkpt lat="44.22601" lon="6.96445">
        <ele>1195</ele>
        <time>2013-09-20T16:45:45Z</time>
      </trkpt>
      <trkpt lat="44.22598" lon="6.96436">
        <ele>1193</ele>
        <time>2013-09-20T16:45:51Z</time>
      </trkpt>
      <trkpt lat="44.2261" lon="6.96419">
        <ele>1190</ele>
        <time>2013-09-20T16:45:58Z</time>
      </trkpt>
      <trkpt lat="44.2261" lon="6.96416">
        <ele>1189</ele>
        <time>2013-09-20T16:46:00Z</time>
      </trkpt>
      <trkpt lat="44.22618" lon="6.96397">
        <ele>1186</ele>
        <time>2013-09-20T16:46:06Z</time>
      </trkpt>
      <trkpt lat="44.22638" lon="6.96358">
        <ele>1181</ele>
        <time>2013-09-20T16:46:16Z</time>
      </trkpt>
      <trkpt lat="44.22649" lon="6.96354">
        <ele>1179</ele>
        <time>2013-09-20T16:46:20Z</time>
      </trkpt>
      <trkpt lat="44.22663" lon="6.9635">
        <ele>1177</ele>
        <time>2013-09-20T16:46:24Z</time>
      </trkpt>
      <trkpt lat="44.22668" lon="6.96341">
        <ele>1175</ele>
        <time>2013-09-20T16:46:27Z</time>
      </trkpt>
      <trkpt lat="44.22668" lon="6.96326">
        <ele>1174</ele>
        <time>2013-09-20T16:46:30Z</time>
      </trkpt>
      <trkpt lat="44.22676" lon="6.96311">
        <ele>1171</ele>
        <time>2013-09-20T16:46:34Z</time>
      </trkpt>
      <trkpt lat="44.22672" lon="6.96295">
        <ele>1169</ele>
        <time>2013-09-20T16:46:38Z</time>
      </trkpt>
      <trkpt lat="44.22679" lon="6.96281">
        <ele>1165</ele>
        <time>2013-09-20T16:46:45Z</time>
      </trkpt>
      <trkpt lat="44.22666" lon="6.9627">
        <ele>1161</ele>
        <time>2013-09-20T16:46:53Z</time>
      </trkpt>
      <trkpt lat="44.22664" lon="6.96266">
        <ele>1159</ele>
        <time>2013-09-20T16:46:56Z</time>
      </trkpt>
      <trkpt lat="44.22671" lon="6.9626">
        <ele>1155</ele>
        <time>2013-09-20T16:47:04Z</time>
      </trkpt>
      <trkpt lat="44.22669" lon="6.96264">
        <ele>1143</ele>
        <time>2013-09-20T16:47:29Z</time>
      </trkpt>
      <trkpt lat="44.22676" lon="6.96261">
        <ele>1138</ele>
        <time>2013-09-20T16:47:45Z</time>
      </trkpt>
      <trkpt lat="44.22667" lon="6.96266">
        <ele>1126</ele>
        <time>2013-09-20T16:48:24Z</time>
      </trkpt>
      <trkpt lat="44.22647" lon="6.96284">
        <ele>1124</ele>
        <time>2013-09-20T16:48:31Z</time>
      </trkpt>
      <trkpt lat="44.22645" lon="6.96302">
        <ele>1123</ele>
        <time>2013-09-20T16:48:35Z</time>
      </trkpt>
      <trkpt lat="44.22622" lon="6.96283">
        <ele>1122</ele>
        <time>2013-09-20T16:48:40Z</time>
      </trkpt>
      <trkpt lat="44.22593" lon="6.96257">
        <ele>1119</ele>
        <time>2013-09-20T16:48:46Z</time>
      </trkpt>
      <trkpt lat="44.22568" lon="6.9624">
        <ele>1118</ele>
        <time>2013-09-20T16:48:50Z</time>
      </trkpt>
      <trkpt lat="44.22544" lon="6.96215">
        <ele>1116</ele>
        <time>2013-09-20T16:48:54Z</time>
      </trkpt>
      <trkpt lat="44.22526" lon="6.96197">
        <ele>1114</ele>
        <time>2013-09-20T16:48:58Z</time>
      </trkpt>
      <trkpt lat="44.22518" lon="6.96186">
        <ele>1112</ele>
        <time>2013-09-20T16:49:02Z</time>
      </trkpt>
      <trkpt lat="44.22518" lon="6.96181">
        <ele>1109</ele>
        <time>2013-09-20T16:49:08Z</time>
      </trkpt>
      <trkpt lat="44.22519" lon="6.96181">
        <ele>1096</ele>
        <time>2013-09-20T16:49:41Z</time>
      </trkpt>
      <trkpt lat="44.2252" lon="6.96182">
        <ele>1073</ele>
        <time>2013-09-20T16:51:19Z</time>
      </trkpt>
      <trkpt lat="44.22522" lon="6.96183">
        <ele>1066</ele>
        <time>2013-09-20T16:52:23Z</time>
      </trkpt>
      <trkpt lat="44.22519" lon="6.96177">
        <ele>1062</ele>
        <time>2013-09-20T16:53:17Z</time>
      </trkpt>
      <trkpt lat="44.22521" lon="6.96165">
        <ele>1062</ele>
        <time>2013-09-20T16:53:22Z</time>
      </trkpt>
      <trkpt lat="44.22526" lon="6.96141">
        <ele>1062</ele>
        <time>2013-09-20T16:53:29Z</time>
      </trkpt>
      <trkpt lat="44.22536" lon="6.9608">
        <ele>1061</ele>
        <time>2013-09-20T16:53:45Z</time>
      </trkpt>
      <trkpt lat="44.22539" lon="6.96037">
        <ele>1061</ele>
        <time>2013-09-20T16:53:55Z</time>
      </trkpt>
      <trkpt lat="44.22576" lon="6.95978">
        <ele>1061</ele>
        <time>2013-09-20T16:54:12Z</time>
      </trkpt>
      <trkpt lat="44.22588" lon="6.95971">
        <ele>1066</ele>
        <time>2013-09-20T16:57:11Z</time>
      </trkpt>
      <trkpt lat="44.22628" lon="6.95948">
        <ele>1066</ele>
        <time>2013-09-20T16:57:24Z</time>
      </trkpt>
      <trkpt lat="44.22684" lon="6.95917">
        <ele>1066</ele>
        <time>2013-09-20T16:57:36Z</time>
      </trkpt>
      <trkpt lat="44.2275" lon="6.95869">
        <ele>1066</ele>
        <time>2013-09-20T16:57:45Z</time>
      </trkpt>
      <trkpt lat="44.22771" lon="6.95851">
        <ele>1066</ele>
        <time>2013-09-20T16:57:49Z</time>
      </trkpt>
      <trkpt lat="44.22834" lon="6.95817">
        <ele>1066</ele>
        <time>2013-09-20T16:58:04Z</time>
      </trkpt>
      <trkpt lat="44.22893" lon="6.95794">
        <ele>1065</ele>
        <time>2013-09-20T16:58:17Z</time>
      </trkpt>
      <trkpt lat="44.2296" lon="6.9573">
        <ele>1065</ele>
        <time>2013-09-20T16:58:30Z</time>
      </trkpt>
      <trkpt lat="44.23012" lon="6.95647">
        <ele>1065</ele>
        <time>2013-09-20T16:58:43Z</time>
      </trkpt>
      <trkpt lat="44.23046" lon="6.95575">
        <ele>1065</ele>
        <time>2013-09-20T16:58:54Z</time>
      </trkpt>
      <trkpt lat="44.23054" lon="6.95567">
        <ele>1065</ele>
        <time>2013-09-20T16:58:59Z</time>
      </trkpt>
      <trkpt lat="44.23053" lon="6.95567">
        <ele>1065</ele>
        <time>2013-09-20T16:59:11Z</time>
      </trkpt>
      <trkpt lat="44.23052" lon="6.95568">
        <ele>1066</ele>
        <time>2013-09-20T17:00:13Z</time>
      </trkpt>
      <trkpt lat="44.23053" lon="6.95569">
        <ele>1066</ele>
        <time>2013-09-20T17:00:30Z</time>
      </trkpt>
      <trkpt lat="44.23051" lon="6.95569">
        <ele>1066</ele>
        <time>2013-09-20T17:01:47Z</time>
      </trkpt>
      <trkpt lat="44.23054" lon="6.95567">
        <ele>1066</ele>
        <time>2013-09-20T17:02:30Z</time>
      </trkpt>
      <trkpt lat="44.23059" lon="6.95561">
        <ele>1066</ele>
        <time>2013-09-20T17:02:34Z</time>
      </trkpt>
      <trkpt lat="44.23079" lon="6.9553">
        <ele>1066</ele>
        <time>2013-09-20T17:02:46Z</time>
      </trkpt>
      <trkpt lat="44.23111" lon="6.95481">
        <ele>1066</ele>
        <time>2013-09-20T17:03:04Z</time>
      </trkpt>
      <trkpt lat="44.23137" lon="6.95439">
        <ele>1066</ele>
        <time>2013-09-20T17:03:19Z</time>
      </trkpt>
      <trkpt lat="44.23164" lon="6.95398">
        <ele>1066</ele>
        <time>2013-09-20T17:03:34Z</time>
      </trkpt>
      <trkpt lat="44.23194" lon="6.95339">
        <ele>1066</ele>
        <time>2013-09-20T17:03:52Z</time>
      </trkpt>
      <trkpt lat="44.23222" lon="6.95257">
        <ele>1067</ele>
        <time>2013-09-20T17:04:13Z</time>
      </trkpt>
      <trkpt lat="44.23252" lon="6.95179">
        <ele>1068</ele>
        <time>2013-09-20T17:04:34Z</time>
      </trkpt>
      <trkpt lat="44.23269" lon="6.95148">
        <ele>1068</ele>
        <time>2013-09-20T17:04:45Z</time>
      </trkpt>
      <trkpt lat="44.23278" lon="6.95138">
        <ele>1068</ele>
        <time>2013-09-20T17:04:49Z</time>
      </trkpt>
      <trkpt lat="44.23305" lon="6.95085">
        <ele>1069</ele>
        <time>2013-09-20T17:05:04Z</time>
      </trkpt>
      <trkpt lat="44.23308" lon="6.95068">
        <ele>1070</ele>
        <time>2013-09-20T17:05:09Z</time>
      </trkpt>
      <trkpt lat="44.23317" lon="6.95056">
        <ele>1070</ele>
        <time>2013-09-20T17:05:13Z</time>
      </trkpt>
      <trkpt lat="44.23335" lon="6.95016">
        <ele>1070</ele>
        <time>2013-09-20T17:05:24Z</time>
      </trkpt>
      <trkpt lat="44.23372" lon="6.94936">
        <ele>1072</ele>
        <time>2013-09-20T17:05:42Z</time>
      </trkpt>
      <trkpt lat="44.23423" lon="6.94867">
        <ele>1073</ele>
        <time>2013-09-20T17:06:01Z</time>
      </trkpt>
      <trkpt lat="44.2347" lon="6.94839">
        <ele>1074</ele>
        <time>2013-09-20T17:06:17Z</time>
      </trkpt>
      <trkpt lat="44.23491" lon="6.94802">
        <ele>1075</ele>
        <time>2013-09-20T17:06:28Z</time>
      </trkpt>
      <trkpt lat="44.23547" lon="6.94746">
        <ele>1075</ele>
        <time>2013-09-20T17:06:40Z</time>
      </trkpt>
      <trkpt lat="44.23585" lon="6.94686">
        <ele>1076</ele>
        <time>2013-09-20T17:06:53Z</time>
      </trkpt>
      <trkpt lat="44.23626" lon="6.9463">
        <ele>1076</ele>
        <time>2013-09-20T17:07:08Z</time>
      </trkpt>
      <trkpt lat="44.23677" lon="6.94579">
        <ele>1077</ele>
        <time>2013-09-20T17:07:24Z</time>
      </trkpt>
      <trkpt lat="44.23719" lon="6.94542">
        <ele>1078</ele>
        <time>2013-09-20T17:07:37Z</time>
      </trkpt>
      <trkpt lat="44.23775" lon="6.94539">
        <ele>1079</ele>
        <time>2013-09-20T17:07:52Z</time>
      </trkpt>
      <trkpt lat="44.23848" lon="6.94535">
        <ele>1080</ele>
        <time>2013-09-20T17:08:12Z</time>
      </trkpt>
      <trkpt lat="44.23917" lon="6.94509">
        <ele>1082</ele>
        <time>2013-09-20T17:08:32Z</time>
      </trkpt>
      <trkpt lat="44.23944" lon="6.94475">
        <ele>1084</ele>
        <time>2013-09-20T17:08:47Z</time>
      </trkpt>
      <trkpt lat="44.23977" lon="6.9446">
        <ele>1085</ele>
        <time>2013-09-20T17:09:05Z</time>
      </trkpt>
      <trkpt lat="44.23991" lon="6.94449">
        <ele>1086</ele>
        <time>2013-09-20T17:09:12Z</time>
      </trkpt>
      <trkpt lat="44.24" lon="6.94408">
        <ele>1086</ele>
        <time>2013-09-20T17:09:24Z</time>
      </trkpt>
      <trkpt lat="44.24015" lon="6.94357">
        <ele>1087</ele>
        <time>2013-09-20T17:09:39Z</time>
      </trkpt>
      <trkpt lat="44.24039" lon="6.94296">
        <ele>1089</ele>
        <time>2013-09-20T17:09:57Z</time>
      </trkpt>
      <trkpt lat="44.24068" lon="6.94233">
        <ele>1091</ele>
        <time>2013-09-20T17:10:16Z</time>
      </trkpt>
      <trkpt lat="44.24116" lon="6.94181">
        <ele>1094</ele>
        <time>2013-09-20T17:10:35Z</time>
      </trkpt>
      <trkpt lat="44.24157" lon="6.94138">
        <ele>1096</ele>
        <time>2013-09-20T17:10:50Z</time>
      </trkpt>
      <trkpt lat="44.24206" lon="6.94096">
        <ele>1099</ele>
        <time>2013-09-20T17:11:08Z</time>
      </trkpt>
      <trkpt lat="44.24229" lon="6.94068">
        <ele>1100</ele>
        <time>2013-09-20T17:11:18Z</time>
      </trkpt>
      <trkpt lat="44.24264" lon="6.9403">
        <ele>1104</ele>
        <time>2013-09-20T17:11:33Z</time>
      </trkpt>
      <trkpt lat="44.2431" lon="6.93998">
        <ele>1110</ele>
        <time>2013-09-20T17:11:51Z</time>
      </trkpt>
      <trkpt lat="44.24362" lon="6.93956">
        <ele>1115</ele>
        <time>2013-09-20T17:12:12Z</time>
      </trkpt>
      <trkpt lat="44.24391" lon="6.93915">
        <ele>1119</ele>
        <time>2013-09-20T17:12:27Z</time>
      </trkpt>
      <trkpt lat="44.24414" lon="6.93879">
        <ele>1122</ele>
        <time>2013-09-20T17:12:39Z</time>
      </trkpt>
      <trkpt lat="44.24445" lon="6.93833">
        <ele>1126</ele>
        <time>2013-09-20T17:12:56Z</time>
      </trkpt>
      <trkpt lat="44.24463" lon="6.93805">
        <ele>1128</ele>
        <time>2013-09-20T17:13:08Z</time>
      </trkpt>
      <trkpt lat="44.24477" lon="6.93779">
        <ele>1130</ele>
        <time>2013-09-20T17:13:20Z</time>
      </trkpt>
      <trkpt lat="44.24489" lon="6.93746">
        <ele>1130</ele>
        <time>2013-09-20T17:13:36Z</time>
      </trkpt>
      <trkpt lat="44.24512" lon="6.93715">
        <ele>1130</ele>
        <time>2013-09-20T17:13:55Z</time>
      </trkpt>
      <trkpt lat="44.24535" lon="6.93693">
        <ele>1131</ele>
        <time>2013-09-20T17:14:12Z</time>
      </trkpt>
      <trkpt lat="44.24556" lon="6.93661">
        <ele>1132</ele>
        <time>2013-09-20T17:14:30Z</time>
      </trkpt>
      <trkpt lat="44.24567" lon="6.93632">
        <ele>1133</ele>
        <time>2013-09-20T17:14:43Z</time>
      </trkpt>
      <trkpt lat="44.24603" lon="6.93608">
        <ele>1135</ele>
        <time>2013-09-20T17:15:03Z</time>
      </trkpt>
      <trkpt lat="44.24628" lon="6.93559">
        <ele>1137</ele>
        <time>2013-09-20T17:15:18Z</time>
      </trkpt>
      <trkpt lat="44.24643" lon="6.93518">
        <ele>1138</ele>
        <time>2013-09-20T17:15:24Z</time>
      </trkpt>
      <trkpt lat="44.24682" lon="6.93473">
        <ele>1137</ele>
        <time>2013-09-20T17:15:30Z</time>
      </trkpt>
      <trkpt lat="44.24735" lon="6.93414">
        <ele>1137</ele>
        <time>2013-09-20T17:15:36Z</time>
      </trkpt>
      <trkpt lat="44.24754" lon="6.9337">
        <ele>1136</ele>
        <time>2013-09-20T17:15:39Z</time>
      </trkpt>
      <trkpt lat="44.24793" lon="6.93349">
        <ele>1136</ele>
        <time>2013-09-20T17:15:43Z</time>
      </trkpt>
      <trkpt lat="44.24831" lon="6.93359">
        <ele>1135</ele>
        <time>2013-09-20T17:15:47Z</time>
      </trkpt>
      <trkpt lat="44.24857" lon="6.93329">
        <ele>1134</ele>
        <time>2013-09-20T17:15:51Z</time>
      </trkpt>
      <trkpt lat="44.24895" lon="6.93275">
        <ele>1133</ele>
        <time>2013-09-20T17:15:58Z</time>
      </trkpt>
      <trkpt lat="44.24943" lon="6.9321">
        <ele>1132</ele>
        <time>2013-09-20T17:16:10Z</time>
      </trkpt>
      <trkpt lat="44.24964" lon="6.93198">
        <ele>1132</ele>
        <time>2013-09-20T17:16:15Z</time>
      </trkpt>
      <trkpt lat="44.25017" lon="6.9316">
        <ele>1132</ele>
        <time>2013-09-20T17:16:31Z</time>
      </trkpt>
      <trkpt lat="44.25056" lon="6.93201">
        <ele>1131</ele>
        <time>2013-09-20T17:16:41Z</time>
      </trkpt>
      <trkpt lat="44.25078" lon="6.93211">
        <ele>1131</ele>
        <time>2013-09-20T17:16:45Z</time>
      </trkpt>
      <trkpt lat="44.25103" lon="6.93159">
        <ele>1130</ele>
        <time>2013-09-20T17:16:53Z</time>
      </trkpt>
      <trkpt lat="44.25127" lon="6.93108">
        <ele>1130</ele>
        <time>2013-09-20T17:17:07Z</time>
      </trkpt>
      <trkpt lat="44.25158" lon="6.93062">
        <ele>1130</ele>
        <time>2013-09-20T17:17:25Z</time>
      </trkpt>
      <trkpt lat="44.25183" lon="6.93012">
        <ele>1130</ele>
        <time>2013-09-20T17:17:41Z</time>
      </trkpt>
      <trkpt lat="44.25219" lon="6.92962">
        <ele>1131</ele>
        <time>2013-09-20T17:17:59Z</time>
      </trkpt>
      <trkpt lat="44.25254" lon="6.92903">
        <ele>1132</ele>
        <time>2013-09-20T17:18:18Z</time>
      </trkpt>
      <trkpt lat="44.25291" lon="6.92858">
        <ele>1134</ele>
        <time>2013-09-20T17:18:36Z</time>
      </trkpt>
      <trkpt lat="44.25325" lon="6.92803">
        <ele>1136</ele>
        <time>2013-09-20T17:18:54Z</time>
      </trkpt>
      <trkpt lat="44.25353" lon="6.92772">
        <ele>1138</ele>
        <time>2013-09-20T17:19:07Z</time>
      </trkpt>
      <trkpt lat="44.254" lon="6.92757">
        <ele>1139</ele>
        <time>2013-09-20T17:19:24Z</time>
      </trkpt>
      <trkpt lat="44.25443" lon="6.92734">
        <ele>1140</ele>
        <time>2013-09-20T17:19:40Z</time>
      </trkpt>
      <trkpt lat="44.25481" lon="6.92699">
        <ele>1141</ele>
        <time>2013-09-20T17:19:56Z</time>
      </trkpt>
      <trkpt lat="44.25519" lon="6.92662">
        <ele>1142</ele>
        <time>2013-09-20T17:20:12Z</time>
      </trkpt>
      <trkpt lat="44.25543" lon="6.92626">
        <ele>1144</ele>
        <time>2013-09-20T17:20:26Z</time>
      </trkpt>
      <trkpt lat="44.25556" lon="6.92599">
        <ele>1144</ele>
        <time>2013-09-20T17:20:37Z</time>
      </trkpt>
      <trkpt lat="44.2557" lon="6.92585">
        <ele>1145</ele>
        <time>2013-09-20T17:20:49Z</time>
      </trkpt>
      <trkpt lat="44.2557" lon="6.92579">
        <ele>1146</ele>
        <time>2013-09-20T17:20:54Z</time>
      </trkpt>
      <trkpt lat="44.2557" lon="6.9258">
        <ele>1146</ele>
        <time>2013-09-20T17:20:58Z</time>
      </trkpt>
    </trkseg>
  </trk>
</gpx>